<?xml version="1.0" encoding="UTF-8" standalone="no" ?>
<gpx xmlns="http://www.topografix.com/GPX/1/1" xmlns:xsi="http://www.w3.org/2001/XMLSchema-instance" xsi:schemaLocation="http://www.topografix.com/GPX/1/1 http://www.topografix.com/GPX/1/1/gpx.xsd" version="1.1" creator="VisuGPX - https://www.visugpx.com">
  <metadata>
    <name>Vieux Roquefort</name>
    <desc><![CDATA[Parcours très agréable.
Départ de Ceyreste.]]></desc>
  </metadata>
  <trk>
    <name><![CDATA[Vieux Roquefort_1]]></name>
    <trkseg>
      <trkpt lat="43.21544" lon="5.62362">
        <ele>103.3</ele>
        <time>2021-04-14T08:47:05Z</time>
      </trkpt>
      <trkpt lat="43.21547" lon="5.62356">
        <ele>103.3</ele>
        <time>2021-04-14T08:47:09Z</time>
      </trkpt>
      <trkpt lat="43.21552" lon="5.62354">
        <ele>103.2</ele>
        <time>2021-04-14T08:47:15Z</time>
      </trkpt>
      <trkpt lat="43.21557" lon="5.62351">
        <ele>103</ele>
        <time>2021-04-14T08:47:21Z</time>
      </trkpt>
      <trkpt lat="43.21563" lon="5.62347">
        <ele>102.9</ele>
        <time>2021-04-14T08:47:27Z</time>
      </trkpt>
      <trkpt lat="43.21568" lon="5.62344">
        <ele>102.7</ele>
        <time>2021-04-14T08:47:33Z</time>
      </trkpt>
      <trkpt lat="43.21572" lon="5.62341">
        <ele>102.5</ele>
        <time>2021-04-14T08:47:37Z</time>
      </trkpt>
      <trkpt lat="43.21576" lon="5.62336">
        <ele>102.3</ele>
        <time>2021-04-14T08:47:43Z</time>
      </trkpt>
      <trkpt lat="43.2158" lon="5.62332">
        <ele>102</ele>
        <time>2021-04-14T08:47:49Z</time>
      </trkpt>
      <trkpt lat="43.21585" lon="5.62329">
        <ele>101.8</ele>
        <time>2021-04-14T08:47:55Z</time>
      </trkpt>
      <trkpt lat="43.21589" lon="5.62326">
        <ele>101.6</ele>
        <time>2021-04-14T08:48:01Z</time>
      </trkpt>
      <trkpt lat="43.21593" lon="5.62323">
        <ele>101.4</ele>
        <time>2021-04-14T08:48:07Z</time>
      </trkpt>
      <trkpt lat="43.21599" lon="5.62321">
        <ele>101.3</ele>
        <time>2021-04-14T08:48:13Z</time>
      </trkpt>
      <trkpt lat="43.21604" lon="5.62319">
        <ele>101.2</ele>
        <time>2021-04-14T08:48:19Z</time>
      </trkpt>
      <trkpt lat="43.21609" lon="5.62313">
        <ele>101.2</ele>
        <time>2021-04-14T08:48:23Z</time>
      </trkpt>
      <trkpt lat="43.21615" lon="5.62309">
        <ele>101.2</ele>
        <time>2021-04-14T08:48:29Z</time>
      </trkpt>
      <trkpt lat="43.21619" lon="5.62307">
        <ele>101.2</ele>
        <time>2021-04-14T08:48:33Z</time>
      </trkpt>
      <trkpt lat="43.21625" lon="5.62306">
        <ele>101.3</ele>
        <time>2021-04-14T08:48:37Z</time>
      </trkpt>
      <trkpt lat="43.21631" lon="5.62306">
        <ele>101.4</ele>
        <time>2021-04-14T08:48:43Z</time>
      </trkpt>
      <trkpt lat="43.21636" lon="5.62306">
        <ele>101.5</ele>
        <time>2021-04-14T08:48:49Z</time>
      </trkpt>
      <trkpt lat="43.21639" lon="5.62301">
        <ele>101.7</ele>
        <time>2021-04-14T08:48:55Z</time>
      </trkpt>
      <trkpt lat="43.21641" lon="5.62294">
        <ele>102</ele>
        <time>2021-04-14T08:49:01Z</time>
      </trkpt>
      <trkpt lat="43.21639" lon="5.62287">
        <ele>102.2</ele>
        <time>2021-04-14T08:49:07Z</time>
      </trkpt>
      <trkpt lat="43.21638" lon="5.6228">
        <ele>102.3</ele>
        <time>2021-04-14T08:49:13Z</time>
      </trkpt>
      <trkpt lat="43.21636" lon="5.62273">
        <ele>102.4</ele>
        <time>2021-04-14T08:49:19Z</time>
      </trkpt>
      <trkpt lat="43.21633" lon="5.62267">
        <ele>102.4</ele>
        <time>2021-04-14T08:49:25Z</time>
      </trkpt>
      <trkpt lat="43.21631" lon="5.62261">
        <ele>102.3</ele>
        <time>2021-04-14T08:49:31Z</time>
      </trkpt>
      <trkpt lat="43.21628" lon="5.62253">
        <ele>102.2</ele>
        <time>2021-04-14T08:49:39Z</time>
      </trkpt>
      <trkpt lat="43.21627" lon="5.62247">
        <ele>102.3</ele>
        <time>2021-04-14T08:49:45Z</time>
      </trkpt>
      <trkpt lat="43.21625" lon="5.62241">
        <ele>102.3</ele>
        <time>2021-04-14T08:49:51Z</time>
      </trkpt>
      <trkpt lat="43.21622" lon="5.62235">
        <ele>102.2</ele>
        <time>2021-04-14T08:49:57Z</time>
      </trkpt>
      <trkpt lat="43.2162" lon="5.62229">
        <ele>102.2</ele>
        <time>2021-04-14T08:50:03Z</time>
      </trkpt>
      <trkpt lat="43.21617" lon="5.62221">
        <ele>102</ele>
        <time>2021-04-14T08:50:09Z</time>
      </trkpt>
      <trkpt lat="43.21615" lon="5.62213">
        <ele>102</ele>
        <time>2021-04-14T08:50:15Z</time>
      </trkpt>
      <trkpt lat="43.21613" lon="5.62205">
        <ele>101.9</ele>
        <time>2021-04-14T08:50:21Z</time>
      </trkpt>
      <trkpt lat="43.2161" lon="5.62198">
        <ele>101.5</ele>
        <time>2021-04-14T08:50:27Z</time>
      </trkpt>
      <trkpt lat="43.21608" lon="5.62191">
        <ele>101.4</ele>
        <time>2021-04-14T08:50:33Z</time>
      </trkpt>
      <trkpt lat="43.21607" lon="5.62185">
        <ele>101.2</ele>
        <time>2021-04-14T08:50:39Z</time>
      </trkpt>
      <trkpt lat="43.21605" lon="5.62178">
        <ele>101</ele>
        <time>2021-04-14T08:50:45Z</time>
      </trkpt>
      <trkpt lat="43.21605" lon="5.62172">
        <ele>101.2</ele>
        <time>2021-04-14T08:50:51Z</time>
      </trkpt>
      <trkpt lat="43.21612" lon="5.62171">
        <ele>102.3</ele>
        <time>2021-04-14T08:51:03Z</time>
      </trkpt>
      <trkpt lat="43.21617" lon="5.62171">
        <ele>103.4</ele>
        <time>2021-04-14T08:51:11Z</time>
      </trkpt>
      <trkpt lat="43.21622" lon="5.62173">
        <ele>104.2</ele>
        <time>2021-04-14T08:51:17Z</time>
      </trkpt>
      <trkpt lat="43.21628" lon="5.62176">
        <ele>105.1</ele>
        <time>2021-04-14T08:51:25Z</time>
      </trkpt>
      <trkpt lat="43.21632" lon="5.62176">
        <ele>106</ele>
        <time>2021-04-14T08:51:33Z</time>
      </trkpt>
      <trkpt lat="43.21637" lon="5.62172">
        <ele>106.9</ele>
        <time>2021-04-14T08:51:41Z</time>
      </trkpt>
      <trkpt lat="43.21642" lon="5.62172">
        <ele>107.9</ele>
        <time>2021-04-14T08:52:03Z</time>
      </trkpt>
      <trkpt lat="43.21647" lon="5.62171">
        <ele>109</ele>
        <time>2021-04-14T08:52:11Z</time>
      </trkpt>
      <trkpt lat="43.21653" lon="5.62167">
        <ele>110.4</ele>
        <time>2021-04-14T08:52:17Z</time>
      </trkpt>
      <trkpt lat="43.21658" lon="5.62167">
        <ele>111.3</ele>
        <time>2021-04-14T08:52:23Z</time>
      </trkpt>
      <trkpt lat="43.21662" lon="5.62168">
        <ele>112.1</ele>
        <time>2021-04-14T08:52:29Z</time>
      </trkpt>
      <trkpt lat="43.21668" lon="5.62166">
        <ele>113.2</ele>
        <time>2021-04-14T08:52:37Z</time>
      </trkpt>
      <trkpt lat="43.21673" lon="5.62163">
        <ele>113.9</ele>
        <time>2021-04-14T08:53:25Z</time>
      </trkpt>
      <trkpt lat="43.21678" lon="5.62161">
        <ele>114.7</ele>
        <time>2021-04-14T08:53:35Z</time>
      </trkpt>
      <trkpt lat="43.21682" lon="5.62158">
        <ele>115.4</ele>
        <time>2021-04-14T08:53:43Z</time>
      </trkpt>
      <trkpt lat="43.21688" lon="5.62157">
        <ele>116.4</ele>
        <time>2021-04-14T08:53:51Z</time>
      </trkpt>
      <trkpt lat="43.21693" lon="5.62155">
        <ele>117.2</ele>
        <time>2021-04-14T08:53:57Z</time>
      </trkpt>
      <trkpt lat="43.21697" lon="5.62152">
        <ele>117.8</ele>
        <time>2021-04-14T08:54:03Z</time>
      </trkpt>
      <trkpt lat="43.21702" lon="5.62151">
        <ele>118.6</ele>
        <time>2021-04-14T08:54:09Z</time>
      </trkpt>
      <trkpt lat="43.21706" lon="5.6215">
        <ele>119.4</ele>
        <time>2021-04-14T08:54:15Z</time>
      </trkpt>
      <trkpt lat="43.21711" lon="5.62147">
        <ele>120.2</ele>
        <time>2021-04-14T08:54:23Z</time>
      </trkpt>
      <trkpt lat="43.21716" lon="5.62146">
        <ele>121</ele>
        <time>2021-04-14T08:54:31Z</time>
      </trkpt>
      <trkpt lat="43.21722" lon="5.62145">
        <ele>121.9</ele>
        <time>2021-04-14T08:54:39Z</time>
      </trkpt>
      <trkpt lat="43.21727" lon="5.62146">
        <ele>122.8</ele>
        <time>2021-04-14T08:54:45Z</time>
      </trkpt>
      <trkpt lat="43.21733" lon="5.62148">
        <ele>123.8</ele>
        <time>2021-04-14T08:54:53Z</time>
      </trkpt>
      <trkpt lat="43.21737" lon="5.62151">
        <ele>124.6</ele>
        <time>2021-04-14T08:55:01Z</time>
      </trkpt>
      <trkpt lat="43.21743" lon="5.62149">
        <ele>125.6</ele>
        <time>2021-04-14T08:55:07Z</time>
      </trkpt>
      <trkpt lat="43.21748" lon="5.62146">
        <ele>126.3</ele>
        <time>2021-04-14T08:55:13Z</time>
      </trkpt>
      <trkpt lat="43.21753" lon="5.62145">
        <ele>127.3</ele>
        <time>2021-04-14T08:55:21Z</time>
      </trkpt>
      <trkpt lat="43.21757" lon="5.62143">
        <ele>128.3</ele>
        <time>2021-04-14T08:55:29Z</time>
      </trkpt>
      <trkpt lat="43.21761" lon="5.62139">
        <ele>129</ele>
        <time>2021-04-14T08:55:35Z</time>
      </trkpt>
      <trkpt lat="43.21764" lon="5.62133">
        <ele>129.5</ele>
        <time>2021-04-14T08:55:43Z</time>
      </trkpt>
      <trkpt lat="43.21767" lon="5.62127">
        <ele>130.1</ele>
        <time>2021-04-14T08:55:49Z</time>
      </trkpt>
      <trkpt lat="43.21768" lon="5.6212">
        <ele>130.3</ele>
        <time>2021-04-14T08:55:55Z</time>
      </trkpt>
      <trkpt lat="43.2177" lon="5.62114">
        <ele>130.7</ele>
        <time>2021-04-14T08:56:01Z</time>
      </trkpt>
      <trkpt lat="43.21774" lon="5.62112">
        <ele>131.7</ele>
        <time>2021-04-14T08:56:09Z</time>
      </trkpt>
      <trkpt lat="43.21779" lon="5.62109">
        <ele>132.8</ele>
        <time>2021-04-14T08:56:19Z</time>
      </trkpt>
      <trkpt lat="43.21785" lon="5.62109">
        <ele>134</ele>
        <time>2021-04-14T08:56:27Z</time>
      </trkpt>
      <trkpt lat="43.21789" lon="5.62109">
        <ele>135</ele>
        <time>2021-04-14T08:56:35Z</time>
      </trkpt>
      <trkpt lat="43.21794" lon="5.62108">
        <ele>136</ele>
        <time>2021-04-14T08:56:43Z</time>
      </trkpt>
      <trkpt lat="43.21798" lon="5.62104">
        <ele>136.9</ele>
        <time>2021-04-14T08:56:51Z</time>
      </trkpt>
      <trkpt lat="43.21802" lon="5.62099">
        <ele>137.9</ele>
        <time>2021-04-14T08:56:59Z</time>
      </trkpt>
      <trkpt lat="43.21805" lon="5.62093">
        <ele>138.6</ele>
        <time>2021-04-14T08:57:07Z</time>
      </trkpt>
      <trkpt lat="43.21807" lon="5.62086">
        <ele>139.1</ele>
        <time>2021-04-14T08:57:13Z</time>
      </trkpt>
      <trkpt lat="43.21809" lon="5.62079">
        <ele>139.1</ele>
        <time>2021-04-14T08:57:19Z</time>
      </trkpt>
      <trkpt lat="43.21813" lon="5.62073">
        <ele>139.4</ele>
        <time>2021-04-14T08:57:27Z</time>
      </trkpt>
      <trkpt lat="43.21817" lon="5.62069">
        <ele>139.9</ele>
        <time>2021-04-14T08:57:33Z</time>
      </trkpt>
      <trkpt lat="43.21822" lon="5.62067">
        <ele>140.9</ele>
        <time>2021-04-14T08:57:41Z</time>
      </trkpt>
      <trkpt lat="43.21827" lon="5.6207">
        <ele>142.2</ele>
        <time>2021-04-14T08:57:49Z</time>
      </trkpt>
      <trkpt lat="43.21832" lon="5.6207">
        <ele>143.2</ele>
        <time>2021-04-14T08:57:59Z</time>
      </trkpt>
      <trkpt lat="43.21836" lon="5.62065">
        <ele>143.4</ele>
        <time>2021-04-14T08:58:11Z</time>
      </trkpt>
      <trkpt lat="43.21841" lon="5.62063">
        <ele>143.8</ele>
        <time>2021-04-14T08:58:19Z</time>
      </trkpt>
      <trkpt lat="43.21847" lon="5.62064">
        <ele>144.6</ele>
        <time>2021-04-14T08:58:29Z</time>
      </trkpt>
      <trkpt lat="43.21851" lon="5.62061">
        <ele>144.9</ele>
        <time>2021-04-14T09:01:11Z</time>
      </trkpt>
      <trkpt lat="43.21856" lon="5.62062">
        <ele>145.6</ele>
        <time>2021-04-14T09:01:19Z</time>
      </trkpt>
      <trkpt lat="43.2186" lon="5.62066">
        <ele>146.6</ele>
        <time>2021-04-14T09:01:27Z</time>
      </trkpt>
      <trkpt lat="43.21864" lon="5.62069">
        <ele>147.6</ele>
        <time>2021-04-14T09:01:33Z</time>
      </trkpt>
      <trkpt lat="43.2187" lon="5.6207">
        <ele>148.4</ele>
        <time>2021-04-14T09:01:41Z</time>
      </trkpt>
      <trkpt lat="43.21874" lon="5.62075">
        <ele>149.6</ele>
        <time>2021-04-14T09:01:47Z</time>
      </trkpt>
      <trkpt lat="43.21878" lon="5.62079">
        <ele>150.9</ele>
        <time>2021-04-14T09:01:53Z</time>
      </trkpt>
      <trkpt lat="43.21884" lon="5.62081">
        <ele>151.9</ele>
        <time>2021-04-14T09:01:59Z</time>
      </trkpt>
      <trkpt lat="43.21889" lon="5.62079">
        <ele>152.4</ele>
        <time>2021-04-14T09:02:05Z</time>
      </trkpt>
      <trkpt lat="43.21894" lon="5.62081">
        <ele>153.3</ele>
        <time>2021-04-14T09:02:13Z</time>
      </trkpt>
      <trkpt lat="43.21899" lon="5.62081">
        <ele>154</ele>
        <time>2021-04-14T09:02:19Z</time>
      </trkpt>
      <trkpt lat="43.21904" lon="5.62081">
        <ele>154.7</ele>
        <time>2021-04-14T09:02:25Z</time>
      </trkpt>
      <trkpt lat="43.21909" lon="5.6208">
        <ele>155.4</ele>
        <time>2021-04-14T09:02:31Z</time>
      </trkpt>
      <trkpt lat="43.21914" lon="5.62078">
        <ele>155.8</ele>
        <time>2021-04-14T09:02:37Z</time>
      </trkpt>
      <trkpt lat="43.21919" lon="5.62076">
        <ele>156</ele>
        <time>2021-04-14T09:02:43Z</time>
      </trkpt>
      <trkpt lat="43.21925" lon="5.62077">
        <ele>156.4</ele>
        <time>2021-04-14T09:02:49Z</time>
      </trkpt>
      <trkpt lat="43.21932" lon="5.62076">
        <ele>156.8</ele>
        <time>2021-04-14T09:02:55Z</time>
      </trkpt>
      <trkpt lat="43.21938" lon="5.62077">
        <ele>157.3</ele>
        <time>2021-04-14T09:03:01Z</time>
      </trkpt>
      <trkpt lat="43.21943" lon="5.62079">
        <ele>157.9</ele>
        <time>2021-04-14T09:03:07Z</time>
      </trkpt>
      <trkpt lat="43.21948" lon="5.62081">
        <ele>158.6</ele>
        <time>2021-04-14T09:03:15Z</time>
      </trkpt>
      <trkpt lat="43.21954" lon="5.62083">
        <ele>159.2</ele>
        <time>2021-04-14T09:03:21Z</time>
      </trkpt>
      <trkpt lat="43.2196" lon="5.62086">
        <ele>159.7</ele>
        <time>2021-04-14T09:03:27Z</time>
      </trkpt>
      <trkpt lat="43.21965" lon="5.62088">
        <ele>160.1</ele>
        <time>2021-04-14T09:03:33Z</time>
      </trkpt>
      <trkpt lat="43.21971" lon="5.62089">
        <ele>160.6</ele>
        <time>2021-04-14T09:03:39Z</time>
      </trkpt>
      <trkpt lat="43.21977" lon="5.6209">
        <ele>161</ele>
        <time>2021-04-14T09:03:45Z</time>
      </trkpt>
      <trkpt lat="43.21983" lon="5.62091">
        <ele>161.5</ele>
        <time>2021-04-14T09:03:51Z</time>
      </trkpt>
      <trkpt lat="43.21988" lon="5.62093">
        <ele>161.9</ele>
        <time>2021-04-14T09:03:57Z</time>
      </trkpt>
      <trkpt lat="43.21994" lon="5.62096">
        <ele>162.5</ele>
        <time>2021-04-14T09:04:03Z</time>
      </trkpt>
      <trkpt lat="43.22" lon="5.62098">
        <ele>163</ele>
        <time>2021-04-14T09:04:09Z</time>
      </trkpt>
      <trkpt lat="43.22006" lon="5.62098">
        <ele>163.7</ele>
        <time>2021-04-14T09:04:15Z</time>
      </trkpt>
      <trkpt lat="43.22013" lon="5.62098">
        <ele>164.3</ele>
        <time>2021-04-14T09:04:21Z</time>
      </trkpt>
      <trkpt lat="43.22018" lon="5.62099">
        <ele>164.9</ele>
        <time>2021-04-14T09:04:27Z</time>
      </trkpt>
      <trkpt lat="43.22025" lon="5.62097">
        <ele>165.4</ele>
        <time>2021-04-14T09:04:33Z</time>
      </trkpt>
      <trkpt lat="43.22031" lon="5.62097">
        <ele>166</ele>
        <time>2021-04-14T09:04:39Z</time>
      </trkpt>
      <trkpt lat="43.22038" lon="5.62097">
        <ele>166.6</ele>
        <time>2021-04-14T09:04:45Z</time>
      </trkpt>
      <trkpt lat="43.22043" lon="5.62097">
        <ele>167.1</ele>
        <time>2021-04-14T09:04:51Z</time>
      </trkpt>
      <trkpt lat="43.22049" lon="5.62098">
        <ele>167.7</ele>
        <time>2021-04-14T09:04:59Z</time>
      </trkpt>
      <trkpt lat="43.22054" lon="5.62096">
        <ele>168.1</ele>
        <time>2021-04-14T09:05:03Z</time>
      </trkpt>
      <trkpt lat="43.22058" lon="5.62094">
        <ele>168.3</ele>
        <time>2021-04-14T09:05:07Z</time>
      </trkpt>
      <trkpt lat="43.22064" lon="5.62092">
        <ele>168.7</ele>
        <time>2021-04-14T09:05:11Z</time>
      </trkpt>
      <trkpt lat="43.22068" lon="5.62091">
        <ele>169.1</ele>
        <time>2021-04-14T09:05:15Z</time>
      </trkpt>
      <trkpt lat="43.22073" lon="5.62092">
        <ele>169.7</ele>
        <time>2021-04-14T09:05:21Z</time>
      </trkpt>
      <trkpt lat="43.22079" lon="5.62092">
        <ele>170.3</ele>
        <time>2021-04-14T09:05:27Z</time>
      </trkpt>
      <trkpt lat="43.22084" lon="5.6209">
        <ele>170.6</ele>
        <time>2021-04-14T09:05:35Z</time>
      </trkpt>
      <trkpt lat="43.22088" lon="5.62086">
        <ele>170.9</ele>
        <time>2021-04-14T09:05:41Z</time>
      </trkpt>
      <trkpt lat="43.22088" lon="5.62079">
        <ele>170.9</ele>
        <time>2021-04-14T09:05:47Z</time>
      </trkpt>
      <trkpt lat="43.22089" lon="5.62071">
        <ele>171</ele>
        <time>2021-04-14T09:05:53Z</time>
      </trkpt>
      <trkpt lat="43.22091" lon="5.62065">
        <ele>171.4</ele>
        <time>2021-04-14T09:05:59Z</time>
      </trkpt>
      <trkpt lat="43.22095" lon="5.62059">
        <ele>172</ele>
        <time>2021-04-14T09:06:05Z</time>
      </trkpt>
      <trkpt lat="43.22099" lon="5.62053">
        <ele>172.7</ele>
        <time>2021-04-14T09:06:11Z</time>
      </trkpt>
      <trkpt lat="43.22102" lon="5.62047">
        <ele>173.1</ele>
        <time>2021-04-14T09:06:19Z</time>
      </trkpt>
      <trkpt lat="43.22105" lon="5.62043">
        <ele>173.7</ele>
        <time>2021-04-14T09:06:25Z</time>
      </trkpt>
      <trkpt lat="43.2211" lon="5.62041">
        <ele>174.5</ele>
        <time>2021-04-14T09:06:33Z</time>
      </trkpt>
      <trkpt lat="43.22114" lon="5.62039">
        <ele>175.2</ele>
        <time>2021-04-14T09:06:39Z</time>
      </trkpt>
      <trkpt lat="43.2212" lon="5.62036">
        <ele>176</ele>
        <time>2021-04-14T09:06:45Z</time>
      </trkpt>
      <trkpt lat="43.22125" lon="5.62033">
        <ele>177</ele>
        <time>2021-04-14T09:06:53Z</time>
      </trkpt>
      <trkpt lat="43.2213" lon="5.62029">
        <ele>177.6</ele>
        <time>2021-04-14T09:06:59Z</time>
      </trkpt>
      <trkpt lat="43.22134" lon="5.62024">
        <ele>178.2</ele>
        <time>2021-04-14T09:07:07Z</time>
      </trkpt>
      <trkpt lat="43.22137" lon="5.62019">
        <ele>178.7</ele>
        <time>2021-04-14T09:07:13Z</time>
      </trkpt>
      <trkpt lat="43.22141" lon="5.62013">
        <ele>179.2</ele>
        <time>2021-04-14T09:07:19Z</time>
      </trkpt>
      <trkpt lat="43.22145" lon="5.62007">
        <ele>179.8</ele>
        <time>2021-04-14T09:07:27Z</time>
      </trkpt>
      <trkpt lat="43.22149" lon="5.62">
        <ele>180.2</ele>
        <time>2021-04-14T09:07:33Z</time>
      </trkpt>
      <trkpt lat="43.22152" lon="5.61993">
        <ele>181.2</ele>
        <time>2021-04-14T09:07:39Z</time>
      </trkpt>
      <trkpt lat="43.22154" lon="5.61987">
        <ele>182</ele>
        <time>2021-04-14T09:07:45Z</time>
      </trkpt>
      <trkpt lat="43.22156" lon="5.6198">
        <ele>182.8</ele>
        <time>2021-04-14T09:07:51Z</time>
      </trkpt>
      <trkpt lat="43.22159" lon="5.61976">
        <ele>183.6</ele>
        <time>2021-04-14T09:07:57Z</time>
      </trkpt>
      <trkpt lat="43.22163" lon="5.61972">
        <ele>184.5</ele>
        <time>2021-04-14T09:08:05Z</time>
      </trkpt>
      <trkpt lat="43.22165" lon="5.61966">
        <ele>185.2</ele>
        <time>2021-04-14T09:08:13Z</time>
      </trkpt>
      <trkpt lat="43.22168" lon="5.6196">
        <ele>186</ele>
        <time>2021-04-14T09:08:21Z</time>
      </trkpt>
      <trkpt lat="43.22168" lon="5.61953">
        <ele>186.4</ele>
        <time>2021-04-14T09:08:29Z</time>
      </trkpt>
      <trkpt lat="43.22171" lon="5.61948">
        <ele>186.9</ele>
        <time>2021-04-14T09:08:37Z</time>
      </trkpt>
      <trkpt lat="43.22173" lon="5.61942">
        <ele>187.5</ele>
        <time>2021-04-14T09:08:45Z</time>
      </trkpt>
      <trkpt lat="43.22176" lon="5.61936">
        <ele>188</ele>
        <time>2021-04-14T09:08:53Z</time>
      </trkpt>
      <trkpt lat="43.22177" lon="5.61928">
        <ele>188.5</ele>
        <time>2021-04-14T09:08:59Z</time>
      </trkpt>
      <trkpt lat="43.22179" lon="5.61922">
        <ele>188.9</ele>
        <time>2021-04-14T09:09:09Z</time>
      </trkpt>
      <trkpt lat="43.2218" lon="5.61916">
        <ele>189.4</ele>
        <time>2021-04-14T09:09:15Z</time>
      </trkpt>
      <trkpt lat="43.2218" lon="5.6191">
        <ele>190.1</ele>
        <time>2021-04-14T09:09:21Z</time>
      </trkpt>
      <trkpt lat="43.22181" lon="5.61903">
        <ele>190.9</ele>
        <time>2021-04-14T09:09:27Z</time>
      </trkpt>
      <trkpt lat="43.22178" lon="5.61895">
        <ele>191.7</ele>
        <time>2021-04-14T09:09:33Z</time>
      </trkpt>
      <trkpt lat="43.22176" lon="5.6189">
        <ele>192.3</ele>
        <time>2021-04-14T09:09:39Z</time>
      </trkpt>
      <trkpt lat="43.22175" lon="5.61884">
        <ele>193</ele>
        <time>2021-04-14T09:09:45Z</time>
      </trkpt>
      <trkpt lat="43.22175" lon="5.61876">
        <ele>193.9</ele>
        <time>2021-04-14T09:09:55Z</time>
      </trkpt>
      <trkpt lat="43.22171" lon="5.61873">
        <ele>194.2</ele>
        <time>2021-04-14T09:11:35Z</time>
      </trkpt>
      <trkpt lat="43.22171" lon="5.61866">
        <ele>195.1</ele>
        <time>2021-04-14T09:11:43Z</time>
      </trkpt>
      <trkpt lat="43.22166" lon="5.61864">
        <ele>195.2</ele>
        <time>2021-04-14T09:11:49Z</time>
      </trkpt>
      <trkpt lat="43.22162" lon="5.61864">
        <ele>194.8</ele>
        <time>2021-04-14T09:11:53Z</time>
      </trkpt>
      <trkpt lat="43.22156" lon="5.61863">
        <ele>194.2</ele>
        <time>2021-04-14T09:11:59Z</time>
      </trkpt>
      <trkpt lat="43.2215" lon="5.61862">
        <ele>193.7</ele>
        <time>2021-04-14T09:12:05Z</time>
      </trkpt>
      <trkpt lat="43.22145" lon="5.6186">
        <ele>193.4</ele>
        <time>2021-04-14T09:12:11Z</time>
      </trkpt>
      <trkpt lat="43.22139" lon="5.61859">
        <ele>192.8</ele>
        <time>2021-04-14T09:12:17Z</time>
      </trkpt>
      <trkpt lat="43.22134" lon="5.61859">
        <ele>192.2</ele>
        <time>2021-04-14T09:12:23Z</time>
      </trkpt>
      <trkpt lat="43.22128" lon="5.6186">
        <ele>191.4</ele>
        <time>2021-04-14T09:12:29Z</time>
      </trkpt>
      <trkpt lat="43.22122" lon="5.6186">
        <ele>190.9</ele>
        <time>2021-04-14T09:12:35Z</time>
      </trkpt>
      <trkpt lat="43.22117" lon="5.6186">
        <ele>190.2</ele>
        <time>2021-04-14T09:12:41Z</time>
      </trkpt>
      <trkpt lat="43.22112" lon="5.61859">
        <ele>189.8</ele>
        <time>2021-04-14T09:12:45Z</time>
      </trkpt>
      <trkpt lat="43.22106" lon="5.61858">
        <ele>189.2</ele>
        <time>2021-04-14T09:12:51Z</time>
      </trkpt>
      <trkpt lat="43.22101" lon="5.61857">
        <ele>188.8</ele>
        <time>2021-04-14T09:12:57Z</time>
      </trkpt>
      <trkpt lat="43.22095" lon="5.61855">
        <ele>188.4</ele>
        <time>2021-04-14T09:13:03Z</time>
      </trkpt>
      <trkpt lat="43.22091" lon="5.61852">
        <ele>188.4</ele>
        <time>2021-04-14T09:13:09Z</time>
      </trkpt>
      <trkpt lat="43.22088" lon="5.61846">
        <ele>188.8</ele>
        <time>2021-04-14T09:13:15Z</time>
      </trkpt>
      <trkpt lat="43.22085" lon="5.6184">
        <ele>189.3</ele>
        <time>2021-04-14T09:13:21Z</time>
      </trkpt>
      <trkpt lat="43.22083" lon="5.61834">
        <ele>189.8</ele>
        <time>2021-04-14T09:13:27Z</time>
      </trkpt>
      <trkpt lat="43.2208" lon="5.61827">
        <ele>189.5</ele>
        <time>2021-04-14T09:13:33Z</time>
      </trkpt>
      <trkpt lat="43.22076" lon="5.61821">
        <ele>188.9</ele>
        <time>2021-04-14T09:13:39Z</time>
      </trkpt>
      <trkpt lat="43.22073" lon="5.61815">
        <ele>188.5</ele>
        <time>2021-04-14T09:13:45Z</time>
      </trkpt>
      <trkpt lat="43.2207" lon="5.61808">
        <ele>188.2</ele>
        <time>2021-04-14T09:13:51Z</time>
      </trkpt>
      <trkpt lat="43.22067" lon="5.61802">
        <ele>187.9</ele>
        <time>2021-04-14T09:13:57Z</time>
      </trkpt>
      <trkpt lat="43.22064" lon="5.61796">
        <ele>187.7</ele>
        <time>2021-04-14T09:14:03Z</time>
      </trkpt>
      <trkpt lat="43.22062" lon="5.61789">
        <ele>187.6</ele>
        <time>2021-04-14T09:14:09Z</time>
      </trkpt>
      <trkpt lat="43.22062" lon="5.61781">
        <ele>188</ele>
        <time>2021-04-14T09:14:15Z</time>
      </trkpt>
      <trkpt lat="43.22065" lon="5.61774">
        <ele>188.8</ele>
        <time>2021-04-14T09:14:23Z</time>
      </trkpt>
      <trkpt lat="43.2207" lon="5.6177">
        <ele>190</ele>
        <time>2021-04-14T09:14:31Z</time>
      </trkpt>
      <trkpt lat="43.22075" lon="5.61768">
        <ele>190.9</ele>
        <time>2021-04-14T09:14:37Z</time>
      </trkpt>
      <trkpt lat="43.2208" lon="5.61769">
        <ele>191.8</ele>
        <time>2021-04-14T09:14:43Z</time>
      </trkpt>
      <trkpt lat="43.22085" lon="5.6177">
        <ele>192.5</ele>
        <time>2021-04-14T09:14:49Z</time>
      </trkpt>
      <trkpt lat="43.2209" lon="5.61771">
        <ele>193.2</ele>
        <time>2021-04-14T09:14:55Z</time>
      </trkpt>
      <trkpt lat="43.22096" lon="5.61773">
        <ele>193.9</ele>
        <time>2021-04-14T09:15:03Z</time>
      </trkpt>
      <trkpt lat="43.22101" lon="5.61775">
        <ele>194.4</ele>
        <time>2021-04-14T09:15:09Z</time>
      </trkpt>
      <trkpt lat="43.22107" lon="5.61776">
        <ele>195.2</ele>
        <time>2021-04-14T09:15:17Z</time>
      </trkpt>
      <trkpt lat="43.22112" lon="5.61777">
        <ele>195.8</ele>
        <time>2021-04-14T09:15:23Z</time>
      </trkpt>
      <trkpt lat="43.22116" lon="5.61779">
        <ele>196.2</ele>
        <time>2021-04-14T09:15:29Z</time>
      </trkpt>
      <trkpt lat="43.22121" lon="5.61781">
        <ele>196.8</ele>
        <time>2021-04-14T09:15:35Z</time>
      </trkpt>
      <trkpt lat="43.22127" lon="5.6178">
        <ele>197.6</ele>
        <time>2021-04-14T09:15:43Z</time>
      </trkpt>
      <trkpt lat="43.22132" lon="5.61778">
        <ele>198.4</ele>
        <time>2021-04-14T09:15:51Z</time>
      </trkpt>
      <trkpt lat="43.22133" lon="5.61772">
        <ele>198.9</ele>
        <time>2021-04-14T09:16:47Z</time>
      </trkpt>
      <trkpt lat="43.22137" lon="5.61769">
        <ele>199.7</ele>
        <time>2021-04-14T09:17:11Z</time>
      </trkpt>
      <trkpt lat="43.22143" lon="5.61769">
        <ele>200.4</ele>
        <time>2021-04-14T09:17:19Z</time>
      </trkpt>
      <trkpt lat="43.22148" lon="5.61772">
        <ele>200.8</ele>
        <time>2021-04-14T09:17:27Z</time>
      </trkpt>
      <trkpt lat="43.22148" lon="5.61778">
        <ele>200.5</ele>
        <time>2021-04-14T09:17:33Z</time>
      </trkpt>
      <trkpt lat="43.22149" lon="5.61772">
        <ele>201</ele>
        <time>2021-04-14T09:19:23Z</time>
      </trkpt>
      <trkpt lat="43.22151" lon="5.61766">
        <ele>201.7</ele>
        <time>2021-04-14T09:19:29Z</time>
      </trkpt>
      <trkpt lat="43.22154" lon="5.61759">
        <ele>202.6</ele>
        <time>2021-04-14T09:19:35Z</time>
      </trkpt>
      <trkpt lat="43.22159" lon="5.61756">
        <ele>203.5</ele>
        <time>2021-04-14T09:19:41Z</time>
      </trkpt>
      <trkpt lat="43.22164" lon="5.61753">
        <ele>204.3</ele>
        <time>2021-04-14T09:19:47Z</time>
      </trkpt>
      <trkpt lat="43.22169" lon="5.6175">
        <ele>205</ele>
        <time>2021-04-14T09:19:55Z</time>
      </trkpt>
      <trkpt lat="43.22173" lon="5.61746">
        <ele>204.9</ele>
        <time>2021-04-14T09:20:01Z</time>
      </trkpt>
      <trkpt lat="43.22177" lon="5.61744">
        <ele>204.8</ele>
        <time>2021-04-14T09:20:07Z</time>
      </trkpt>
      <trkpt lat="43.22182" lon="5.61742">
        <ele>204.8</ele>
        <time>2021-04-14T09:20:13Z</time>
      </trkpt>
      <trkpt lat="43.22187" lon="5.61739">
        <ele>204.9</ele>
        <time>2021-04-14T09:20:19Z</time>
      </trkpt>
      <trkpt lat="43.22193" lon="5.61736">
        <ele>205</ele>
        <time>2021-04-14T09:20:25Z</time>
      </trkpt>
      <trkpt lat="43.22197" lon="5.61732">
        <ele>205.2</ele>
        <time>2021-04-14T09:20:31Z</time>
      </trkpt>
      <trkpt lat="43.22202" lon="5.61727">
        <ele>205.4</ele>
        <time>2021-04-14T09:20:37Z</time>
      </trkpt>
      <trkpt lat="43.22206" lon="5.61723">
        <ele>205.7</ele>
        <time>2021-04-14T09:20:41Z</time>
      </trkpt>
      <trkpt lat="43.22211" lon="5.61718">
        <ele>206.2</ele>
        <time>2021-04-14T09:20:47Z</time>
      </trkpt>
      <trkpt lat="43.22215" lon="5.61713">
        <ele>206.6</ele>
        <time>2021-04-14T09:20:53Z</time>
      </trkpt>
      <trkpt lat="43.2222" lon="5.61709">
        <ele>207.1</ele>
        <time>2021-04-14T09:20:59Z</time>
      </trkpt>
      <trkpt lat="43.22225" lon="5.61703">
        <ele>207.9</ele>
        <time>2021-04-14T09:21:05Z</time>
      </trkpt>
      <trkpt lat="43.22229" lon="5.617">
        <ele>208.4</ele>
        <time>2021-04-14T09:21:09Z</time>
      </trkpt>
      <trkpt lat="43.22232" lon="5.61693">
        <ele>209.4</ele>
        <time>2021-04-14T09:21:15Z</time>
      </trkpt>
      <trkpt lat="43.22236" lon="5.61686">
        <ele>210.3</ele>
        <time>2021-04-14T09:21:21Z</time>
      </trkpt>
      <trkpt lat="43.22238" lon="5.61677">
        <ele>211.4</ele>
        <time>2021-04-14T09:21:27Z</time>
      </trkpt>
      <trkpt lat="43.22239" lon="5.61669">
        <ele>212.3</ele>
        <time>2021-04-14T09:21:33Z</time>
      </trkpt>
      <trkpt lat="43.2224" lon="5.6166">
        <ele>213.1</ele>
        <time>2021-04-14T09:21:39Z</time>
      </trkpt>
      <trkpt lat="43.22242" lon="5.61652">
        <ele>213.7</ele>
        <time>2021-04-14T09:21:45Z</time>
      </trkpt>
      <trkpt lat="43.22243" lon="5.61645">
        <ele>214.3</ele>
        <time>2021-04-14T09:21:51Z</time>
      </trkpt>
      <trkpt lat="43.22245" lon="5.61637">
        <ele>214.9</ele>
        <time>2021-04-14T09:21:57Z</time>
      </trkpt>
      <trkpt lat="43.22245" lon="5.61629">
        <ele>215.4</ele>
        <time>2021-04-14T09:22:03Z</time>
      </trkpt>
      <trkpt lat="43.22245" lon="5.61621">
        <ele>215.9</ele>
        <time>2021-04-14T09:22:09Z</time>
      </trkpt>
      <trkpt lat="43.22244" lon="5.61614">
        <ele>216.1</ele>
        <time>2021-04-14T09:22:15Z</time>
      </trkpt>
      <trkpt lat="43.22245" lon="5.61607">
        <ele>216.8</ele>
        <time>2021-04-14T09:22:21Z</time>
      </trkpt>
      <trkpt lat="43.22246" lon="5.61599">
        <ele>217.3</ele>
        <time>2021-04-14T09:22:29Z</time>
      </trkpt>
      <trkpt lat="43.22245" lon="5.6159">
        <ele>217.6</ele>
        <time>2021-04-14T09:22:37Z</time>
      </trkpt>
      <trkpt lat="43.22249" lon="5.61586">
        <ele>218.7</ele>
        <time>2021-04-14T09:22:47Z</time>
      </trkpt>
      <trkpt lat="43.22252" lon="5.61579">
        <ele>218.4</ele>
        <time>2021-04-14T09:22:55Z</time>
      </trkpt>
      <trkpt lat="43.22255" lon="5.61575">
        <ele>218.1</ele>
        <time>2021-04-14T09:23:03Z</time>
      </trkpt>
      <trkpt lat="43.2226" lon="5.6157">
        <ele>217.9</ele>
        <time>2021-04-14T09:23:11Z</time>
      </trkpt>
      <trkpt lat="43.22266" lon="5.61568">
        <ele>218.2</ele>
        <time>2021-04-14T09:23:19Z</time>
      </trkpt>
      <trkpt lat="43.22272" lon="5.61567">
        <ele>218.5</ele>
        <time>2021-04-14T09:23:25Z</time>
      </trkpt>
      <trkpt lat="43.22277" lon="5.61565">
        <ele>219</ele>
        <time>2021-04-14T09:23:31Z</time>
      </trkpt>
      <trkpt lat="43.22282" lon="5.61563">
        <ele>219.3</ele>
        <time>2021-04-14T09:23:37Z</time>
      </trkpt>
      <trkpt lat="43.22288" lon="5.61561">
        <ele>219.8</ele>
        <time>2021-04-14T09:23:43Z</time>
      </trkpt>
      <trkpt lat="43.22293" lon="5.6156">
        <ele>220.2</ele>
        <time>2021-04-14T09:23:49Z</time>
      </trkpt>
      <trkpt lat="43.22298" lon="5.61558">
        <ele>220.7</ele>
        <time>2021-04-14T09:23:57Z</time>
      </trkpt>
      <trkpt lat="43.22303" lon="5.61557">
        <ele>221.3</ele>
        <time>2021-04-14T09:24:03Z</time>
      </trkpt>
      <trkpt lat="43.22308" lon="5.61556">
        <ele>221.9</ele>
        <time>2021-04-14T09:24:11Z</time>
      </trkpt>
      <trkpt lat="43.22313" lon="5.61555">
        <ele>222.5</ele>
        <time>2021-04-14T09:24:17Z</time>
      </trkpt>
      <trkpt lat="43.22319" lon="5.61553">
        <ele>223.2</ele>
        <time>2021-04-14T09:24:23Z</time>
      </trkpt>
      <trkpt lat="43.22324" lon="5.6155">
        <ele>223.9</ele>
        <time>2021-04-14T09:24:29Z</time>
      </trkpt>
      <trkpt lat="43.22328" lon="5.61547">
        <ele>224.6</ele>
        <time>2021-04-14T09:24:35Z</time>
      </trkpt>
      <trkpt lat="43.22333" lon="5.61543">
        <ele>225.4</ele>
        <time>2021-04-14T09:26:11Z</time>
      </trkpt>
      <trkpt lat="43.22338" lon="5.61542">
        <ele>226.2</ele>
        <time>2021-04-14T09:26:19Z</time>
      </trkpt>
      <trkpt lat="43.22344" lon="5.61541">
        <ele>227.1</ele>
        <time>2021-04-14T09:26:25Z</time>
      </trkpt>
      <trkpt lat="43.22349" lon="5.6154">
        <ele>227.8</ele>
        <time>2021-04-14T09:26:31Z</time>
      </trkpt>
      <trkpt lat="43.22354" lon="5.61539">
        <ele>228.7</ele>
        <time>2021-04-14T09:26:37Z</time>
      </trkpt>
      <trkpt lat="43.22359" lon="5.61538">
        <ele>229.6</ele>
        <time>2021-04-14T09:26:45Z</time>
      </trkpt>
      <trkpt lat="43.22364" lon="5.61536">
        <ele>230.5</ele>
        <time>2021-04-14T09:26:51Z</time>
      </trkpt>
      <trkpt lat="43.22369" lon="5.61535">
        <ele>231.5</ele>
        <time>2021-04-14T09:26:57Z</time>
      </trkpt>
      <trkpt lat="43.22374" lon="5.61534">
        <ele>232.3</ele>
        <time>2021-04-14T09:27:05Z</time>
      </trkpt>
      <trkpt lat="43.22379" lon="5.61533">
        <ele>233.4</ele>
        <time>2021-04-14T09:27:13Z</time>
      </trkpt>
      <trkpt lat="43.22384" lon="5.61532">
        <ele>234.4</ele>
        <time>2021-04-14T09:27:19Z</time>
      </trkpt>
      <trkpt lat="43.22389" lon="5.6153">
        <ele>235.4</ele>
        <time>2021-04-14T09:27:25Z</time>
      </trkpt>
      <trkpt lat="43.22393" lon="5.61528">
        <ele>236.4</ele>
        <time>2021-04-14T09:27:31Z</time>
      </trkpt>
      <trkpt lat="43.22399" lon="5.61527">
        <ele>237.7</ele>
        <time>2021-04-14T09:27:39Z</time>
      </trkpt>
      <trkpt lat="43.22404" lon="5.61526">
        <ele>238.8</ele>
        <time>2021-04-14T09:27:45Z</time>
      </trkpt>
      <trkpt lat="43.2241" lon="5.61524">
        <ele>240.3</ele>
        <time>2021-04-14T09:27:53Z</time>
      </trkpt>
      <trkpt lat="43.22414" lon="5.61522">
        <ele>241.6</ele>
        <time>2021-04-14T09:27:59Z</time>
      </trkpt>
      <trkpt lat="43.22419" lon="5.61521">
        <ele>242.2</ele>
        <time>2021-04-14T09:28:07Z</time>
      </trkpt>
      <trkpt lat="43.22425" lon="5.61519">
        <ele>242.5</ele>
        <time>2021-04-14T09:28:15Z</time>
      </trkpt>
      <trkpt lat="43.2243" lon="5.61516">
        <ele>243.1</ele>
        <time>2021-04-14T09:28:23Z</time>
      </trkpt>
      <trkpt lat="43.22435" lon="5.61515">
        <ele>243.1</ele>
        <time>2021-04-14T09:28:31Z</time>
      </trkpt>
      <trkpt lat="43.2244" lon="5.61513">
        <ele>243.6</ele>
        <time>2021-04-14T09:28:41Z</time>
      </trkpt>
      <trkpt lat="43.22443" lon="5.61509">
        <ele>244.5</ele>
        <time>2021-04-14T09:28:47Z</time>
      </trkpt>
      <trkpt lat="43.22447" lon="5.61504">
        <ele>245.6</ele>
        <time>2021-04-14T09:28:55Z</time>
      </trkpt>
      <trkpt lat="43.22451" lon="5.61501">
        <ele>246.3</ele>
        <time>2021-04-14T09:29:05Z</time>
      </trkpt>
      <trkpt lat="43.22455" lon="5.61498">
        <ele>247</ele>
        <time>2021-04-14T09:29:13Z</time>
      </trkpt>
      <trkpt lat="43.22458" lon="5.61491">
        <ele>248.5</ele>
        <time>2021-04-14T09:29:19Z</time>
      </trkpt>
      <trkpt lat="43.22462" lon="5.61485">
        <ele>249.7</ele>
        <time>2021-04-14T09:29:27Z</time>
      </trkpt>
      <trkpt lat="43.22464" lon="5.61479">
        <ele>251</ele>
        <time>2021-04-14T09:29:33Z</time>
      </trkpt>
      <trkpt lat="43.22468" lon="5.61475">
        <ele>252.1</ele>
        <time>2021-04-14T09:29:39Z</time>
      </trkpt>
      <trkpt lat="43.22472" lon="5.6147">
        <ele>253.6</ele>
        <time>2021-04-14T09:29:45Z</time>
      </trkpt>
      <trkpt lat="43.22475" lon="5.61464">
        <ele>255.3</ele>
        <time>2021-04-14T09:29:53Z</time>
      </trkpt>
      <trkpt lat="43.22479" lon="5.6146">
        <ele>256.5</ele>
        <time>2021-04-14T09:30:01Z</time>
      </trkpt>
      <trkpt lat="43.22482" lon="5.61455">
        <ele>258</ele>
        <time>2021-04-14T09:30:09Z</time>
      </trkpt>
      <trkpt lat="43.22486" lon="5.61451">
        <ele>259.4</ele>
        <time>2021-04-14T09:30:15Z</time>
      </trkpt>
      <trkpt lat="43.22491" lon="5.61448">
        <ele>260.7</ele>
        <time>2021-04-14T09:30:21Z</time>
      </trkpt>
      <trkpt lat="43.22496" lon="5.61445">
        <ele>262.1</ele>
        <time>2021-04-14T09:30:27Z</time>
      </trkpt>
      <trkpt lat="43.225" lon="5.61442">
        <ele>263.4</ele>
        <time>2021-04-14T09:30:33Z</time>
      </trkpt>
      <trkpt lat="43.22506" lon="5.61437">
        <ele>264.3</ele>
        <time>2021-04-14T09:30:43Z</time>
      </trkpt>
      <trkpt lat="43.22511" lon="5.61432">
        <ele>265.3</ele>
        <time>2021-04-14T09:30:49Z</time>
      </trkpt>
      <trkpt lat="43.22515" lon="5.61428">
        <ele>266</ele>
        <time>2021-04-14T09:30:55Z</time>
      </trkpt>
      <trkpt lat="43.22519" lon="5.61426">
        <ele>266.4</ele>
        <time>2021-04-14T09:30:59Z</time>
      </trkpt>
      <trkpt lat="43.22524" lon="5.61421">
        <ele>267.2</ele>
        <time>2021-04-14T09:31:05Z</time>
      </trkpt>
      <trkpt lat="43.22529" lon="5.6142">
        <ele>267.1</ele>
        <time>2021-04-14T09:31:13Z</time>
      </trkpt>
      <trkpt lat="43.22535" lon="5.61419">
        <ele>267</ele>
        <time>2021-04-14T09:31:21Z</time>
      </trkpt>
      <trkpt lat="43.2254" lon="5.61417">
        <ele>267</ele>
        <time>2021-04-14T09:31:31Z</time>
      </trkpt>
      <trkpt lat="43.22544" lon="5.61414">
        <ele>267.2</ele>
        <time>2021-04-14T09:31:37Z</time>
      </trkpt>
      <trkpt lat="43.22549" lon="5.61411">
        <ele>267.5</ele>
        <time>2021-04-14T09:31:43Z</time>
      </trkpt>
      <trkpt lat="43.22554" lon="5.61408">
        <ele>267.5</ele>
        <time>2021-04-14T09:31:51Z</time>
      </trkpt>
      <trkpt lat="43.22558" lon="5.61404">
        <ele>267.9</ele>
        <time>2021-04-14T09:31:57Z</time>
      </trkpt>
      <trkpt lat="43.22563" lon="5.61402">
        <ele>268</ele>
        <time>2021-04-14T09:32:05Z</time>
      </trkpt>
      <trkpt lat="43.22567" lon="5.61397">
        <ele>268.8</ele>
        <time>2021-04-14T09:32:11Z</time>
      </trkpt>
      <trkpt lat="43.22571" lon="5.61393">
        <ele>269.3</ele>
        <time>2021-04-14T09:32:17Z</time>
      </trkpt>
      <trkpt lat="43.22575" lon="5.61391">
        <ele>269.4</ele>
        <time>2021-04-14T09:32:23Z</time>
      </trkpt>
      <trkpt lat="43.2258" lon="5.61388">
        <ele>269.7</ele>
        <time>2021-04-14T09:32:31Z</time>
      </trkpt>
      <trkpt lat="43.22585" lon="5.61387">
        <ele>269.7</ele>
        <time>2021-04-14T09:32:37Z</time>
      </trkpt>
      <trkpt lat="43.22589" lon="5.61385">
        <ele>270</ele>
        <time>2021-04-14T09:32:43Z</time>
      </trkpt>
      <trkpt lat="43.22594" lon="5.61383">
        <ele>270.4</ele>
        <time>2021-04-14T09:32:49Z</time>
      </trkpt>
      <trkpt lat="43.22599" lon="5.6138">
        <ele>271.1</ele>
        <time>2021-04-14T09:32:55Z</time>
      </trkpt>
      <trkpt lat="43.22603" lon="5.61376">
        <ele>272</ele>
        <time>2021-04-14T09:33:03Z</time>
      </trkpt>
      <trkpt lat="43.22606" lon="5.61371">
        <ele>273.1</ele>
        <time>2021-04-14T09:33:11Z</time>
      </trkpt>
      <trkpt lat="43.22608" lon="5.61365">
        <ele>274.5</ele>
        <time>2021-04-14T09:33:19Z</time>
      </trkpt>
      <trkpt lat="43.22611" lon="5.61358">
        <ele>276.4</ele>
        <time>2021-04-14T09:33:25Z</time>
      </trkpt>
      <trkpt lat="43.22614" lon="5.6135">
        <ele>278.2</ele>
        <time>2021-04-14T09:33:31Z</time>
      </trkpt>
      <trkpt lat="43.22615" lon="5.61343">
        <ele>280</ele>
        <time>2021-04-14T09:33:37Z</time>
      </trkpt>
      <trkpt lat="43.22617" lon="5.61336">
        <ele>281.7</ele>
        <time>2021-04-14T09:33:43Z</time>
      </trkpt>
      <trkpt lat="43.22619" lon="5.6133">
        <ele>282.4</ele>
        <time>2021-04-14T09:34:05Z</time>
      </trkpt>
      <trkpt lat="43.22624" lon="5.61328">
        <ele>282.5</ele>
        <time>2021-04-14T09:34:15Z</time>
      </trkpt>
      <trkpt lat="43.22629" lon="5.61324">
        <ele>282.5</ele>
        <time>2021-04-14T09:34:23Z</time>
      </trkpt>
      <trkpt lat="43.22632" lon="5.61316">
        <ele>282.5</ele>
        <time>2021-04-14T09:34:31Z</time>
      </trkpt>
      <trkpt lat="43.22633" lon="5.61309">
        <ele>282.5</ele>
        <time>2021-04-14T09:34:55Z</time>
      </trkpt>
      <trkpt lat="43.22629" lon="5.61305">
        <ele>282.5</ele>
        <time>2021-04-14T09:38:55Z</time>
      </trkpt>
      <trkpt lat="43.22629" lon="5.61298">
        <ele>282.5</ele>
        <time>2021-04-14T09:39:01Z</time>
      </trkpt>
      <trkpt lat="43.22628" lon="5.61291">
        <ele>282.5</ele>
        <time>2021-04-14T09:39:07Z</time>
      </trkpt>
      <trkpt lat="43.22626" lon="5.61284">
        <ele>282.5</ele>
        <time>2021-04-14T09:39:13Z</time>
      </trkpt>
      <trkpt lat="43.22623" lon="5.61277">
        <ele>282.5</ele>
        <time>2021-04-14T09:39:19Z</time>
      </trkpt>
      <trkpt lat="43.2262" lon="5.6127">
        <ele>282.5</ele>
        <time>2021-04-14T09:39:25Z</time>
      </trkpt>
      <trkpt lat="43.22618" lon="5.61262">
        <ele>282.6</ele>
        <time>2021-04-14T09:39:31Z</time>
      </trkpt>
      <trkpt lat="43.22617" lon="5.61254">
        <ele>282.6</ele>
        <time>2021-04-14T09:39:37Z</time>
      </trkpt>
      <trkpt lat="43.2262" lon="5.61248">
        <ele>282.4</ele>
        <time>2021-04-14T09:39:43Z</time>
      </trkpt>
      <trkpt lat="43.22621" lon="5.61241">
        <ele>282</ele>
        <time>2021-04-14T09:39:49Z</time>
      </trkpt>
      <trkpt lat="43.22624" lon="5.61233">
        <ele>281.4</ele>
        <time>2021-04-14T09:39:57Z</time>
      </trkpt>
      <trkpt lat="43.22627" lon="5.61227">
        <ele>280.9</ele>
        <time>2021-04-14T09:40:01Z</time>
      </trkpt>
      <trkpt lat="43.22629" lon="5.61219">
        <ele>280.3</ele>
        <time>2021-04-14T09:40:07Z</time>
      </trkpt>
      <trkpt lat="43.2263" lon="5.61212">
        <ele>279.7</ele>
        <time>2021-04-14T09:40:15Z</time>
      </trkpt>
      <trkpt lat="43.2263" lon="5.61203">
        <ele>279.1</ele>
        <time>2021-04-14T09:40:23Z</time>
      </trkpt>
      <trkpt lat="43.22633" lon="5.61197">
        <ele>278.5</ele>
        <time>2021-04-14T09:40:29Z</time>
      </trkpt>
      <trkpt lat="43.22633" lon="5.6119">
        <ele>277.9</ele>
        <time>2021-04-14T09:40:35Z</time>
      </trkpt>
      <trkpt lat="43.22634" lon="5.61182">
        <ele>277.3</ele>
        <time>2021-04-14T09:40:41Z</time>
      </trkpt>
      <trkpt lat="43.22637" lon="5.61175">
        <ele>276.4</ele>
        <time>2021-04-14T09:40:47Z</time>
      </trkpt>
      <trkpt lat="43.2264" lon="5.6117">
        <ele>275.8</ele>
        <time>2021-04-14T09:40:53Z</time>
      </trkpt>
      <trkpt lat="43.22645" lon="5.61167">
        <ele>275.1</ele>
        <time>2021-04-14T09:40:59Z</time>
      </trkpt>
      <trkpt lat="43.22649" lon="5.61163">
        <ele>274.6</ele>
        <time>2021-04-14T09:41:05Z</time>
      </trkpt>
      <trkpt lat="43.22654" lon="5.61157">
        <ele>274</ele>
        <time>2021-04-14T09:41:13Z</time>
      </trkpt>
      <trkpt lat="43.22657" lon="5.61152">
        <ele>273.5</ele>
        <time>2021-04-14T09:41:21Z</time>
      </trkpt>
      <trkpt lat="43.22661" lon="5.61149">
        <ele>273</ele>
        <time>2021-04-14T09:41:29Z</time>
      </trkpt>
      <trkpt lat="43.22665" lon="5.61144">
        <ele>272.3</ele>
        <time>2021-04-14T09:41:35Z</time>
      </trkpt>
      <trkpt lat="43.22669" lon="5.61138">
        <ele>272</ele>
        <time>2021-04-14T09:41:43Z</time>
      </trkpt>
      <trkpt lat="43.22674" lon="5.61133">
        <ele>271.9</ele>
        <time>2021-04-14T09:41:49Z</time>
      </trkpt>
      <trkpt lat="43.22678" lon="5.61128">
        <ele>271.8</ele>
        <time>2021-04-14T09:41:55Z</time>
      </trkpt>
      <trkpt lat="43.22683" lon="5.61125">
        <ele>271.8</ele>
        <time>2021-04-14T09:42:01Z</time>
      </trkpt>
      <trkpt lat="43.22688" lon="5.61124">
        <ele>271.9</ele>
        <time>2021-04-14T09:42:09Z</time>
      </trkpt>
      <trkpt lat="43.22693" lon="5.61126">
        <ele>272</ele>
        <time>2021-04-14T09:42:15Z</time>
      </trkpt>
      <trkpt lat="43.22697" lon="5.61129">
        <ele>272.2</ele>
        <time>2021-04-14T09:42:21Z</time>
      </trkpt>
      <trkpt lat="43.22702" lon="5.61132">
        <ele>272.4</ele>
        <time>2021-04-14T09:42:29Z</time>
      </trkpt>
      <trkpt lat="43.22707" lon="5.61134">
        <ele>272.5</ele>
        <time>2021-04-14T09:42:33Z</time>
      </trkpt>
      <trkpt lat="43.22713" lon="5.61136">
        <ele>272.7</ele>
        <time>2021-04-14T09:42:39Z</time>
      </trkpt>
      <trkpt lat="43.22719" lon="5.61139">
        <ele>272.8</ele>
        <time>2021-04-14T09:42:45Z</time>
      </trkpt>
      <trkpt lat="43.22724" lon="5.61136">
        <ele>272.8</ele>
        <time>2021-04-14T09:42:53Z</time>
      </trkpt>
      <trkpt lat="43.22724" lon="5.61129">
        <ele>272.6</ele>
        <time>2021-04-14T09:42:59Z</time>
      </trkpt>
      <trkpt lat="43.2272" lon="5.61124">
        <ele>272.4</ele>
        <time>2021-04-14T09:43:03Z</time>
      </trkpt>
      <trkpt lat="43.22717" lon="5.61119">
        <ele>272.2</ele>
        <time>2021-04-14T09:43:07Z</time>
      </trkpt>
      <trkpt lat="43.22714" lon="5.61114">
        <ele>272</ele>
        <time>2021-04-14T09:43:11Z</time>
      </trkpt>
      <trkpt lat="43.22711" lon="5.61108">
        <ele>271.8</ele>
        <time>2021-04-14T09:43:15Z</time>
      </trkpt>
      <trkpt lat="43.22708" lon="5.61103">
        <ele>271.6</ele>
        <time>2021-04-14T09:43:19Z</time>
      </trkpt>
      <trkpt lat="43.22707" lon="5.61097">
        <ele>271.4</ele>
        <time>2021-04-14T09:43:25Z</time>
      </trkpt>
      <trkpt lat="43.22707" lon="5.61089">
        <ele>271.1</ele>
        <time>2021-04-14T09:43:31Z</time>
      </trkpt>
      <trkpt lat="43.22706" lon="5.61081">
        <ele>270.8</ele>
        <time>2021-04-14T09:43:37Z</time>
      </trkpt>
      <trkpt lat="43.22707" lon="5.61072">
        <ele>270.5</ele>
        <time>2021-04-14T09:43:43Z</time>
      </trkpt>
      <trkpt lat="43.22708" lon="5.61065">
        <ele>270.2</ele>
        <time>2021-04-14T09:43:49Z</time>
      </trkpt>
      <trkpt lat="43.22709" lon="5.61056">
        <ele>269.9</ele>
        <time>2021-04-14T09:43:55Z</time>
      </trkpt>
      <trkpt lat="43.22711" lon="5.61049">
        <ele>269.6</ele>
        <time>2021-04-14T09:44:03Z</time>
      </trkpt>
      <trkpt lat="43.22713" lon="5.61042">
        <ele>269.4</ele>
        <time>2021-04-14T09:44:07Z</time>
      </trkpt>
      <trkpt lat="43.22713" lon="5.61036">
        <ele>269.1</ele>
        <time>2021-04-14T09:44:11Z</time>
      </trkpt>
      <trkpt lat="43.22714" lon="5.61029">
        <ele>268.8</ele>
        <time>2021-04-14T09:44:15Z</time>
      </trkpt>
      <trkpt lat="43.22714" lon="5.61021">
        <ele>268.5</ele>
        <time>2021-04-14T09:44:19Z</time>
      </trkpt>
      <trkpt lat="43.22714" lon="5.61012">
        <ele>268.1</ele>
        <time>2021-04-14T09:44:25Z</time>
      </trkpt>
      <trkpt lat="43.22715" lon="5.61006">
        <ele>267.8</ele>
        <time>2021-04-14T09:44:29Z</time>
      </trkpt>
      <trkpt lat="43.22715" lon="5.61">
        <ele>267.6</ele>
        <time>2021-04-14T09:44:33Z</time>
      </trkpt>
      <trkpt lat="43.22715" lon="5.60993">
        <ele>267</ele>
        <time>2021-04-14T09:44:37Z</time>
      </trkpt>
      <trkpt lat="43.22714" lon="5.60987">
        <ele>266.5</ele>
        <time>2021-04-14T09:44:41Z</time>
      </trkpt>
      <trkpt lat="43.22712" lon="5.60981">
        <ele>266</ele>
        <time>2021-04-14T09:44:45Z</time>
      </trkpt>
      <trkpt lat="43.22711" lon="5.60974">
        <ele>265.5</ele>
        <time>2021-04-14T09:44:49Z</time>
      </trkpt>
      <trkpt lat="43.2271" lon="5.60967">
        <ele>264.9</ele>
        <time>2021-04-14T09:44:53Z</time>
      </trkpt>
      <trkpt lat="43.22709" lon="5.60961">
        <ele>264.5</ele>
        <time>2021-04-14T09:44:57Z</time>
      </trkpt>
      <trkpt lat="43.2271" lon="5.60954">
        <ele>263.9</ele>
        <time>2021-04-14T09:45:01Z</time>
      </trkpt>
      <trkpt lat="43.22711" lon="5.60944">
        <ele>263.2</ele>
        <time>2021-04-14T09:45:07Z</time>
      </trkpt>
      <trkpt lat="43.22711" lon="5.60936">
        <ele>262.5</ele>
        <time>2021-04-14T09:45:13Z</time>
      </trkpt>
      <trkpt lat="43.22712" lon="5.60928">
        <ele>261.9</ele>
        <time>2021-04-14T09:45:19Z</time>
      </trkpt>
      <trkpt lat="43.22712" lon="5.60921">
        <ele>261.3</ele>
        <time>2021-04-14T09:45:23Z</time>
      </trkpt>
      <trkpt lat="43.22712" lon="5.60912">
        <ele>261</ele>
        <time>2021-04-14T09:45:29Z</time>
      </trkpt>
      <trkpt lat="43.22711" lon="5.60905">
        <ele>260.9</ele>
        <time>2021-04-14T09:45:37Z</time>
      </trkpt>
      <trkpt lat="43.22711" lon="5.60899">
        <ele>260.9</ele>
        <time>2021-04-14T09:47:15Z</time>
      </trkpt>
      <trkpt lat="43.22717" lon="5.60896">
        <ele>261.1</ele>
        <time>2021-04-14T09:47:23Z</time>
      </trkpt>
      <trkpt lat="43.22722" lon="5.60895">
        <ele>261.2</ele>
        <time>2021-04-14T09:47:29Z</time>
      </trkpt>
      <trkpt lat="43.22727" lon="5.60897">
        <ele>261.4</ele>
        <time>2021-04-14T09:47:37Z</time>
      </trkpt>
      <trkpt lat="43.22733" lon="5.60896">
        <ele>261.6</ele>
        <time>2021-04-14T09:47:43Z</time>
      </trkpt>
      <trkpt lat="43.22738" lon="5.60895">
        <ele>261.9</ele>
        <time>2021-04-14T09:47:47Z</time>
      </trkpt>
      <trkpt lat="43.22744" lon="5.60894">
        <ele>262.1</ele>
        <time>2021-04-14T09:47:53Z</time>
      </trkpt>
      <trkpt lat="43.22748" lon="5.60893">
        <ele>262.3</ele>
        <time>2021-04-14T09:47:57Z</time>
      </trkpt>
      <trkpt lat="43.22754" lon="5.60892">
        <ele>262.8</ele>
        <time>2021-04-14T09:48:01Z</time>
      </trkpt>
      <trkpt lat="43.22759" lon="5.60891">
        <ele>263.4</ele>
        <time>2021-04-14T09:48:07Z</time>
      </trkpt>
      <trkpt lat="43.22765" lon="5.60891">
        <ele>264</ele>
        <time>2021-04-14T09:48:13Z</time>
      </trkpt>
      <trkpt lat="43.2277" lon="5.60892">
        <ele>264.4</ele>
        <time>2021-04-14T09:48:19Z</time>
      </trkpt>
      <trkpt lat="43.22776" lon="5.60893">
        <ele>264.9</ele>
        <time>2021-04-14T09:48:25Z</time>
      </trkpt>
      <trkpt lat="43.22782" lon="5.60894">
        <ele>265.3</ele>
        <time>2021-04-14T09:48:31Z</time>
      </trkpt>
      <trkpt lat="43.22787" lon="5.60895">
        <ele>265.7</ele>
        <time>2021-04-14T09:48:37Z</time>
      </trkpt>
      <trkpt lat="43.22793" lon="5.60897">
        <ele>266.2</ele>
        <time>2021-04-14T09:48:43Z</time>
      </trkpt>
      <trkpt lat="43.22799" lon="5.60898">
        <ele>266.6</ele>
        <time>2021-04-14T09:48:47Z</time>
      </trkpt>
      <trkpt lat="43.22803" lon="5.60899">
        <ele>266.9</ele>
        <time>2021-04-14T09:48:51Z</time>
      </trkpt>
      <trkpt lat="43.22809" lon="5.60901">
        <ele>267.3</ele>
        <time>2021-04-14T09:48:59Z</time>
      </trkpt>
      <trkpt lat="43.22816" lon="5.60902">
        <ele>267.8</ele>
        <time>2021-04-14T09:49:05Z</time>
      </trkpt>
      <trkpt lat="43.22821" lon="5.609">
        <ele>268.4</ele>
        <time>2021-04-14T09:49:09Z</time>
      </trkpt>
      <trkpt lat="43.22826" lon="5.609">
        <ele>269</ele>
        <time>2021-04-14T09:49:15Z</time>
      </trkpt>
      <trkpt lat="43.22831" lon="5.60898">
        <ele>269.6</ele>
        <time>2021-04-14T09:49:21Z</time>
      </trkpt>
      <trkpt lat="43.22834" lon="5.60894">
        <ele>270.3</ele>
        <time>2021-04-14T09:49:27Z</time>
      </trkpt>
      <trkpt lat="43.22839" lon="5.60891">
        <ele>271.1</ele>
        <time>2021-04-14T09:49:39Z</time>
      </trkpt>
      <trkpt lat="43.22843" lon="5.60885">
        <ele>271.9</ele>
        <time>2021-04-14T09:49:45Z</time>
      </trkpt>
      <trkpt lat="43.22849" lon="5.6088">
        <ele>272.8</ele>
        <time>2021-04-14T09:49:51Z</time>
      </trkpt>
      <trkpt lat="43.22854" lon="5.60877">
        <ele>273.4</ele>
        <time>2021-04-14T09:49:55Z</time>
      </trkpt>
      <trkpt lat="43.22859" lon="5.60874">
        <ele>273.9</ele>
        <time>2021-04-14T09:49:59Z</time>
      </trkpt>
      <trkpt lat="43.22865" lon="5.60871">
        <ele>274.4</ele>
        <time>2021-04-14T09:50:03Z</time>
      </trkpt>
      <trkpt lat="43.2287" lon="5.60868">
        <ele>274.9</ele>
        <time>2021-04-14T09:50:07Z</time>
      </trkpt>
      <trkpt lat="43.22876" lon="5.60866">
        <ele>275.3</ele>
        <time>2021-04-14T09:50:13Z</time>
      </trkpt>
      <trkpt lat="43.22881" lon="5.60867">
        <ele>275.5</ele>
        <time>2021-04-14T09:50:21Z</time>
      </trkpt>
      <trkpt lat="43.22887" lon="5.60862">
        <ele>275.9</ele>
        <time>2021-04-14T09:52:23Z</time>
      </trkpt>
      <trkpt lat="43.22893" lon="5.60858">
        <ele>276.2</ele>
        <time>2021-04-14T09:52:29Z</time>
      </trkpt>
      <trkpt lat="43.22897" lon="5.60854">
        <ele>276.3</ele>
        <time>2021-04-14T09:52:35Z</time>
      </trkpt>
      <trkpt lat="43.22902" lon="5.60852">
        <ele>276.4</ele>
        <time>2021-04-14T09:52:43Z</time>
      </trkpt>
      <trkpt lat="43.22907" lon="5.60851">
        <ele>276.5</ele>
        <time>2021-04-14T09:52:55Z</time>
      </trkpt>
      <trkpt lat="43.22911" lon="5.60847">
        <ele>276.5</ele>
        <time>2021-04-14T09:52:59Z</time>
      </trkpt>
      <trkpt lat="43.22914" lon="5.60842">
        <ele>276.4</ele>
        <time>2021-04-14T09:53:03Z</time>
      </trkpt>
      <trkpt lat="43.22918" lon="5.60837">
        <ele>276.1</ele>
        <time>2021-04-14T09:53:09Z</time>
      </trkpt>
      <trkpt lat="43.22922" lon="5.60833">
        <ele>276.1</ele>
        <time>2021-04-14T09:53:15Z</time>
      </trkpt>
      <trkpt lat="43.22926" lon="5.60829">
        <ele>277.1</ele>
        <time>2021-04-14T09:53:21Z</time>
      </trkpt>
      <trkpt lat="43.22931" lon="5.60825">
        <ele>278.4</ele>
        <time>2021-04-14T09:53:29Z</time>
      </trkpt>
      <trkpt lat="43.22935" lon="5.6082">
        <ele>279.9</ele>
        <time>2021-04-14T09:53:35Z</time>
      </trkpt>
      <trkpt lat="43.22938" lon="5.60815">
        <ele>281.3</ele>
        <time>2021-04-14T09:53:41Z</time>
      </trkpt>
      <trkpt lat="43.22943" lon="5.60809">
        <ele>282.9</ele>
        <time>2021-04-14T09:53:49Z</time>
      </trkpt>
      <trkpt lat="43.22947" lon="5.60802">
        <ele>284.8</ele>
        <time>2021-04-14T09:53:55Z</time>
      </trkpt>
      <trkpt lat="43.22951" lon="5.60798">
        <ele>285.9</ele>
        <time>2021-04-14T09:54:01Z</time>
      </trkpt>
      <trkpt lat="43.22956" lon="5.60794">
        <ele>286.8</ele>
        <time>2021-04-14T09:54:07Z</time>
      </trkpt>
      <trkpt lat="43.22961" lon="5.60791">
        <ele>287.5</ele>
        <time>2021-04-14T09:54:13Z</time>
      </trkpt>
      <trkpt lat="43.22966" lon="5.60788">
        <ele>288.2</ele>
        <time>2021-04-14T09:54:25Z</time>
      </trkpt>
      <trkpt lat="43.22971" lon="5.60786">
        <ele>288.6</ele>
        <time>2021-04-14T09:54:31Z</time>
      </trkpt>
      <trkpt lat="43.22976" lon="5.60786">
        <ele>288.4</ele>
        <time>2021-04-14T09:54:37Z</time>
      </trkpt>
      <trkpt lat="43.22982" lon="5.60783">
        <ele>288.9</ele>
        <time>2021-04-14T09:54:43Z</time>
      </trkpt>
      <trkpt lat="43.22988" lon="5.60782">
        <ele>289.2</ele>
        <time>2021-04-14T09:54:49Z</time>
      </trkpt>
      <trkpt lat="43.22992" lon="5.60779">
        <ele>289.6</ele>
        <time>2021-04-14T09:54:55Z</time>
      </trkpt>
      <trkpt lat="43.22999" lon="5.60778">
        <ele>289.7</ele>
        <time>2021-04-14T09:55:03Z</time>
      </trkpt>
      <trkpt lat="43.23004" lon="5.60775">
        <ele>290.6</ele>
        <time>2021-04-14T09:55:09Z</time>
      </trkpt>
      <trkpt lat="43.2301" lon="5.60773">
        <ele>291.3</ele>
        <time>2021-04-14T09:55:17Z</time>
      </trkpt>
      <trkpt lat="43.23015" lon="5.60772">
        <ele>291.8</ele>
        <time>2021-04-14T09:55:23Z</time>
      </trkpt>
      <trkpt lat="43.23019" lon="5.60769">
        <ele>292.6</ele>
        <time>2021-04-14T09:55:29Z</time>
      </trkpt>
      <trkpt lat="43.23024" lon="5.60766">
        <ele>293.5</ele>
        <time>2021-04-14T09:55:35Z</time>
      </trkpt>
      <trkpt lat="43.23029" lon="5.60765">
        <ele>294</ele>
        <time>2021-04-14T09:55:41Z</time>
      </trkpt>
      <trkpt lat="43.23033" lon="5.60762">
        <ele>294.7</ele>
        <time>2021-04-14T09:55:47Z</time>
      </trkpt>
      <trkpt lat="43.23038" lon="5.6076">
        <ele>295.3</ele>
        <time>2021-04-14T09:55:55Z</time>
      </trkpt>
      <trkpt lat="43.23043" lon="5.60758">
        <ele>295.8</ele>
        <time>2021-04-14T09:56:01Z</time>
      </trkpt>
      <trkpt lat="43.23049" lon="5.60757">
        <ele>296.3</ele>
        <time>2021-04-14T09:56:09Z</time>
      </trkpt>
      <trkpt lat="43.23054" lon="5.60754">
        <ele>296.8</ele>
        <time>2021-04-14T09:56:17Z</time>
      </trkpt>
      <trkpt lat="43.23059" lon="5.60753">
        <ele>297.1</ele>
        <time>2021-04-14T09:56:25Z</time>
      </trkpt>
      <trkpt lat="43.23064" lon="5.60753">
        <ele>297.1</ele>
        <time>2021-04-14T09:56:33Z</time>
      </trkpt>
      <trkpt lat="43.23068" lon="5.60751">
        <ele>297.7</ele>
        <time>2021-04-14T09:56:39Z</time>
      </trkpt>
      <trkpt lat="43.23073" lon="5.60749">
        <ele>298.4</ele>
        <time>2021-04-14T09:56:47Z</time>
      </trkpt>
      <trkpt lat="43.23078" lon="5.60747">
        <ele>299.3</ele>
        <time>2021-04-14T09:56:57Z</time>
      </trkpt>
      <trkpt lat="43.23083" lon="5.60749">
        <ele>298.5</ele>
        <time>2021-04-14T09:57:09Z</time>
      </trkpt>
      <trkpt lat="43.23088" lon="5.60749">
        <ele>298.3</ele>
        <time>2021-04-14T09:57:19Z</time>
      </trkpt>
      <trkpt lat="43.23094" lon="5.6075">
        <ele>298.2</ele>
        <time>2021-04-14T09:57:27Z</time>
      </trkpt>
      <trkpt lat="43.23099" lon="5.60748">
        <ele>298.9</ele>
        <time>2021-04-14T09:57:35Z</time>
      </trkpt>
      <trkpt lat="43.23104" lon="5.60746">
        <ele>299.7</ele>
        <time>2021-04-14T09:57:43Z</time>
      </trkpt>
      <trkpt lat="43.23109" lon="5.60744">
        <ele>301</ele>
        <time>2021-04-14T09:57:51Z</time>
      </trkpt>
      <trkpt lat="43.23113" lon="5.60742">
        <ele>301.7</ele>
        <time>2021-04-14T09:57:59Z</time>
      </trkpt>
      <trkpt lat="43.23118" lon="5.6074">
        <ele>302.7</ele>
        <time>2021-04-14T09:58:09Z</time>
      </trkpt>
      <trkpt lat="43.23124" lon="5.60737">
        <ele>304</ele>
        <time>2021-04-14T09:58:17Z</time>
      </trkpt>
      <trkpt lat="43.2313" lon="5.60736">
        <ele>304.5</ele>
        <time>2021-04-14T09:58:25Z</time>
      </trkpt>
      <trkpt lat="43.23134" lon="5.60734">
        <ele>305.5</ele>
        <time>2021-04-14T09:58:31Z</time>
      </trkpt>
      <trkpt lat="43.23138" lon="5.60732">
        <ele>306.7</ele>
        <time>2021-04-14T09:58:37Z</time>
      </trkpt>
      <trkpt lat="43.23142" lon="5.60728">
        <ele>308.5</ele>
        <time>2021-04-14T09:58:45Z</time>
      </trkpt>
      <trkpt lat="43.23147" lon="5.60724">
        <ele>310.2</ele>
        <time>2021-04-14T09:58:53Z</time>
      </trkpt>
      <trkpt lat="43.23152" lon="5.60724">
        <ele>310.2</ele>
        <time>2021-04-14T09:59:01Z</time>
      </trkpt>
      <trkpt lat="43.23154" lon="5.60718">
        <ele>313.2</ele>
        <time>2021-04-14T09:59:07Z</time>
      </trkpt>
      <trkpt lat="43.23158" lon="5.60713">
        <ele>315.7</ele>
        <time>2021-04-14T09:59:13Z</time>
      </trkpt>
      <trkpt lat="43.23163" lon="5.6071">
        <ele>317.2</ele>
        <time>2021-04-14T09:59:21Z</time>
      </trkpt>
      <trkpt lat="43.23168" lon="5.60708">
        <ele>318.3</ele>
        <time>2021-04-14T09:59:29Z</time>
      </trkpt>
      <trkpt lat="43.23171" lon="5.60703">
        <ele>320.7</ele>
        <time>2021-04-14T09:59:37Z</time>
      </trkpt>
      <trkpt lat="43.23175" lon="5.60698">
        <ele>322.7</ele>
        <time>2021-04-14T09:59:45Z</time>
      </trkpt>
      <trkpt lat="43.2318" lon="5.60695">
        <ele>324.4</ele>
        <time>2021-04-14T09:59:55Z</time>
      </trkpt>
      <trkpt lat="43.23184" lon="5.6069">
        <ele>326.3</ele>
        <time>2021-04-14T10:00:03Z</time>
      </trkpt>
      <trkpt lat="43.23189" lon="5.60689">
        <ele>326.9</ele>
        <time>2021-04-14T10:00:15Z</time>
      </trkpt>
      <trkpt lat="43.23194" lon="5.60687">
        <ele>327.6</ele>
        <time>2021-04-14T10:00:25Z</time>
      </trkpt>
      <trkpt lat="43.23198" lon="5.60684">
        <ele>329.1</ele>
        <time>2021-04-14T10:00:33Z</time>
      </trkpt>
      <trkpt lat="43.23202" lon="5.60682">
        <ele>330.1</ele>
        <time>2021-04-14T10:00:39Z</time>
      </trkpt>
      <trkpt lat="43.23207" lon="5.60679">
        <ele>331.2</ele>
        <time>2021-04-14T10:00:49Z</time>
      </trkpt>
      <trkpt lat="43.23211" lon="5.60676">
        <ele>332.5</ele>
        <time>2021-04-14T10:00:59Z</time>
      </trkpt>
      <trkpt lat="43.23216" lon="5.60674">
        <ele>333.5</ele>
        <time>2021-04-14T10:01:09Z</time>
      </trkpt>
      <trkpt lat="43.2322" lon="5.60669">
        <ele>335.6</ele>
        <time>2021-04-14T10:01:17Z</time>
      </trkpt>
      <trkpt lat="43.23225" lon="5.60668">
        <ele>336.2</ele>
        <time>2021-04-14T10:01:27Z</time>
      </trkpt>
      <trkpt lat="43.2323" lon="5.60665">
        <ele>337.3</ele>
        <time>2021-04-14T10:01:35Z</time>
      </trkpt>
      <trkpt lat="43.23235" lon="5.60662">
        <ele>338.8</ele>
        <time>2021-04-14T10:01:43Z</time>
      </trkpt>
      <trkpt lat="43.23239" lon="5.60659">
        <ele>339.9</ele>
        <time>2021-04-14T10:01:53Z</time>
      </trkpt>
      <trkpt lat="43.23243" lon="5.60656">
        <ele>341.1</ele>
        <time>2021-04-14T10:02:03Z</time>
      </trkpt>
      <trkpt lat="43.23248" lon="5.60654">
        <ele>342.1</ele>
        <time>2021-04-14T10:02:11Z</time>
      </trkpt>
      <trkpt lat="43.23252" lon="5.60652">
        <ele>343.3</ele>
        <time>2021-04-14T10:02:27Z</time>
      </trkpt>
      <trkpt lat="43.23257" lon="5.60649">
        <ele>344.1</ele>
        <time>2021-04-14T10:02:35Z</time>
      </trkpt>
      <trkpt lat="43.23262" lon="5.60647">
        <ele>345</ele>
        <time>2021-04-14T10:02:43Z</time>
      </trkpt>
      <trkpt lat="43.23267" lon="5.60645">
        <ele>345.5</ele>
        <time>2021-04-14T10:02:51Z</time>
      </trkpt>
      <trkpt lat="43.23271" lon="5.60643">
        <ele>346.3</ele>
        <time>2021-04-14T10:02:59Z</time>
      </trkpt>
      <trkpt lat="43.23276" lon="5.60641">
        <ele>347.3</ele>
        <time>2021-04-14T10:03:09Z</time>
      </trkpt>
      <trkpt lat="43.23281" lon="5.60637">
        <ele>349.1</ele>
        <time>2021-04-14T10:03:19Z</time>
      </trkpt>
      <trkpt lat="43.23285" lon="5.60633">
        <ele>350.9</ele>
        <time>2021-04-14T10:03:29Z</time>
      </trkpt>
      <trkpt lat="43.23289" lon="5.60631">
        <ele>351.6</ele>
        <time>2021-04-14T10:03:37Z</time>
      </trkpt>
      <trkpt lat="43.23293" lon="5.60627">
        <ele>353.2</ele>
        <time>2021-04-14T10:03:45Z</time>
      </trkpt>
      <trkpt lat="43.23297" lon="5.60622">
        <ele>355.4</ele>
        <time>2021-04-14T10:03:53Z</time>
      </trkpt>
      <trkpt lat="43.23302" lon="5.6062">
        <ele>356.1</ele>
        <time>2021-04-14T10:04:05Z</time>
      </trkpt>
      <trkpt lat="43.23306" lon="5.60619">
        <ele>356.6</ele>
        <time>2021-04-14T10:04:13Z</time>
      </trkpt>
      <trkpt lat="43.2331" lon="5.60615">
        <ele>358.1</ele>
        <time>2021-04-14T10:04:23Z</time>
      </trkpt>
      <trkpt lat="43.23315" lon="5.60612">
        <ele>359.4</ele>
        <time>2021-04-14T10:04:33Z</time>
      </trkpt>
      <trkpt lat="43.23319" lon="5.60608">
        <ele>361.2</ele>
        <time>2021-04-14T10:04:41Z</time>
      </trkpt>
      <trkpt lat="43.23322" lon="5.60605">
        <ele>362.9</ele>
        <time>2021-04-14T10:04:49Z</time>
      </trkpt>
      <trkpt lat="43.23326" lon="5.60599">
        <ele>365.6</ele>
        <time>2021-04-14T10:04:57Z</time>
      </trkpt>
      <trkpt lat="43.2333" lon="5.60593">
        <ele>368.1</ele>
        <time>2021-04-14T10:05:05Z</time>
      </trkpt>
      <trkpt lat="43.23334" lon="5.6059">
        <ele>369.5</ele>
        <time>2021-04-14T10:05:13Z</time>
      </trkpt>
      <trkpt lat="43.23339" lon="5.60588">
        <ele>370.4</ele>
        <time>2021-04-14T10:05:23Z</time>
      </trkpt>
      <trkpt lat="43.23344" lon="5.60584">
        <ele>372.5</ele>
        <time>2021-04-14T10:05:31Z</time>
      </trkpt>
      <trkpt lat="43.23349" lon="5.60582">
        <ele>373</ele>
        <time>2021-04-14T10:05:39Z</time>
      </trkpt>
      <trkpt lat="43.23354" lon="5.60582">
        <ele>372.9</ele>
        <time>2021-04-14T10:05:47Z</time>
      </trkpt>
      <trkpt lat="43.23359" lon="5.6058">
        <ele>373.4</ele>
        <time>2021-04-14T10:05:55Z</time>
      </trkpt>
      <trkpt lat="43.23364" lon="5.60578">
        <ele>373.9</ele>
        <time>2021-04-14T10:06:05Z</time>
      </trkpt>
      <trkpt lat="43.23369" lon="5.60575">
        <ele>374.9</ele>
        <time>2021-04-14T10:06:13Z</time>
      </trkpt>
      <trkpt lat="43.23374" lon="5.60572">
        <ele>375.8</ele>
        <time>2021-04-14T10:06:21Z</time>
      </trkpt>
      <trkpt lat="43.23377" lon="5.60567">
        <ele>377.1</ele>
        <time>2021-04-14T10:06:43Z</time>
      </trkpt>
      <trkpt lat="43.23382" lon="5.60568">
        <ele>376.8</ele>
        <time>2021-04-14T10:06:49Z</time>
      </trkpt>
      <trkpt lat="43.23387" lon="5.60567">
        <ele>376.9</ele>
        <time>2021-04-14T10:06:59Z</time>
      </trkpt>
      <trkpt lat="43.23392" lon="5.60564">
        <ele>377.6</ele>
        <time>2021-04-14T10:07:07Z</time>
      </trkpt>
      <trkpt lat="43.23397" lon="5.60562">
        <ele>378.1</ele>
        <time>2021-04-14T10:07:13Z</time>
      </trkpt>
      <trkpt lat="43.23402" lon="5.60559">
        <ele>379</ele>
        <time>2021-04-14T10:07:21Z</time>
      </trkpt>
      <trkpt lat="43.23407" lon="5.60557">
        <ele>379.5</ele>
        <time>2021-04-14T10:07:29Z</time>
      </trkpt>
      <trkpt lat="43.23411" lon="5.60555">
        <ele>380.1</ele>
        <time>2021-04-14T10:07:37Z</time>
      </trkpt>
      <trkpt lat="43.23416" lon="5.60551">
        <ele>381.2</ele>
        <time>2021-04-14T10:07:47Z</time>
      </trkpt>
      <trkpt lat="43.23421" lon="5.60548">
        <ele>381.2</ele>
        <time>2021-04-14T10:07:55Z</time>
      </trkpt>
      <trkpt lat="43.23424" lon="5.60544">
        <ele>381.8</ele>
        <time>2021-04-14T10:08:01Z</time>
      </trkpt>
      <trkpt lat="43.23428" lon="5.60539">
        <ele>382.3</ele>
        <time>2021-04-14T10:08:07Z</time>
      </trkpt>
      <trkpt lat="43.23432" lon="5.60537">
        <ele>382.2</ele>
        <time>2021-04-14T10:08:17Z</time>
      </trkpt>
      <trkpt lat="43.23435" lon="5.6053">
        <ele>383.5</ele>
        <time>2021-04-14T10:08:39Z</time>
      </trkpt>
      <trkpt lat="43.23439" lon="5.60526">
        <ele>384</ele>
        <time>2021-04-14T10:08:47Z</time>
      </trkpt>
      <trkpt lat="43.23443" lon="5.60521">
        <ele>384.8</ele>
        <time>2021-04-14T10:08:53Z</time>
      </trkpt>
      <trkpt lat="43.23446" lon="5.60515">
        <ele>385.8</ele>
        <time>2021-04-14T10:09:01Z</time>
      </trkpt>
      <trkpt lat="43.2345" lon="5.60509">
        <ele>387</ele>
        <time>2021-04-14T10:09:09Z</time>
      </trkpt>
      <trkpt lat="43.23453" lon="5.60503">
        <ele>388.2</ele>
        <time>2021-04-14T10:09:17Z</time>
      </trkpt>
      <trkpt lat="43.23457" lon="5.60497">
        <ele>389</ele>
        <time>2021-04-14T10:09:27Z</time>
      </trkpt>
      <trkpt lat="43.2346" lon="5.6049">
        <ele>389.5</ele>
        <time>2021-04-14T10:09:35Z</time>
      </trkpt>
      <trkpt lat="43.23462" lon="5.60483">
        <ele>390.5</ele>
        <time>2021-04-14T10:09:43Z</time>
      </trkpt>
      <trkpt lat="43.23464" lon="5.60477">
        <ele>391.6</ele>
        <time>2021-04-14T10:09:49Z</time>
      </trkpt>
      <trkpt lat="43.23467" lon="5.6047">
        <ele>392.5</ele>
        <time>2021-04-14T10:09:57Z</time>
      </trkpt>
      <trkpt lat="43.2347" lon="5.60464">
        <ele>393.3</ele>
        <time>2021-04-14T10:10:05Z</time>
      </trkpt>
      <trkpt lat="43.23473" lon="5.60457">
        <ele>394.3</ele>
        <time>2021-04-14T10:10:13Z</time>
      </trkpt>
      <trkpt lat="43.23477" lon="5.60451">
        <ele>395.3</ele>
        <time>2021-04-14T10:10:21Z</time>
      </trkpt>
      <trkpt lat="43.23478" lon="5.60444">
        <ele>396.7</ele>
        <time>2021-04-14T10:10:27Z</time>
      </trkpt>
      <trkpt lat="43.2348" lon="5.60437">
        <ele>398.1</ele>
        <time>2021-04-14T10:10:33Z</time>
      </trkpt>
      <trkpt lat="43.23484" lon="5.60431">
        <ele>399.2</ele>
        <time>2021-04-14T10:10:41Z</time>
      </trkpt>
      <trkpt lat="43.23486" lon="5.60425">
        <ele>400.5</ele>
        <time>2021-04-14T10:10:47Z</time>
      </trkpt>
      <trkpt lat="43.23488" lon="5.6042">
        <ele>401.8</ele>
        <time>2021-04-14T10:10:53Z</time>
      </trkpt>
      <trkpt lat="43.23491" lon="5.60413">
        <ele>402.4</ele>
        <time>2021-04-14T10:10:59Z</time>
      </trkpt>
      <trkpt lat="43.23493" lon="5.60406">
        <ele>402.2</ele>
        <time>2021-04-14T10:11:05Z</time>
      </trkpt>
      <trkpt lat="43.23495" lon="5.60398">
        <ele>402.2</ele>
        <time>2021-04-14T10:11:11Z</time>
      </trkpt>
      <trkpt lat="43.23499" lon="5.60392">
        <ele>402.3</ele>
        <time>2021-04-14T10:11:19Z</time>
      </trkpt>
      <trkpt lat="43.23502" lon="5.60386">
        <ele>402.2</ele>
        <time>2021-04-14T10:11:27Z</time>
      </trkpt>
      <trkpt lat="43.23505" lon="5.6038">
        <ele>402.1</ele>
        <time>2021-04-14T10:11:35Z</time>
      </trkpt>
      <trkpt lat="43.23508" lon="5.60374">
        <ele>402.2</ele>
        <time>2021-04-14T10:11:41Z</time>
      </trkpt>
      <trkpt lat="43.2351" lon="5.60369">
        <ele>402.3</ele>
        <time>2021-04-14T10:11:55Z</time>
      </trkpt>
      <trkpt lat="43.23512" lon="5.60363">
        <ele>402.5</ele>
        <time>2021-04-14T10:12:19Z</time>
      </trkpt>
      <trkpt lat="43.23509" lon="5.60355">
        <ele>402.8</ele>
        <time>2021-04-14T10:18:09Z</time>
      </trkpt>
      <trkpt lat="43.23512" lon="5.6036">
        <ele>402.6</ele>
        <time>2021-04-14T10:18:29Z</time>
      </trkpt>
      <trkpt lat="43.23513" lon="5.60367">
        <ele>402.3</ele>
        <time>2021-04-14T10:18:39Z</time>
      </trkpt>
      <trkpt lat="43.23518" lon="5.60363">
        <ele>402.4</ele>
        <time>2021-04-14T10:28:07Z</time>
      </trkpt>
      <trkpt lat="43.23522" lon="5.60359">
        <ele>402.7</ele>
        <time>2021-04-14T10:28:13Z</time>
      </trkpt>
      <trkpt lat="43.23527" lon="5.60355">
        <ele>403</ele>
        <time>2021-04-14T10:28:19Z</time>
      </trkpt>
      <trkpt lat="43.23532" lon="5.60352">
        <ele>403.4</ele>
        <time>2021-04-14T10:28:25Z</time>
      </trkpt>
      <trkpt lat="43.23537" lon="5.60349">
        <ele>403.7</ele>
        <time>2021-04-14T10:28:31Z</time>
      </trkpt>
      <trkpt lat="43.23542" lon="5.60346">
        <ele>404.3</ele>
        <time>2021-04-14T10:28:37Z</time>
      </trkpt>
      <trkpt lat="43.23549" lon="5.60344">
        <ele>404.8</ele>
        <time>2021-04-14T10:28:43Z</time>
      </trkpt>
      <trkpt lat="43.23555" lon="5.60341">
        <ele>405.6</ele>
        <time>2021-04-14T10:28:49Z</time>
      </trkpt>
      <trkpt lat="43.23561" lon="5.60338">
        <ele>406.5</ele>
        <time>2021-04-14T10:28:55Z</time>
      </trkpt>
      <trkpt lat="43.23568" lon="5.60335">
        <ele>407.6</ele>
        <time>2021-04-14T10:29:01Z</time>
      </trkpt>
      <trkpt lat="43.23573" lon="5.60332">
        <ele>408.2</ele>
        <time>2021-04-14T10:29:05Z</time>
      </trkpt>
      <trkpt lat="43.23578" lon="5.60329">
        <ele>408.3</ele>
        <time>2021-04-14T10:29:09Z</time>
      </trkpt>
      <trkpt lat="43.23582" lon="5.60328">
        <ele>408.5</ele>
        <time>2021-04-14T10:29:13Z</time>
      </trkpt>
      <trkpt lat="43.23586" lon="5.60325">
        <ele>408.5</ele>
        <time>2021-04-14T10:29:17Z</time>
      </trkpt>
      <trkpt lat="43.23591" lon="5.60324">
        <ele>408.4</ele>
        <time>2021-04-14T10:29:21Z</time>
      </trkpt>
      <trkpt lat="43.23596" lon="5.60321">
        <ele>408.3</ele>
        <time>2021-04-14T10:29:25Z</time>
      </trkpt>
      <trkpt lat="43.236" lon="5.60319">
        <ele>408.2</ele>
        <time>2021-04-14T10:29:29Z</time>
      </trkpt>
      <trkpt lat="43.23606" lon="5.60317">
        <ele>408.2</ele>
        <time>2021-04-14T10:29:35Z</time>
      </trkpt>
      <trkpt lat="43.23612" lon="5.60314">
        <ele>408.1</ele>
        <time>2021-04-14T10:29:41Z</time>
      </trkpt>
      <trkpt lat="43.23616" lon="5.6031">
        <ele>408.1</ele>
        <time>2021-04-14T10:29:45Z</time>
      </trkpt>
      <trkpt lat="43.23621" lon="5.60308">
        <ele>408.1</ele>
        <time>2021-04-14T10:29:49Z</time>
      </trkpt>
      <trkpt lat="43.23625" lon="5.60307">
        <ele>408.2</ele>
        <time>2021-04-14T10:29:53Z</time>
      </trkpt>
      <trkpt lat="43.23632" lon="5.60306">
        <ele>408.3</ele>
        <time>2021-04-14T10:29:59Z</time>
      </trkpt>
      <trkpt lat="43.23636" lon="5.60304">
        <ele>408.4</ele>
        <time>2021-04-14T10:30:03Z</time>
      </trkpt>
      <trkpt lat="43.2364" lon="5.60302">
        <ele>408.5</ele>
        <time>2021-04-14T10:30:07Z</time>
      </trkpt>
      <trkpt lat="43.23645" lon="5.60299">
        <ele>408.6</ele>
        <time>2021-04-14T10:30:11Z</time>
      </trkpt>
      <trkpt lat="43.23649" lon="5.60297">
        <ele>408.8</ele>
        <time>2021-04-14T10:30:15Z</time>
      </trkpt>
      <trkpt lat="43.23656" lon="5.60294">
        <ele>409.1</ele>
        <time>2021-04-14T10:30:21Z</time>
      </trkpt>
      <trkpt lat="43.2366" lon="5.60291">
        <ele>409.3</ele>
        <time>2021-04-14T10:30:25Z</time>
      </trkpt>
      <trkpt lat="43.23665" lon="5.60289">
        <ele>409.5</ele>
        <time>2021-04-14T10:30:31Z</time>
      </trkpt>
      <trkpt lat="43.2367" lon="5.60288">
        <ele>409.7</ele>
        <time>2021-04-14T10:30:37Z</time>
      </trkpt>
      <trkpt lat="43.23674" lon="5.6029">
        <ele>409.6</ele>
        <time>2021-04-14T10:30:41Z</time>
      </trkpt>
      <trkpt lat="43.2368" lon="5.60295">
        <ele>409.4</ele>
        <time>2021-04-14T10:30:47Z</time>
      </trkpt>
      <trkpt lat="43.23684" lon="5.60299">
        <ele>409.1</ele>
        <time>2021-04-14T10:30:51Z</time>
      </trkpt>
      <trkpt lat="43.23688" lon="5.60303">
        <ele>408.8</ele>
        <time>2021-04-14T10:30:55Z</time>
      </trkpt>
      <trkpt lat="43.23691" lon="5.60308">
        <ele>408.4</ele>
        <time>2021-04-14T10:30:59Z</time>
      </trkpt>
      <trkpt lat="43.23696" lon="5.60314">
        <ele>407.8</ele>
        <time>2021-04-14T10:31:05Z</time>
      </trkpt>
      <trkpt lat="43.23698" lon="5.6032">
        <ele>407.3</ele>
        <time>2021-04-14T10:31:09Z</time>
      </trkpt>
      <trkpt lat="43.23701" lon="5.60328">
        <ele>406.5</ele>
        <time>2021-04-14T10:31:15Z</time>
      </trkpt>
      <trkpt lat="43.23703" lon="5.60334">
        <ele>405.8</ele>
        <time>2021-04-14T10:31:19Z</time>
      </trkpt>
      <trkpt lat="43.23704" lon="5.6034">
        <ele>405.2</ele>
        <time>2021-04-14T10:31:23Z</time>
      </trkpt>
      <trkpt lat="43.23706" lon="5.60346">
        <ele>404.6</ele>
        <time>2021-04-14T10:31:27Z</time>
      </trkpt>
      <trkpt lat="43.23707" lon="5.60354">
        <ele>403.9</ele>
        <time>2021-04-14T10:31:33Z</time>
      </trkpt>
      <trkpt lat="43.23709" lon="5.60362">
        <ele>403.3</ele>
        <time>2021-04-14T10:31:39Z</time>
      </trkpt>
      <trkpt lat="43.23711" lon="5.6037">
        <ele>402.6</ele>
        <time>2021-04-14T10:31:45Z</time>
      </trkpt>
      <trkpt lat="43.23712" lon="5.60377">
        <ele>402.1</ele>
        <time>2021-04-14T10:31:49Z</time>
      </trkpt>
      <trkpt lat="43.23713" lon="5.60383">
        <ele>401.7</ele>
        <time>2021-04-14T10:31:53Z</time>
      </trkpt>
      <trkpt lat="43.23714" lon="5.6039">
        <ele>401.2</ele>
        <time>2021-04-14T10:31:57Z</time>
      </trkpt>
      <trkpt lat="43.23715" lon="5.604">
        <ele>400.6</ele>
        <time>2021-04-14T10:32:03Z</time>
      </trkpt>
      <trkpt lat="43.23716" lon="5.60406">
        <ele>400.2</ele>
        <time>2021-04-14T10:32:07Z</time>
      </trkpt>
      <trkpt lat="43.23716" lon="5.60412">
        <ele>399.9</ele>
        <time>2021-04-14T10:32:11Z</time>
      </trkpt>
      <trkpt lat="43.23717" lon="5.60419">
        <ele>399.8</ele>
        <time>2021-04-14T10:32:15Z</time>
      </trkpt>
      <trkpt lat="43.23718" lon="5.60425">
        <ele>400.2</ele>
        <time>2021-04-14T10:32:19Z</time>
      </trkpt>
      <trkpt lat="43.2372" lon="5.60434">
        <ele>400.7</ele>
        <time>2021-04-14T10:32:25Z</time>
      </trkpt>
      <trkpt lat="43.23722" lon="5.60441">
        <ele>401.3</ele>
        <time>2021-04-14T10:32:31Z</time>
      </trkpt>
      <trkpt lat="43.23724" lon="5.6045">
        <ele>402</ele>
        <time>2021-04-14T10:32:37Z</time>
      </trkpt>
      <trkpt lat="43.23726" lon="5.60458">
        <ele>402.7</ele>
        <time>2021-04-14T10:32:43Z</time>
      </trkpt>
      <trkpt lat="43.23728" lon="5.60467">
        <ele>403.5</ele>
        <time>2021-04-14T10:32:49Z</time>
      </trkpt>
      <trkpt lat="43.23731" lon="5.60475">
        <ele>404.4</ele>
        <time>2021-04-14T10:32:55Z</time>
      </trkpt>
      <trkpt lat="43.23734" lon="5.60482">
        <ele>405.3</ele>
        <time>2021-04-14T10:33:01Z</time>
      </trkpt>
      <trkpt lat="43.23738" lon="5.60489">
        <ele>406.4</ele>
        <time>2021-04-14T10:33:07Z</time>
      </trkpt>
      <trkpt lat="43.23742" lon="5.60497">
        <ele>407.5</ele>
        <time>2021-04-14T10:33:13Z</time>
      </trkpt>
      <trkpt lat="43.23744" lon="5.60505">
        <ele>408.4</ele>
        <time>2021-04-14T10:33:19Z</time>
      </trkpt>
      <trkpt lat="43.23747" lon="5.6051">
        <ele>409.1</ele>
        <time>2021-04-14T10:33:23Z</time>
      </trkpt>
      <trkpt lat="43.2375" lon="5.60519">
        <ele>410.1</ele>
        <time>2021-04-14T10:33:29Z</time>
      </trkpt>
      <trkpt lat="43.23752" lon="5.60524">
        <ele>409.9</ele>
        <time>2021-04-14T10:33:33Z</time>
      </trkpt>
      <trkpt lat="43.23756" lon="5.60532">
        <ele>409.6</ele>
        <time>2021-04-14T10:33:39Z</time>
      </trkpt>
      <trkpt lat="43.23759" lon="5.60536">
        <ele>409.2</ele>
        <time>2021-04-14T10:33:43Z</time>
      </trkpt>
      <trkpt lat="43.23764" lon="5.6054">
        <ele>408.5</ele>
        <time>2021-04-14T10:33:47Z</time>
      </trkpt>
      <trkpt lat="43.23767" lon="5.60544">
        <ele>408.2</ele>
        <time>2021-04-14T10:33:51Z</time>
      </trkpt>
      <trkpt lat="43.23771" lon="5.60549">
        <ele>407.9</ele>
        <time>2021-04-14T10:33:55Z</time>
      </trkpt>
      <trkpt lat="43.23774" lon="5.60553">
        <ele>407.6</ele>
        <time>2021-04-14T10:33:59Z</time>
      </trkpt>
      <trkpt lat="43.23779" lon="5.60556">
        <ele>407.3</ele>
        <time>2021-04-14T10:34:03Z</time>
      </trkpt>
      <trkpt lat="43.23783" lon="5.6056">
        <ele>407</ele>
        <time>2021-04-14T10:34:07Z</time>
      </trkpt>
      <trkpt lat="43.23788" lon="5.60566">
        <ele>407</ele>
        <time>2021-04-14T10:34:13Z</time>
      </trkpt>
      <trkpt lat="43.23793" lon="5.60573">
        <ele>407.2</ele>
        <time>2021-04-14T10:34:19Z</time>
      </trkpt>
      <trkpt lat="43.23796" lon="5.60577">
        <ele>407.6</ele>
        <time>2021-04-14T10:34:23Z</time>
      </trkpt>
      <trkpt lat="43.238" lon="5.60585">
        <ele>408</ele>
        <time>2021-04-14T10:34:29Z</time>
      </trkpt>
      <trkpt lat="43.23804" lon="5.60592">
        <ele>407.6</ele>
        <time>2021-04-14T10:34:35Z</time>
      </trkpt>
      <trkpt lat="43.23806" lon="5.60601">
        <ele>407.5</ele>
        <time>2021-04-14T10:34:41Z</time>
      </trkpt>
      <trkpt lat="43.23807" lon="5.60607">
        <ele>407.4</ele>
        <time>2021-04-14T10:34:45Z</time>
      </trkpt>
      <trkpt lat="43.23809" lon="5.60613">
        <ele>407.4</ele>
        <time>2021-04-14T10:34:49Z</time>
      </trkpt>
      <trkpt lat="43.23812" lon="5.60621">
        <ele>407.4</ele>
        <time>2021-04-14T10:34:55Z</time>
      </trkpt>
      <trkpt lat="43.23815" lon="5.60626">
        <ele>407.5</ele>
        <time>2021-04-14T10:34:59Z</time>
      </trkpt>
      <trkpt lat="43.23818" lon="5.60632">
        <ele>407.6</ele>
        <time>2021-04-14T10:35:03Z</time>
      </trkpt>
      <trkpt lat="43.23822" lon="5.60636">
        <ele>407.8</ele>
        <time>2021-04-14T10:35:07Z</time>
      </trkpt>
      <trkpt lat="43.23826" lon="5.6064">
        <ele>408</ele>
        <time>2021-04-14T10:35:11Z</time>
      </trkpt>
      <trkpt lat="43.2383" lon="5.60644">
        <ele>408.3</ele>
        <time>2021-04-14T10:35:15Z</time>
      </trkpt>
      <trkpt lat="43.23834" lon="5.60648">
        <ele>408.6</ele>
        <time>2021-04-14T10:35:19Z</time>
      </trkpt>
      <trkpt lat="43.23838" lon="5.60655">
        <ele>408.4</ele>
        <time>2021-04-14T10:35:25Z</time>
      </trkpt>
      <trkpt lat="43.23842" lon="5.6066">
        <ele>408.4</ele>
        <time>2021-04-14T10:35:29Z</time>
      </trkpt>
      <trkpt lat="43.23845" lon="5.60664">
        <ele>408.5</ele>
        <time>2021-04-14T10:35:33Z</time>
      </trkpt>
      <trkpt lat="43.23849" lon="5.60672">
        <ele>408</ele>
        <time>2021-04-14T10:35:39Z</time>
      </trkpt>
      <trkpt lat="43.23852" lon="5.60677">
        <ele>407.5</ele>
        <time>2021-04-14T10:35:43Z</time>
      </trkpt>
      <trkpt lat="43.23855" lon="5.60684">
        <ele>406.9</ele>
        <time>2021-04-14T10:35:49Z</time>
      </trkpt>
      <trkpt lat="43.23858" lon="5.6069">
        <ele>406.6</ele>
        <time>2021-04-14T10:35:53Z</time>
      </trkpt>
      <trkpt lat="43.2386" lon="5.60695">
        <ele>406.3</ele>
        <time>2021-04-14T10:35:57Z</time>
      </trkpt>
      <trkpt lat="43.23861" lon="5.60701">
        <ele>406.2</ele>
        <time>2021-04-14T10:36:01Z</time>
      </trkpt>
      <trkpt lat="43.23864" lon="5.60707">
        <ele>406.1</ele>
        <time>2021-04-14T10:36:05Z</time>
      </trkpt>
      <trkpt lat="43.23866" lon="5.60713">
        <ele>406.1</ele>
        <time>2021-04-14T10:36:09Z</time>
      </trkpt>
      <trkpt lat="43.23869" lon="5.60719">
        <ele>406.2</ele>
        <time>2021-04-14T10:36:13Z</time>
      </trkpt>
      <trkpt lat="43.23873" lon="5.60726">
        <ele>406.4</ele>
        <time>2021-04-14T10:36:19Z</time>
      </trkpt>
      <trkpt lat="43.23876" lon="5.60732">
        <ele>406.8</ele>
        <time>2021-04-14T10:36:23Z</time>
      </trkpt>
      <trkpt lat="43.2388" lon="5.60737">
        <ele>407.3</ele>
        <time>2021-04-14T10:36:27Z</time>
      </trkpt>
      <trkpt lat="43.23883" lon="5.60742">
        <ele>407.8</ele>
        <time>2021-04-14T10:36:31Z</time>
      </trkpt>
      <trkpt lat="43.23886" lon="5.60747">
        <ele>408.4</ele>
        <time>2021-04-14T10:36:35Z</time>
      </trkpt>
      <trkpt lat="43.2389" lon="5.60752">
        <ele>409</ele>
        <time>2021-04-14T10:36:41Z</time>
      </trkpt>
      <trkpt lat="43.23895" lon="5.60755">
        <ele>409.5</ele>
        <time>2021-04-14T10:36:51Z</time>
      </trkpt>
      <trkpt lat="43.239" lon="5.60754">
        <ele>410.3</ele>
        <time>2021-04-14T10:38:49Z</time>
      </trkpt>
      <trkpt lat="43.23905" lon="5.60757">
        <ele>410.8</ele>
        <time>2021-04-14T10:38:55Z</time>
      </trkpt>
      <trkpt lat="43.23911" lon="5.60759">
        <ele>411.5</ele>
        <time>2021-04-14T10:39:03Z</time>
      </trkpt>
      <trkpt lat="43.23916" lon="5.60758">
        <ele>412.3</ele>
        <time>2021-04-14T10:39:09Z</time>
      </trkpt>
      <trkpt lat="43.23921" lon="5.60758">
        <ele>412.4</ele>
        <time>2021-04-14T10:39:17Z</time>
      </trkpt>
      <trkpt lat="43.23927" lon="5.60761">
        <ele>412.3</ele>
        <time>2021-04-14T10:39:23Z</time>
      </trkpt>
      <trkpt lat="43.23932" lon="5.60762">
        <ele>412.3</ele>
        <time>2021-04-14T10:39:29Z</time>
      </trkpt>
      <trkpt lat="43.23938" lon="5.60763">
        <ele>412.4</ele>
        <time>2021-04-14T10:39:35Z</time>
      </trkpt>
      <trkpt lat="43.23943" lon="5.60766">
        <ele>412.5</ele>
        <time>2021-04-14T10:39:43Z</time>
      </trkpt>
      <trkpt lat="43.23949" lon="5.60768">
        <ele>412.7</ele>
        <time>2021-04-14T10:39:49Z</time>
      </trkpt>
      <trkpt lat="43.23954" lon="5.60771">
        <ele>413</ele>
        <time>2021-04-14T10:39:55Z</time>
      </trkpt>
      <trkpt lat="43.23959" lon="5.60774">
        <ele>413.3</ele>
        <time>2021-04-14T10:40:01Z</time>
      </trkpt>
      <trkpt lat="43.23965" lon="5.60776">
        <ele>413.7</ele>
        <time>2021-04-14T10:40:07Z</time>
      </trkpt>
      <trkpt lat="43.23968" lon="5.60771">
        <ele>413.5</ele>
        <time>2021-04-14T10:40:15Z</time>
      </trkpt>
      <trkpt lat="43.23972" lon="5.60765">
        <ele>413.1</ele>
        <time>2021-04-14T10:40:21Z</time>
      </trkpt>
      <trkpt lat="43.23977" lon="5.60761">
        <ele>412.8</ele>
        <time>2021-04-14T10:40:27Z</time>
      </trkpt>
      <trkpt lat="43.23982" lon="5.60759">
        <ele>412.6</ele>
        <time>2021-04-14T10:40:33Z</time>
      </trkpt>
      <trkpt lat="43.23987" lon="5.60759">
        <ele>412.6</ele>
        <time>2021-04-14T10:40:41Z</time>
      </trkpt>
      <trkpt lat="43.23992" lon="5.60758">
        <ele>412.4</ele>
        <time>2021-04-14T10:40:51Z</time>
      </trkpt>
      <trkpt lat="43.23993" lon="5.60751">
        <ele>411.3</ele>
        <time>2021-04-14T10:41:09Z</time>
      </trkpt>
      <trkpt lat="43.23994" lon="5.60757">
        <ele>412.3</ele>
        <time>2021-04-14T10:41:31Z</time>
      </trkpt>
      <trkpt lat="43.23997" lon="5.60753">
        <ele>411.6</ele>
        <time>2021-04-14T10:41:59Z</time>
      </trkpt>
      <trkpt lat="43.24002" lon="5.60755">
        <ele>411.6</ele>
        <time>2021-04-14T10:42:09Z</time>
      </trkpt>
      <trkpt lat="43.24003" lon="5.60748">
        <ele>410.1</ele>
        <time>2021-04-14T10:42:23Z</time>
      </trkpt>
      <trkpt lat="43.24002" lon="5.60741">
        <ele>407.8</ele>
        <time>2021-04-14T10:42:35Z</time>
      </trkpt>
      <trkpt lat="43.23998" lon="5.60736">
        <ele>406.3</ele>
        <time>2021-04-14T10:42:39Z</time>
      </trkpt>
      <trkpt lat="43.23991" lon="5.60739">
        <ele>407.8</ele>
        <time>2021-04-14T10:45:41Z</time>
      </trkpt>
      <trkpt lat="43.23996" lon="5.60738">
        <ele>407.2</ele>
        <time>2021-04-14T10:45:50Z</time>
      </trkpt>
      <trkpt lat="43.24" lon="5.60744">
        <ele>409</ele>
        <time>2021-04-14T10:46:01Z</time>
      </trkpt>
      <trkpt lat="43.23999" lon="5.60751">
        <ele>411.3</ele>
        <time>2021-04-14T10:46:13Z</time>
      </trkpt>
      <trkpt lat="43.24002" lon="5.60756">
        <ele>411.9</ele>
        <time>2021-04-14T10:46:21Z</time>
      </trkpt>
      <trkpt lat="43.24006" lon="5.60753">
        <ele>411</ele>
        <time>2021-04-14T10:47:39Z</time>
      </trkpt>
      <trkpt lat="43.24011" lon="5.60753">
        <ele>410.4</ele>
        <time>2021-04-14T10:48:13Z</time>
      </trkpt>
      <trkpt lat="43.24016" lon="5.60751">
        <ele>409.5</ele>
        <time>2021-04-14T10:49:57Z</time>
      </trkpt>
      <trkpt lat="43.24021" lon="5.60753">
        <ele>409.4</ele>
        <time>2021-04-14T10:50:07Z</time>
      </trkpt>
      <trkpt lat="43.24026" lon="5.60754">
        <ele>409</ele>
        <time>2021-04-14T10:50:21Z</time>
      </trkpt>
      <trkpt lat="43.2403" lon="5.60753">
        <ele>408.5</ele>
        <time>2021-04-14T10:50:37Z</time>
      </trkpt>
      <trkpt lat="43.24035" lon="5.60751">
        <ele>407.5</ele>
        <time>2021-04-14T10:50:47Z</time>
      </trkpt>
      <trkpt lat="43.24039" lon="5.6075">
        <ele>406.8</ele>
        <time>2021-04-14T10:51:07Z</time>
      </trkpt>
      <trkpt lat="43.24045" lon="5.60751">
        <ele>406.3</ele>
        <time>2021-04-14T10:51:13Z</time>
      </trkpt>
      <trkpt lat="43.2405" lon="5.60753">
        <ele>406.3</ele>
        <time>2021-04-14T10:51:19Z</time>
      </trkpt>
      <trkpt lat="43.24055" lon="5.60756">
        <ele>406.7</ele>
        <time>2021-04-14T10:51:39Z</time>
      </trkpt>
      <trkpt lat="43.24059" lon="5.6076">
        <ele>407.3</ele>
        <time>2021-04-14T10:51:49Z</time>
      </trkpt>
      <trkpt lat="43.24065" lon="5.60763">
        <ele>407.4</ele>
        <time>2021-04-14T10:51:55Z</time>
      </trkpt>
      <trkpt lat="43.2407" lon="5.60765">
        <ele>407.5</ele>
        <time>2021-04-14T10:52:01Z</time>
      </trkpt>
      <trkpt lat="43.24074" lon="5.60766">
        <ele>407.5</ele>
        <time>2021-04-14T10:52:07Z</time>
      </trkpt>
      <trkpt lat="43.24079" lon="5.60769">
        <ele>407.7</ele>
        <time>2021-04-14T10:52:13Z</time>
      </trkpt>
      <trkpt lat="43.24083" lon="5.60773">
        <ele>408.6</ele>
        <time>2021-04-14T10:52:19Z</time>
      </trkpt>
      <trkpt lat="43.24086" lon="5.60778">
        <ele>409.6</ele>
        <time>2021-04-14T10:52:25Z</time>
      </trkpt>
      <trkpt lat="43.24089" lon="5.60783">
        <ele>410.4</ele>
        <time>2021-04-14T10:52:33Z</time>
      </trkpt>
      <trkpt lat="43.24093" lon="5.60786">
        <ele>410.7</ele>
        <time>2021-04-14T10:52:39Z</time>
      </trkpt>
      <trkpt lat="43.24098" lon="5.6079">
        <ele>410.9</ele>
        <time>2021-04-14T10:52:45Z</time>
      </trkpt>
      <trkpt lat="43.24101" lon="5.60794">
        <ele>411.4</ele>
        <time>2021-04-14T10:52:51Z</time>
      </trkpt>
      <trkpt lat="43.24104" lon="5.60801">
        <ele>412.6</ele>
        <time>2021-04-14T10:52:57Z</time>
      </trkpt>
      <trkpt lat="43.24107" lon="5.60807">
        <ele>413.7</ele>
        <time>2021-04-14T10:53:03Z</time>
      </trkpt>
      <trkpt lat="43.24111" lon="5.60812">
        <ele>414.2</ele>
        <time>2021-04-14T10:53:09Z</time>
      </trkpt>
      <trkpt lat="43.24115" lon="5.60814">
        <ele>413.9</ele>
        <time>2021-04-14T10:53:15Z</time>
      </trkpt>
      <trkpt lat="43.24119" lon="5.60818">
        <ele>414</ele>
        <time>2021-04-14T10:53:21Z</time>
      </trkpt>
      <trkpt lat="43.24123" lon="5.60822">
        <ele>414.2</ele>
        <time>2021-04-14T10:53:27Z</time>
      </trkpt>
      <trkpt lat="43.24128" lon="5.60827">
        <ele>414.2</ele>
        <time>2021-04-14T10:53:33Z</time>
      </trkpt>
      <trkpt lat="43.24134" lon="5.60831">
        <ele>413.9</ele>
        <time>2021-04-14T10:53:39Z</time>
      </trkpt>
      <trkpt lat="43.24138" lon="5.60834">
        <ele>413.8</ele>
        <time>2021-04-14T10:53:45Z</time>
      </trkpt>
      <trkpt lat="43.24142" lon="5.6084">
        <ele>414.3</ele>
        <time>2021-04-14T10:53:51Z</time>
      </trkpt>
      <trkpt lat="43.24145" lon="5.60846">
        <ele>415.4</ele>
        <time>2021-04-14T10:53:57Z</time>
      </trkpt>
      <trkpt lat="43.24149" lon="5.60852">
        <ele>416.1</ele>
        <time>2021-04-14T10:54:03Z</time>
      </trkpt>
      <trkpt lat="43.24152" lon="5.60858">
        <ele>416.8</ele>
        <time>2021-04-14T10:54:09Z</time>
      </trkpt>
      <trkpt lat="43.24154" lon="5.60863">
        <ele>417.8</ele>
        <time>2021-04-14T10:54:15Z</time>
      </trkpt>
      <trkpt lat="43.24156" lon="5.6087">
        <ele>419.3</ele>
        <time>2021-04-14T10:54:23Z</time>
      </trkpt>
      <trkpt lat="43.24158" lon="5.60877">
        <ele>420.9</ele>
        <time>2021-04-14T10:54:29Z</time>
      </trkpt>
      <trkpt lat="43.24159" lon="5.60883">
        <ele>422.4</ele>
        <time>2021-04-14T10:54:35Z</time>
      </trkpt>
      <trkpt lat="43.2416" lon="5.6089">
        <ele>423.8</ele>
        <time>2021-04-14T10:54:41Z</time>
      </trkpt>
      <trkpt lat="43.24163" lon="5.60897">
        <ele>425.1</ele>
        <time>2021-04-14T10:54:47Z</time>
      </trkpt>
      <trkpt lat="43.24167" lon="5.60903">
        <ele>426.3</ele>
        <time>2021-04-14T10:54:53Z</time>
      </trkpt>
      <trkpt lat="43.2417" lon="5.60908">
        <ele>426.5</ele>
        <time>2021-04-14T10:54:59Z</time>
      </trkpt>
      <trkpt lat="43.24173" lon="5.60913">
        <ele>426.7</ele>
        <time>2021-04-14T10:55:05Z</time>
      </trkpt>
      <trkpt lat="43.24177" lon="5.60921">
        <ele>427.1</ele>
        <time>2021-04-14T10:55:11Z</time>
      </trkpt>
      <trkpt lat="43.24178" lon="5.6093">
        <ele>428.2</ele>
        <time>2021-04-14T10:55:17Z</time>
      </trkpt>
      <trkpt lat="43.2418" lon="5.60936">
        <ele>428.7</ele>
        <time>2021-04-14T10:55:23Z</time>
      </trkpt>
      <trkpt lat="43.24183" lon="5.60943">
        <ele>429</ele>
        <time>2021-04-14T10:55:29Z</time>
      </trkpt>
      <trkpt lat="43.24184" lon="5.60951">
        <ele>430</ele>
        <time>2021-04-14T10:55:35Z</time>
      </trkpt>
      <trkpt lat="43.24185" lon="5.60958">
        <ele>430.9</ele>
        <time>2021-04-14T10:55:41Z</time>
      </trkpt>
      <trkpt lat="43.24187" lon="5.60965">
        <ele>431.5</ele>
        <time>2021-04-14T10:55:47Z</time>
      </trkpt>
      <trkpt lat="43.24189" lon="5.60972">
        <ele>432.4</ele>
        <time>2021-04-14T10:55:53Z</time>
      </trkpt>
      <trkpt lat="43.24191" lon="5.60979">
        <ele>432.9</ele>
        <time>2021-04-14T10:56:01Z</time>
      </trkpt>
      <trkpt lat="43.24192" lon="5.60987">
        <ele>434.1</ele>
        <time>2021-04-14T10:56:07Z</time>
      </trkpt>
      <trkpt lat="43.24192" lon="5.60994">
        <ele>435.2</ele>
        <time>2021-04-14T10:56:11Z</time>
      </trkpt>
      <trkpt lat="43.24195" lon="5.60999">
        <ele>435.5</ele>
        <time>2021-04-14T10:56:15Z</time>
      </trkpt>
      <trkpt lat="43.24194" lon="5.61006">
        <ele>436.6</ele>
        <time>2021-04-14T10:56:19Z</time>
      </trkpt>
      <trkpt lat="43.24195" lon="5.61014">
        <ele>437.7</ele>
        <time>2021-04-14T10:56:25Z</time>
      </trkpt>
      <trkpt lat="43.24197" lon="5.6102">
        <ele>438.1</ele>
        <time>2021-04-14T10:56:31Z</time>
      </trkpt>
      <trkpt lat="43.24197" lon="5.61028">
        <ele>439.3</ele>
        <time>2021-04-14T10:56:37Z</time>
      </trkpt>
      <trkpt lat="43.24201" lon="5.61035">
        <ele>439.6</ele>
        <time>2021-04-14T10:56:45Z</time>
      </trkpt>
      <trkpt lat="43.24203" lon="5.61043">
        <ele>440.4</ele>
        <time>2021-04-14T10:56:51Z</time>
      </trkpt>
      <trkpt lat="43.24207" lon="5.61049">
        <ele>440.8</ele>
        <time>2021-04-14T10:56:57Z</time>
      </trkpt>
      <trkpt lat="43.24211" lon="5.61055">
        <ele>441.1</ele>
        <time>2021-04-14T10:57:03Z</time>
      </trkpt>
      <trkpt lat="43.24215" lon="5.6106">
        <ele>441.4</ele>
        <time>2021-04-14T10:57:09Z</time>
      </trkpt>
      <trkpt lat="43.24219" lon="5.61066">
        <ele>441.8</ele>
        <time>2021-04-14T10:57:15Z</time>
      </trkpt>
      <trkpt lat="43.24222" lon="5.61072">
        <ele>442.4</ele>
        <time>2021-04-14T10:57:21Z</time>
      </trkpt>
      <trkpt lat="43.24226" lon="5.61077">
        <ele>443</ele>
        <time>2021-04-14T10:57:27Z</time>
      </trkpt>
      <trkpt lat="43.24229" lon="5.61083">
        <ele>444</ele>
        <time>2021-04-14T10:57:33Z</time>
      </trkpt>
      <trkpt lat="43.24234" lon="5.61088">
        <ele>444.4</ele>
        <time>2021-04-14T10:57:39Z</time>
      </trkpt>
      <trkpt lat="43.24239" lon="5.61092">
        <ele>444.7</ele>
        <time>2021-04-14T10:57:45Z</time>
      </trkpt>
      <trkpt lat="43.24243" lon="5.61096">
        <ele>445</ele>
        <time>2021-04-14T10:57:51Z</time>
      </trkpt>
      <trkpt lat="43.24246" lon="5.611">
        <ele>445.8</ele>
        <time>2021-04-14T10:57:57Z</time>
      </trkpt>
      <trkpt lat="43.2425" lon="5.61105">
        <ele>446.6</ele>
        <time>2021-04-14T10:58:03Z</time>
      </trkpt>
      <trkpt lat="43.24256" lon="5.61109">
        <ele>447.1</ele>
        <time>2021-04-14T10:58:09Z</time>
      </trkpt>
      <trkpt lat="43.24262" lon="5.61113">
        <ele>447.5</ele>
        <time>2021-04-14T10:58:15Z</time>
      </trkpt>
      <trkpt lat="43.24267" lon="5.61114">
        <ele>447.3</ele>
        <time>2021-04-14T10:58:19Z</time>
      </trkpt>
      <trkpt lat="43.24271" lon="5.61118">
        <ele>448.1</ele>
        <time>2021-04-14T10:58:25Z</time>
      </trkpt>
      <trkpt lat="43.24276" lon="5.61123">
        <ele>448.8</ele>
        <time>2021-04-14T10:58:31Z</time>
      </trkpt>
      <trkpt lat="43.24281" lon="5.61127">
        <ele>449.3</ele>
        <time>2021-04-14T10:58:37Z</time>
      </trkpt>
      <trkpt lat="43.24286" lon="5.61129">
        <ele>449.4</ele>
        <time>2021-04-14T10:58:43Z</time>
      </trkpt>
      <trkpt lat="43.24291" lon="5.61132">
        <ele>449.7</ele>
        <time>2021-04-14T10:58:49Z</time>
      </trkpt>
      <trkpt lat="43.24296" lon="5.61135">
        <ele>450.1</ele>
        <time>2021-04-14T10:58:53Z</time>
      </trkpt>
      <trkpt lat="43.24301" lon="5.61138">
        <ele>450.5</ele>
        <time>2021-04-14T10:58:59Z</time>
      </trkpt>
      <trkpt lat="43.24306" lon="5.61139">
        <ele>450.3</ele>
        <time>2021-04-14T10:59:05Z</time>
      </trkpt>
      <trkpt lat="43.24311" lon="5.6114">
        <ele>450.2</ele>
        <time>2021-04-14T10:59:11Z</time>
      </trkpt>
      <trkpt lat="43.24316" lon="5.61142">
        <ele>450.1</ele>
        <time>2021-04-14T10:59:17Z</time>
      </trkpt>
      <trkpt lat="43.24321" lon="5.61144">
        <ele>450.3</ele>
        <time>2021-04-14T10:59:23Z</time>
      </trkpt>
      <trkpt lat="43.24327" lon="5.61145">
        <ele>450.1</ele>
        <time>2021-04-14T10:59:29Z</time>
      </trkpt>
      <trkpt lat="43.24333" lon="5.61146">
        <ele>449.9</ele>
        <time>2021-04-14T10:59:35Z</time>
      </trkpt>
      <trkpt lat="43.24338" lon="5.61149">
        <ele>449.2</ele>
        <time>2021-04-14T10:59:41Z</time>
      </trkpt>
      <trkpt lat="43.24342" lon="5.61153">
        <ele>448.9</ele>
        <time>2021-04-14T10:59:47Z</time>
      </trkpt>
      <trkpt lat="43.24346" lon="5.61156">
        <ele>448.2</ele>
        <time>2021-04-14T10:59:55Z</time>
      </trkpt>
      <trkpt lat="43.2435" lon="5.6116">
        <ele>448.2</ele>
        <time>2021-04-14T11:00:01Z</time>
      </trkpt>
      <trkpt lat="43.24353" lon="5.61165">
        <ele>448.3</ele>
        <time>2021-04-14T11:00:09Z</time>
      </trkpt>
      <trkpt lat="43.24356" lon="5.61171">
        <ele>448.9</ele>
        <time>2021-04-14T11:00:17Z</time>
      </trkpt>
      <trkpt lat="43.24356" lon="5.61179">
        <ele>450.1</ele>
        <time>2021-04-14T11:00:23Z</time>
      </trkpt>
      <trkpt lat="43.24357" lon="5.61185">
        <ele>451.2</ele>
        <time>2021-04-14T11:00:29Z</time>
      </trkpt>
      <trkpt lat="43.24356" lon="5.61192">
        <ele>453.1</ele>
        <time>2021-04-14T11:00:35Z</time>
      </trkpt>
      <trkpt lat="43.24354" lon="5.61199">
        <ele>455.1</ele>
        <time>2021-04-14T11:00:41Z</time>
      </trkpt>
      <trkpt lat="43.24353" lon="5.61206">
        <ele>456.8</ele>
        <time>2021-04-14T11:00:47Z</time>
      </trkpt>
      <trkpt lat="43.24354" lon="5.61213">
        <ele>458</ele>
        <time>2021-04-14T11:00:53Z</time>
      </trkpt>
      <trkpt lat="43.24355" lon="5.61221">
        <ele>459.1</ele>
        <time>2021-04-14T11:00:59Z</time>
      </trkpt>
      <trkpt lat="43.24357" lon="5.6123">
        <ele>460.2</ele>
        <time>2021-04-14T11:01:05Z</time>
      </trkpt>
      <trkpt lat="43.24359" lon="5.61238">
        <ele>461.3</ele>
        <time>2021-04-14T11:01:11Z</time>
      </trkpt>
      <trkpt lat="43.24361" lon="5.61245">
        <ele>461.7</ele>
        <time>2021-04-14T11:01:17Z</time>
      </trkpt>
      <trkpt lat="43.24362" lon="5.61252">
        <ele>462.5</ele>
        <time>2021-04-14T11:01:23Z</time>
      </trkpt>
      <trkpt lat="43.24365" lon="5.6126">
        <ele>462.7</ele>
        <time>2021-04-14T11:01:29Z</time>
      </trkpt>
      <trkpt lat="43.24367" lon="5.61267">
        <ele>462.6</ele>
        <time>2021-04-14T11:01:35Z</time>
      </trkpt>
      <trkpt lat="43.24371" lon="5.61273">
        <ele>462.2</ele>
        <time>2021-04-14T11:01:41Z</time>
      </trkpt>
      <trkpt lat="43.24375" lon="5.6128">
        <ele>461.7</ele>
        <time>2021-04-14T11:01:49Z</time>
      </trkpt>
      <trkpt lat="43.24378" lon="5.61287">
        <ele>461.5</ele>
        <time>2021-04-14T11:01:55Z</time>
      </trkpt>
      <trkpt lat="43.24379" lon="5.61295">
        <ele>462.2</ele>
        <time>2021-04-14T11:02:01Z</time>
      </trkpt>
      <trkpt lat="43.2438" lon="5.61301">
        <ele>462.8</ele>
        <time>2021-04-14T11:02:05Z</time>
      </trkpt>
      <trkpt lat="43.24381" lon="5.61309">
        <ele>463.3</ele>
        <time>2021-04-14T11:02:11Z</time>
      </trkpt>
      <trkpt lat="43.24383" lon="5.61316">
        <ele>463.7</ele>
        <time>2021-04-14T11:02:17Z</time>
      </trkpt>
      <trkpt lat="43.24385" lon="5.61323">
        <ele>464</ele>
        <time>2021-04-14T11:02:23Z</time>
      </trkpt>
      <trkpt lat="43.24387" lon="5.61331">
        <ele>464.7</ele>
        <time>2021-04-14T11:02:29Z</time>
      </trkpt>
      <trkpt lat="43.24389" lon="5.61339">
        <ele>465.1</ele>
        <time>2021-04-14T11:02:35Z</time>
      </trkpt>
      <trkpt lat="43.2439" lon="5.61348">
        <ele>465.4</ele>
        <time>2021-04-14T11:02:41Z</time>
      </trkpt>
      <trkpt lat="43.24393" lon="5.61355">
        <ele>465.5</ele>
        <time>2021-04-14T11:02:47Z</time>
      </trkpt>
      <trkpt lat="43.24394" lon="5.61361">
        <ele>465.6</ele>
        <time>2021-04-14T11:02:53Z</time>
      </trkpt>
      <trkpt lat="43.24397" lon="5.61369">
        <ele>465.5</ele>
        <time>2021-04-14T11:02:59Z</time>
      </trkpt>
      <trkpt lat="43.244" lon="5.61376">
        <ele>465.6</ele>
        <time>2021-04-14T11:03:05Z</time>
      </trkpt>
      <trkpt lat="43.24402" lon="5.61384">
        <ele>465.9</ele>
        <time>2021-04-14T11:03:11Z</time>
      </trkpt>
      <trkpt lat="43.24404" lon="5.61391">
        <ele>466.1</ele>
        <time>2021-04-14T11:03:17Z</time>
      </trkpt>
      <trkpt lat="43.24405" lon="5.61398">
        <ele>466.9</ele>
        <time>2021-04-14T11:03:23Z</time>
      </trkpt>
      <trkpt lat="43.24407" lon="5.61404">
        <ele>467</ele>
        <time>2021-04-14T11:03:29Z</time>
      </trkpt>
      <trkpt lat="43.2441" lon="5.61411">
        <ele>467.1</ele>
        <time>2021-04-14T11:03:35Z</time>
      </trkpt>
      <trkpt lat="43.24412" lon="5.61417">
        <ele>467.4</ele>
        <time>2021-04-14T11:03:41Z</time>
      </trkpt>
      <trkpt lat="43.24413" lon="5.61424">
        <ele>467</ele>
        <time>2021-04-14T11:03:47Z</time>
      </trkpt>
      <trkpt lat="43.24418" lon="5.61429">
        <ele>465.1</ele>
        <time>2021-04-14T11:03:53Z</time>
      </trkpt>
      <trkpt lat="43.24421" lon="5.61435">
        <ele>463.3</ele>
        <time>2021-04-14T11:03:59Z</time>
      </trkpt>
      <trkpt lat="43.24424" lon="5.6144">
        <ele>461.4</ele>
        <time>2021-04-14T11:04:05Z</time>
      </trkpt>
      <trkpt lat="43.24428" lon="5.61447">
        <ele>459.3</ele>
        <time>2021-04-14T11:04:11Z</time>
      </trkpt>
      <trkpt lat="43.2443" lon="5.61454">
        <ele>458.1</ele>
        <time>2021-04-14T11:04:17Z</time>
      </trkpt>
      <trkpt lat="43.2443" lon="5.61462">
        <ele>458.5</ele>
        <time>2021-04-14T11:04:23Z</time>
      </trkpt>
      <trkpt lat="43.2443" lon="5.6147">
        <ele>458.8</ele>
        <time>2021-04-14T11:04:29Z</time>
      </trkpt>
      <trkpt lat="43.24429" lon="5.61478">
        <ele>459.3</ele>
        <time>2021-04-14T11:04:37Z</time>
      </trkpt>
      <trkpt lat="43.24428" lon="5.61484">
        <ele>460.1</ele>
        <time>2021-04-14T11:04:43Z</time>
      </trkpt>
      <trkpt lat="43.24426" lon="5.61492">
        <ele>461.6</ele>
        <time>2021-04-14T11:04:49Z</time>
      </trkpt>
      <trkpt lat="43.24423" lon="5.61499">
        <ele>463.1</ele>
        <time>2021-04-14T11:04:55Z</time>
      </trkpt>
      <trkpt lat="43.24421" lon="5.61507">
        <ele>464.9</ele>
        <time>2021-04-14T11:05:01Z</time>
      </trkpt>
      <trkpt lat="43.24419" lon="5.61513">
        <ele>466.4</ele>
        <time>2021-04-14T11:05:07Z</time>
      </trkpt>
      <trkpt lat="43.24417" lon="5.6152">
        <ele>467.3</ele>
        <time>2021-04-14T11:05:13Z</time>
      </trkpt>
      <trkpt lat="43.24418" lon="5.61527">
        <ele>467.1</ele>
        <time>2021-04-14T11:05:19Z</time>
      </trkpt>
      <trkpt lat="43.24418" lon="5.61535">
        <ele>467.3</ele>
        <time>2021-04-14T11:05:25Z</time>
      </trkpt>
      <trkpt lat="43.2442" lon="5.61544">
        <ele>466.6</ele>
        <time>2021-04-14T11:05:31Z</time>
      </trkpt>
      <trkpt lat="43.24422" lon="5.6155">
        <ele>466.2</ele>
        <time>2021-04-14T11:05:35Z</time>
      </trkpt>
      <trkpt lat="43.24423" lon="5.61556">
        <ele>465.8</ele>
        <time>2021-04-14T11:05:39Z</time>
      </trkpt>
      <trkpt lat="43.24425" lon="5.61564">
        <ele>465.4</ele>
        <time>2021-04-14T11:05:45Z</time>
      </trkpt>
      <trkpt lat="43.24426" lon="5.6157">
        <ele>465.2</ele>
        <time>2021-04-14T11:05:51Z</time>
      </trkpt>
      <trkpt lat="43.24427" lon="5.61577">
        <ele>465.1</ele>
        <time>2021-04-14T11:05:57Z</time>
      </trkpt>
      <trkpt lat="43.24427" lon="5.61583">
        <ele>465.3</ele>
        <time>2021-04-14T11:06:01Z</time>
      </trkpt>
      <trkpt lat="43.24427" lon="5.6159">
        <ele>466</ele>
        <time>2021-04-14T11:06:05Z</time>
      </trkpt>
      <trkpt lat="43.24428" lon="5.61598">
        <ele>466.2</ele>
        <time>2021-04-14T11:06:11Z</time>
      </trkpt>
      <trkpt lat="43.24428" lon="5.61605">
        <ele>466.8</ele>
        <time>2021-04-14T11:06:15Z</time>
      </trkpt>
      <trkpt lat="43.2443" lon="5.61613">
        <ele>466.8</ele>
        <time>2021-04-14T11:06:21Z</time>
      </trkpt>
      <trkpt lat="43.24431" lon="5.61619">
        <ele>466.8</ele>
        <time>2021-04-14T11:06:25Z</time>
      </trkpt>
      <trkpt lat="43.24434" lon="5.61624">
        <ele>466</ele>
        <time>2021-04-14T11:06:29Z</time>
      </trkpt>
      <trkpt lat="43.24438" lon="5.6163">
        <ele>465.2</ele>
        <time>2021-04-14T11:06:35Z</time>
      </trkpt>
      <trkpt lat="43.24443" lon="5.61636">
        <ele>464.1</ele>
        <time>2021-04-14T11:06:41Z</time>
      </trkpt>
      <trkpt lat="43.24447" lon="5.61641">
        <ele>463.2</ele>
        <time>2021-04-14T11:06:47Z</time>
      </trkpt>
      <trkpt lat="43.24452" lon="5.61647">
        <ele>462.5</ele>
        <time>2021-04-14T11:06:53Z</time>
      </trkpt>
      <trkpt lat="43.24454" lon="5.61654">
        <ele>462.4</ele>
        <time>2021-04-14T11:06:59Z</time>
      </trkpt>
      <trkpt lat="43.24456" lon="5.61662">
        <ele>463</ele>
        <time>2021-04-14T11:07:05Z</time>
      </trkpt>
      <trkpt lat="43.24457" lon="5.6167">
        <ele>463.5</ele>
        <time>2021-04-14T11:07:11Z</time>
      </trkpt>
      <trkpt lat="43.24459" lon="5.61678">
        <ele>463.4</ele>
        <time>2021-04-14T11:07:17Z</time>
      </trkpt>
      <trkpt lat="43.2446" lon="5.61687">
        <ele>463.4</ele>
        <time>2021-04-14T11:07:23Z</time>
      </trkpt>
      <trkpt lat="43.2446" lon="5.61695">
        <ele>463.8</ele>
        <time>2021-04-14T11:07:29Z</time>
      </trkpt>
      <trkpt lat="43.2446" lon="5.61702">
        <ele>464.2</ele>
        <time>2021-04-14T11:07:35Z</time>
      </trkpt>
      <trkpt lat="43.24461" lon="5.61709">
        <ele>464.5</ele>
        <time>2021-04-14T11:07:41Z</time>
      </trkpt>
      <trkpt lat="43.2446" lon="5.61716">
        <ele>465.1</ele>
        <time>2021-04-14T11:07:47Z</time>
      </trkpt>
      <trkpt lat="43.24459" lon="5.61723">
        <ele>465.5</ele>
        <time>2021-04-14T11:07:53Z</time>
      </trkpt>
      <trkpt lat="43.2446" lon="5.6173">
        <ele>465.7</ele>
        <time>2021-04-14T11:09:33Z</time>
      </trkpt>
      <trkpt lat="43.24465" lon="5.61731">
        <ele>464.9</ele>
        <time>2021-04-14T11:11:07Z</time>
      </trkpt>
      <trkpt lat="43.24466" lon="5.61738">
        <ele>465.2</ele>
        <time>2021-04-14T11:11:31Z</time>
      </trkpt>
      <trkpt lat="43.24464" lon="5.61745">
        <ele>465.8</ele>
        <time>2021-04-14T11:11:37Z</time>
      </trkpt>
      <trkpt lat="43.24463" lon="5.61751">
        <ele>466.3</ele>
        <time>2021-04-14T11:11:43Z</time>
      </trkpt>
      <trkpt lat="43.24459" lon="5.61757">
        <ele>466.5</ele>
        <time>2021-04-14T11:11:51Z</time>
      </trkpt>
      <trkpt lat="43.24457" lon="5.61763">
        <ele>466.3</ele>
        <time>2021-04-14T11:11:55Z</time>
      </trkpt>
      <trkpt lat="43.24454" lon="5.61771">
        <ele>466.1</ele>
        <time>2021-04-14T11:12:01Z</time>
      </trkpt>
      <trkpt lat="43.24453" lon="5.61779">
        <ele>465.7</ele>
        <time>2021-04-14T11:12:07Z</time>
      </trkpt>
      <trkpt lat="43.24451" lon="5.61786">
        <ele>465.4</ele>
        <time>2021-04-14T11:12:13Z</time>
      </trkpt>
      <trkpt lat="43.24448" lon="5.61791">
        <ele>465.2</ele>
        <time>2021-04-14T11:12:19Z</time>
      </trkpt>
      <trkpt lat="43.24445" lon="5.61798">
        <ele>465</ele>
        <time>2021-04-14T11:12:25Z</time>
      </trkpt>
      <trkpt lat="43.24441" lon="5.61805">
        <ele>464.6</ele>
        <time>2021-04-14T11:12:31Z</time>
      </trkpt>
      <trkpt lat="43.24437" lon="5.61812">
        <ele>464.3</ele>
        <time>2021-04-14T11:12:37Z</time>
      </trkpt>
      <trkpt lat="43.24435" lon="5.61818">
        <ele>463.8</ele>
        <time>2021-04-14T11:12:43Z</time>
      </trkpt>
      <trkpt lat="43.24433" lon="5.61826">
        <ele>463.1</ele>
        <time>2021-04-14T11:12:49Z</time>
      </trkpt>
      <trkpt lat="43.24431" lon="5.61833">
        <ele>462.5</ele>
        <time>2021-04-14T11:12:53Z</time>
      </trkpt>
      <trkpt lat="43.24428" lon="5.6184">
        <ele>461.9</ele>
        <time>2021-04-14T11:12:59Z</time>
      </trkpt>
      <trkpt lat="43.24427" lon="5.61846">
        <ele>461.4</ele>
        <time>2021-04-14T11:13:03Z</time>
      </trkpt>
      <trkpt lat="43.24424" lon="5.61851">
        <ele>460.9</ele>
        <time>2021-04-14T11:13:09Z</time>
      </trkpt>
      <trkpt lat="43.24421" lon="5.61859">
        <ele>460.1</ele>
        <time>2021-04-14T11:13:15Z</time>
      </trkpt>
      <trkpt lat="43.24418" lon="5.61866">
        <ele>459.5</ele>
        <time>2021-04-14T11:13:19Z</time>
      </trkpt>
      <trkpt lat="43.24415" lon="5.61871">
        <ele>459.1</ele>
        <time>2021-04-14T11:13:23Z</time>
      </trkpt>
      <trkpt lat="43.24413" lon="5.61879">
        <ele>458.4</ele>
        <time>2021-04-14T11:13:29Z</time>
      </trkpt>
      <trkpt lat="43.2441" lon="5.61888">
        <ele>457.8</ele>
        <time>2021-04-14T11:13:35Z</time>
      </trkpt>
      <trkpt lat="43.24408" lon="5.61894">
        <ele>457.3</ele>
        <time>2021-04-14T11:13:41Z</time>
      </trkpt>
      <trkpt lat="43.24407" lon="5.619">
        <ele>456.8</ele>
        <time>2021-04-14T11:13:47Z</time>
      </trkpt>
      <trkpt lat="43.24406" lon="5.61906">
        <ele>456.3</ele>
        <time>2021-04-14T11:13:51Z</time>
      </trkpt>
      <trkpt lat="43.24406" lon="5.61913">
        <ele>455.6</ele>
        <time>2021-04-14T11:13:55Z</time>
      </trkpt>
      <trkpt lat="43.24405" lon="5.61921">
        <ele>454.7</ele>
        <time>2021-04-14T11:14:01Z</time>
      </trkpt>
      <trkpt lat="43.24403" lon="5.61927">
        <ele>454.2</ele>
        <time>2021-04-14T11:14:07Z</time>
      </trkpt>
      <trkpt lat="43.244" lon="5.61934">
        <ele>453.6</ele>
        <time>2021-04-14T11:14:11Z</time>
      </trkpt>
      <trkpt lat="43.24399" lon="5.6194">
        <ele>453</ele>
        <time>2021-04-14T11:14:15Z</time>
      </trkpt>
      <trkpt lat="43.24398" lon="5.61947">
        <ele>452.2</ele>
        <time>2021-04-14T11:14:21Z</time>
      </trkpt>
      <trkpt lat="43.24395" lon="5.61954">
        <ele>451.8</ele>
        <time>2021-04-14T11:14:25Z</time>
      </trkpt>
      <trkpt lat="43.24392" lon="5.61959">
        <ele>451.7</ele>
        <time>2021-04-14T11:14:29Z</time>
      </trkpt>
      <trkpt lat="43.24389" lon="5.61967">
        <ele>451.2</ele>
        <time>2021-04-14T11:14:35Z</time>
      </trkpt>
      <trkpt lat="43.24387" lon="5.61975">
        <ele>450.5</ele>
        <time>2021-04-14T11:14:41Z</time>
      </trkpt>
      <trkpt lat="43.24387" lon="5.61982">
        <ele>449.8</ele>
        <time>2021-04-14T11:14:45Z</time>
      </trkpt>
      <trkpt lat="43.24386" lon="5.6199">
        <ele>448.9</ele>
        <time>2021-04-14T11:14:51Z</time>
      </trkpt>
      <trkpt lat="43.24385" lon="5.61998">
        <ele>448.1</ele>
        <time>2021-04-14T11:14:55Z</time>
      </trkpt>
      <trkpt lat="43.24384" lon="5.62005">
        <ele>447.8</ele>
        <time>2021-04-14T11:15:01Z</time>
      </trkpt>
      <trkpt lat="43.24383" lon="5.62014">
        <ele>447.5</ele>
        <time>2021-04-14T11:15:07Z</time>
      </trkpt>
      <trkpt lat="43.24382" lon="5.62022">
        <ele>447.2</ele>
        <time>2021-04-14T11:15:11Z</time>
      </trkpt>
      <trkpt lat="43.24383" lon="5.6203">
        <ele>446.8</ele>
        <time>2021-04-14T11:15:15Z</time>
      </trkpt>
      <trkpt lat="43.24383" lon="5.62037">
        <ele>446.3</ele>
        <time>2021-04-14T11:15:19Z</time>
      </trkpt>
      <trkpt lat="43.24382" lon="5.62045">
        <ele>446</ele>
        <time>2021-04-14T11:15:23Z</time>
      </trkpt>
      <trkpt lat="43.24383" lon="5.62052">
        <ele>445.6</ele>
        <time>2021-04-14T11:15:27Z</time>
      </trkpt>
      <trkpt lat="43.24382" lon="5.6206">
        <ele>445.2</ele>
        <time>2021-04-14T11:15:33Z</time>
      </trkpt>
      <trkpt lat="43.24382" lon="5.62069">
        <ele>444.8</ele>
        <time>2021-04-14T11:15:39Z</time>
      </trkpt>
      <trkpt lat="43.24384" lon="5.62077">
        <ele>444</ele>
        <time>2021-04-14T11:15:45Z</time>
      </trkpt>
      <trkpt lat="43.24384" lon="5.62086">
        <ele>443.6</ele>
        <time>2021-04-14T11:15:51Z</time>
      </trkpt>
      <trkpt lat="43.24385" lon="5.62095">
        <ele>443.5</ele>
        <time>2021-04-14T11:15:57Z</time>
      </trkpt>
      <trkpt lat="43.24385" lon="5.62101">
        <ele>443.4</ele>
        <time>2021-04-14T11:16:01Z</time>
      </trkpt>
      <trkpt lat="43.24387" lon="5.62107">
        <ele>443</ele>
        <time>2021-04-14T11:16:05Z</time>
      </trkpt>
      <trkpt lat="43.24387" lon="5.62114">
        <ele>442.9</ele>
        <time>2021-04-14T11:16:09Z</time>
      </trkpt>
      <trkpt lat="43.24387" lon="5.62121">
        <ele>443.1</ele>
        <time>2021-04-14T11:16:13Z</time>
      </trkpt>
      <trkpt lat="43.24389" lon="5.62128">
        <ele>442.5</ele>
        <time>2021-04-14T11:16:19Z</time>
      </trkpt>
      <trkpt lat="43.2439" lon="5.62136">
        <ele>442.1</ele>
        <time>2021-04-14T11:16:25Z</time>
      </trkpt>
      <trkpt lat="43.24393" lon="5.62144">
        <ele>441.4</ele>
        <time>2021-04-14T11:16:31Z</time>
      </trkpt>
      <trkpt lat="43.24394" lon="5.6215">
        <ele>441.1</ele>
        <time>2021-04-14T11:16:35Z</time>
      </trkpt>
      <trkpt lat="43.24393" lon="5.62157">
        <ele>441.4</ele>
        <time>2021-04-14T11:16:39Z</time>
      </trkpt>
      <trkpt lat="43.24393" lon="5.62164">
        <ele>441.3</ele>
        <time>2021-04-14T11:16:45Z</time>
      </trkpt>
      <trkpt lat="43.24393" lon="5.62173">
        <ele>440.8</ele>
        <time>2021-04-14T11:16:51Z</time>
      </trkpt>
      <trkpt lat="43.24393" lon="5.62181">
        <ele>440.2</ele>
        <time>2021-04-14T11:16:57Z</time>
      </trkpt>
      <trkpt lat="43.24394" lon="5.62187">
        <ele>439.7</ele>
        <time>2021-04-14T11:17:03Z</time>
      </trkpt>
      <trkpt lat="43.24392" lon="5.62195">
        <ele>439.6</ele>
        <time>2021-04-14T11:17:09Z</time>
      </trkpt>
      <trkpt lat="43.24391" lon="5.62202">
        <ele>439.5</ele>
        <time>2021-04-14T11:17:13Z</time>
      </trkpt>
      <trkpt lat="43.24391" lon="5.62208">
        <ele>439.2</ele>
        <time>2021-04-14T11:17:17Z</time>
      </trkpt>
      <trkpt lat="43.2439" lon="5.62218">
        <ele>438.8</ele>
        <time>2021-04-14T11:17:23Z</time>
      </trkpt>
      <trkpt lat="43.24389" lon="5.62225">
        <ele>438.5</ele>
        <time>2021-04-14T11:17:29Z</time>
      </trkpt>
      <trkpt lat="43.24387" lon="5.62233">
        <ele>438.8</ele>
        <time>2021-04-14T11:17:33Z</time>
      </trkpt>
      <trkpt lat="43.24385" lon="5.6224">
        <ele>438.9</ele>
        <time>2021-04-14T11:17:37Z</time>
      </trkpt>
      <trkpt lat="43.24384" lon="5.62247">
        <ele>438.7</ele>
        <time>2021-04-14T11:17:41Z</time>
      </trkpt>
      <trkpt lat="43.24383" lon="5.62256">
        <ele>438</ele>
        <time>2021-04-14T11:17:47Z</time>
      </trkpt>
      <trkpt lat="43.2438" lon="5.62262">
        <ele>437.5</ele>
        <time>2021-04-14T11:17:53Z</time>
      </trkpt>
      <trkpt lat="43.24378" lon="5.62269">
        <ele>437</ele>
        <time>2021-04-14T11:18:01Z</time>
      </trkpt>
      <trkpt lat="43.24377" lon="5.62277">
        <ele>435.8</ele>
        <time>2021-04-14T11:18:07Z</time>
      </trkpt>
      <trkpt lat="43.24375" lon="5.62284">
        <ele>435.3</ele>
        <time>2021-04-14T11:18:13Z</time>
      </trkpt>
      <trkpt lat="43.24374" lon="5.6229">
        <ele>434.6</ele>
        <time>2021-04-14T11:18:17Z</time>
      </trkpt>
      <trkpt lat="43.24373" lon="5.62297">
        <ele>433.8</ele>
        <time>2021-04-14T11:18:23Z</time>
      </trkpt>
      <trkpt lat="43.24371" lon="5.62305">
        <ele>433</ele>
        <time>2021-04-14T11:18:31Z</time>
      </trkpt>
      <trkpt lat="43.24373" lon="5.62311">
        <ele>431.3</ele>
        <time>2021-04-14T11:18:37Z</time>
      </trkpt>
      <trkpt lat="43.24372" lon="5.6232">
        <ele>430.1</ele>
        <time>2021-04-14T11:18:43Z</time>
      </trkpt>
      <trkpt lat="43.2437" lon="5.62326">
        <ele>429.7</ele>
        <time>2021-04-14T11:18:47Z</time>
      </trkpt>
      <trkpt lat="43.24368" lon="5.62333">
        <ele>429.3</ele>
        <time>2021-04-14T11:18:51Z</time>
      </trkpt>
      <trkpt lat="43.24364" lon="5.62338">
        <ele>429.5</ele>
        <time>2021-04-14T11:19:01Z</time>
      </trkpt>
      <trkpt lat="43.24359" lon="5.62342">
        <ele>430.1</ele>
        <time>2021-04-14T11:19:05Z</time>
      </trkpt>
      <trkpt lat="43.24355" lon="5.62345">
        <ele>430.9</ele>
        <time>2021-04-14T11:19:09Z</time>
      </trkpt>
      <trkpt lat="43.24351" lon="5.62349">
        <ele>431</ele>
        <time>2021-04-14T11:19:13Z</time>
      </trkpt>
      <trkpt lat="43.24347" lon="5.62353">
        <ele>431.5</ele>
        <time>2021-04-14T11:19:17Z</time>
      </trkpt>
      <trkpt lat="43.24341" lon="5.6236">
        <ele>431.6</ele>
        <time>2021-04-14T11:19:23Z</time>
      </trkpt>
      <trkpt lat="43.24336" lon="5.62365">
        <ele>431.9</ele>
        <time>2021-04-14T11:19:29Z</time>
      </trkpt>
      <trkpt lat="43.24333" lon="5.62371">
        <ele>431.1</ele>
        <time>2021-04-14T11:19:35Z</time>
      </trkpt>
      <trkpt lat="43.2433" lon="5.62376">
        <ele>430.3</ele>
        <time>2021-04-14T11:19:43Z</time>
      </trkpt>
      <trkpt lat="43.24324" lon="5.62382">
        <ele>429.4</ele>
        <time>2021-04-14T11:19:55Z</time>
      </trkpt>
      <trkpt lat="43.24319" lon="5.62387">
        <ele>429</ele>
        <time>2021-04-14T11:20:01Z</time>
      </trkpt>
      <trkpt lat="43.24315" lon="5.6239">
        <ele>428.9</ele>
        <time>2021-04-14T11:20:09Z</time>
      </trkpt>
      <trkpt lat="43.24311" lon="5.62395">
        <ele>428.6</ele>
        <time>2021-04-14T11:20:13Z</time>
      </trkpt>
      <trkpt lat="43.24307" lon="5.624">
        <ele>427.9</ele>
        <time>2021-04-14T11:20:17Z</time>
      </trkpt>
      <trkpt lat="43.24302" lon="5.62405">
        <ele>427.7</ele>
        <time>2021-04-14T11:20:21Z</time>
      </trkpt>
      <trkpt lat="43.24298" lon="5.62408">
        <ele>427.7</ele>
        <time>2021-04-14T11:20:25Z</time>
      </trkpt>
      <trkpt lat="43.24293" lon="5.62412">
        <ele>427.7</ele>
        <time>2021-04-14T11:20:29Z</time>
      </trkpt>
      <trkpt lat="43.24289" lon="5.62417">
        <ele>427.5</ele>
        <time>2021-04-14T11:20:35Z</time>
      </trkpt>
      <trkpt lat="43.24288" lon="5.62424">
        <ele>427.3</ele>
        <time>2021-04-14T11:20:45Z</time>
      </trkpt>
      <trkpt lat="43.24285" lon="5.6243">
        <ele>427.6</ele>
        <time>2021-04-14T11:20:57Z</time>
      </trkpt>
      <trkpt lat="43.2428" lon="5.62437">
        <ele>428.3</ele>
        <time>2021-04-14T11:21:03Z</time>
      </trkpt>
      <trkpt lat="43.24275" lon="5.62441">
        <ele>429.4</ele>
        <time>2021-04-14T11:21:07Z</time>
      </trkpt>
      <trkpt lat="43.24271" lon="5.62446">
        <ele>430</ele>
        <time>2021-04-14T11:21:11Z</time>
      </trkpt>
      <trkpt lat="43.24267" lon="5.62452">
        <ele>430.5</ele>
        <time>2021-04-14T11:21:17Z</time>
      </trkpt>
      <trkpt lat="43.24265" lon="5.62459">
        <ele>430.7</ele>
        <time>2021-04-14T11:21:23Z</time>
      </trkpt>
      <trkpt lat="43.24266" lon="5.62465">
        <ele>430.2</ele>
        <time>2021-04-14T11:21:37Z</time>
      </trkpt>
      <trkpt lat="43.24267" lon="5.62472">
        <ele>429.7</ele>
        <time>2021-04-14T11:21:43Z</time>
      </trkpt>
      <trkpt lat="43.24272" lon="5.62475">
        <ele>428.2</ele>
        <time>2021-04-14T11:21:49Z</time>
      </trkpt>
      <trkpt lat="43.24278" lon="5.62479">
        <ele>426.4</ele>
        <time>2021-04-14T11:21:55Z</time>
      </trkpt>
      <trkpt lat="43.2428" lon="5.62486">
        <ele>425.6</ele>
        <time>2021-04-14T11:22:05Z</time>
      </trkpt>
      <trkpt lat="43.2428" lon="5.62493">
        <ele>425.2</ele>
        <time>2021-04-14T11:22:13Z</time>
      </trkpt>
      <trkpt lat="43.24282" lon="5.625">
        <ele>424.1</ele>
        <time>2021-04-14T11:22:19Z</time>
      </trkpt>
      <trkpt lat="43.24286" lon="5.62505">
        <ele>424</ele>
        <time>2021-04-14T11:22:23Z</time>
      </trkpt>
      <trkpt lat="43.2429" lon="5.62511">
        <ele>424.1</ele>
        <time>2021-04-14T11:22:29Z</time>
      </trkpt>
      <trkpt lat="43.24294" lon="5.62515">
        <ele>423.6</ele>
        <time>2021-04-14T11:22:39Z</time>
      </trkpt>
      <trkpt lat="43.24298" lon="5.62517">
        <ele>422.8</ele>
        <time>2021-04-14T11:22:53Z</time>
      </trkpt>
      <trkpt lat="43.24303" lon="5.6252">
        <ele>422</ele>
        <time>2021-04-14T11:23:01Z</time>
      </trkpt>
      <trkpt lat="43.24306" lon="5.62526">
        <ele>421.9</ele>
        <time>2021-04-14T11:23:11Z</time>
      </trkpt>
      <trkpt lat="43.24309" lon="5.62531">
        <ele>422.1</ele>
        <time>2021-04-14T11:23:19Z</time>
      </trkpt>
      <trkpt lat="43.24312" lon="5.62536">
        <ele>422.1</ele>
        <time>2021-04-14T11:23:25Z</time>
      </trkpt>
      <trkpt lat="43.24316" lon="5.6254">
        <ele>421.7</ele>
        <time>2021-04-14T11:23:29Z</time>
      </trkpt>
      <trkpt lat="43.2432" lon="5.62544">
        <ele>421.3</ele>
        <time>2021-04-14T11:23:33Z</time>
      </trkpt>
      <trkpt lat="43.24323" lon="5.62549">
        <ele>421.3</ele>
        <time>2021-04-14T11:23:43Z</time>
      </trkpt>
      <trkpt lat="43.24324" lon="5.62555">
        <ele>421.8</ele>
        <time>2021-04-14T11:23:47Z</time>
      </trkpt>
      <trkpt lat="43.24329" lon="5.62559">
        <ele>421.3</ele>
        <time>2021-04-14T11:23:53Z</time>
      </trkpt>
      <trkpt lat="43.24331" lon="5.62565">
        <ele>421.4</ele>
        <time>2021-04-14T11:24:11Z</time>
      </trkpt>
      <trkpt lat="43.24333" lon="5.62571">
        <ele>422.2</ele>
        <time>2021-04-14T11:24:19Z</time>
      </trkpt>
      <trkpt lat="43.24334" lon="5.62579">
        <ele>422.7</ele>
        <time>2021-04-14T11:24:25Z</time>
      </trkpt>
      <trkpt lat="43.24336" lon="5.62586">
        <ele>423.2</ele>
        <time>2021-04-14T11:24:31Z</time>
      </trkpt>
      <trkpt lat="43.2434" lon="5.62591">
        <ele>422.4</ele>
        <time>2021-04-14T11:24:35Z</time>
      </trkpt>
      <trkpt lat="43.24343" lon="5.62596">
        <ele>421.9</ele>
        <time>2021-04-14T11:24:39Z</time>
      </trkpt>
      <trkpt lat="43.24348" lon="5.62601">
        <ele>420.7</ele>
        <time>2021-04-14T11:24:45Z</time>
      </trkpt>
      <trkpt lat="43.2435" lon="5.62607">
        <ele>420.8</ele>
        <time>2021-04-14T11:24:49Z</time>
      </trkpt>
      <trkpt lat="43.24353" lon="5.62614">
        <ele>420.8</ele>
        <time>2021-04-14T11:24:55Z</time>
      </trkpt>
      <trkpt lat="43.24357" lon="5.62619">
        <ele>419.9</ele>
        <time>2021-04-14T11:24:59Z</time>
      </trkpt>
      <trkpt lat="43.2436" lon="5.62623">
        <ele>419</ele>
        <time>2021-04-14T11:25:03Z</time>
      </trkpt>
      <trkpt lat="43.24365" lon="5.62626">
        <ele>417.5</ele>
        <time>2021-04-14T11:25:07Z</time>
      </trkpt>
      <trkpt lat="43.2437" lon="5.62631">
        <ele>415.9</ele>
        <time>2021-04-14T11:25:13Z</time>
      </trkpt>
      <trkpt lat="43.24372" lon="5.62637">
        <ele>416.2</ele>
        <time>2021-04-14T11:25:19Z</time>
      </trkpt>
      <trkpt lat="43.24374" lon="5.62644">
        <ele>416.7</ele>
        <time>2021-04-14T11:25:25Z</time>
      </trkpt>
      <trkpt lat="43.24374" lon="5.62651">
        <ele>417.8</ele>
        <time>2021-04-14T11:25:31Z</time>
      </trkpt>
      <trkpt lat="43.24372" lon="5.62659">
        <ele>420.2</ele>
        <time>2021-04-14T11:25:37Z</time>
      </trkpt>
      <trkpt lat="43.2437" lon="5.62666">
        <ele>422.4</ele>
        <time>2021-04-14T11:25:43Z</time>
      </trkpt>
      <trkpt lat="43.24371" lon="5.62672">
        <ele>423.1</ele>
        <time>2021-04-14T11:25:49Z</time>
      </trkpt>
      <trkpt lat="43.24368" lon="5.6268">
        <ele>425.3</ele>
        <time>2021-04-14T11:26:19Z</time>
      </trkpt>
      <trkpt lat="43.24366" lon="5.62689">
        <ele>427.3</ele>
        <time>2021-04-14T11:26:25Z</time>
      </trkpt>
      <trkpt lat="43.24366" lon="5.62696">
        <ele>427.9</ele>
        <time>2021-04-14T11:26:31Z</time>
      </trkpt>
      <trkpt lat="43.2437" lon="5.62699">
        <ele>426.9</ele>
        <time>2021-04-14T11:26:45Z</time>
      </trkpt>
      <trkpt lat="43.2437" lon="5.62707">
        <ele>427.8</ele>
        <time>2021-04-14T11:27:03Z</time>
      </trkpt>
      <trkpt lat="43.24367" lon="5.62713">
        <ele>429.8</ele>
        <time>2021-04-14T11:27:11Z</time>
      </trkpt>
      <trkpt lat="43.24363" lon="5.62719">
        <ele>432</ele>
        <time>2021-04-14T11:27:17Z</time>
      </trkpt>
      <trkpt lat="43.2436" lon="5.62724">
        <ele>433.8</ele>
        <time>2021-04-14T11:27:23Z</time>
      </trkpt>
      <trkpt lat="43.2436" lon="5.62732">
        <ele>434.7</ele>
        <time>2021-04-14T11:27:31Z</time>
      </trkpt>
      <trkpt lat="43.2436" lon="5.62738">
        <ele>435.5</ele>
        <time>2021-04-14T11:27:37Z</time>
      </trkpt>
      <trkpt lat="43.2436" lon="5.62745">
        <ele>436.1</ele>
        <time>2021-04-14T11:27:43Z</time>
      </trkpt>
      <trkpt lat="43.24362" lon="5.62752">
        <ele>436.1</ele>
        <time>2021-04-14T11:27:49Z</time>
      </trkpt>
      <trkpt lat="43.24366" lon="5.62757">
        <ele>435.6</ele>
        <time>2021-04-14T11:27:53Z</time>
      </trkpt>
      <trkpt lat="43.2437" lon="5.62765">
        <ele>435.1</ele>
        <time>2021-04-14T11:27:59Z</time>
      </trkpt>
      <trkpt lat="43.24374" lon="5.62769">
        <ele>434.3</ele>
        <time>2021-04-14T11:28:03Z</time>
      </trkpt>
      <trkpt lat="43.24378" lon="5.62774">
        <ele>433.8</ele>
        <time>2021-04-14T11:28:09Z</time>
      </trkpt>
      <trkpt lat="43.24378" lon="5.62781">
        <ele>434.4</ele>
        <time>2021-04-14T11:28:17Z</time>
      </trkpt>
      <trkpt lat="43.24381" lon="5.62788">
        <ele>434.5</ele>
        <time>2021-04-14T11:28:25Z</time>
      </trkpt>
      <trkpt lat="43.24385" lon="5.62791">
        <ele>433.6</ele>
        <time>2021-04-14T11:28:31Z</time>
      </trkpt>
      <trkpt lat="43.24391" lon="5.62795">
        <ele>432.5</ele>
        <time>2021-04-14T11:28:39Z</time>
      </trkpt>
      <trkpt lat="43.24396" lon="5.62795">
        <ele>431.2</ele>
        <time>2021-04-14T11:28:47Z</time>
      </trkpt>
      <trkpt lat="43.24401" lon="5.62798">
        <ele>430.3</ele>
        <time>2021-04-14T11:28:53Z</time>
      </trkpt>
      <trkpt lat="43.24405" lon="5.62802">
        <ele>429.7</ele>
        <time>2021-04-14T11:29:01Z</time>
      </trkpt>
      <trkpt lat="43.2441" lon="5.62805">
        <ele>428.8</ele>
        <time>2021-04-14T11:29:11Z</time>
      </trkpt>
      <trkpt lat="43.24415" lon="5.62808">
        <ele>427.7</ele>
        <time>2021-04-14T11:29:15Z</time>
      </trkpt>
      <trkpt lat="43.2442" lon="5.6281">
        <ele>428.1</ele>
        <time>2021-04-14T11:29:19Z</time>
      </trkpt>
      <trkpt lat="43.24424" lon="5.62814">
        <ele>429.3</ele>
        <time>2021-04-14T11:29:25Z</time>
      </trkpt>
      <trkpt lat="43.24427" lon="5.6282">
        <ele>430.7</ele>
        <time>2021-04-14T11:29:33Z</time>
      </trkpt>
      <trkpt lat="43.24431" lon="5.62824">
        <ele>431.9</ele>
        <time>2021-04-14T11:29:41Z</time>
      </trkpt>
      <trkpt lat="43.24435" lon="5.6283">
        <ele>433.6</ele>
        <time>2021-04-14T11:29:49Z</time>
      </trkpt>
      <trkpt lat="43.24441" lon="5.62832">
        <ele>434.9</ele>
        <time>2021-04-14T11:29:55Z</time>
      </trkpt>
      <trkpt lat="43.24447" lon="5.62832">
        <ele>436</ele>
        <time>2021-04-14T11:29:59Z</time>
      </trkpt>
      <trkpt lat="43.24453" lon="5.62833">
        <ele>437</ele>
        <time>2021-04-14T11:30:03Z</time>
      </trkpt>
      <trkpt lat="43.24459" lon="5.62834">
        <ele>438.4</ele>
        <time>2021-04-14T11:30:09Z</time>
      </trkpt>
      <trkpt lat="43.24463" lon="5.62831">
        <ele>438.2</ele>
        <time>2021-04-14T11:30:27Z</time>
      </trkpt>
      <trkpt lat="43.24467" lon="5.62829">
        <ele>438.7</ele>
        <time>2021-04-14T11:30:49Z</time>
      </trkpt>
      <trkpt lat="43.24472" lon="5.62831">
        <ele>439.8</ele>
        <time>2021-04-14T11:30:59Z</time>
      </trkpt>
      <trkpt lat="43.24473" lon="5.62838">
        <ele>441.8</ele>
        <time>2021-04-14T11:31:07Z</time>
      </trkpt>
      <trkpt lat="43.24476" lon="5.62844">
        <ele>443.6</ele>
        <time>2021-04-14T11:31:19Z</time>
      </trkpt>
      <trkpt lat="43.24481" lon="5.62847">
        <ele>445.3</ele>
        <time>2021-04-14T11:31:29Z</time>
      </trkpt>
      <trkpt lat="43.24487" lon="5.62846">
        <ele>446.1</ele>
        <time>2021-04-14T11:31:35Z</time>
      </trkpt>
      <trkpt lat="43.24492" lon="5.62848">
        <ele>447.5</ele>
        <time>2021-04-14T11:31:41Z</time>
      </trkpt>
      <trkpt lat="43.24496" lon="5.62854">
        <ele>449.5</ele>
        <time>2021-04-14T11:31:49Z</time>
      </trkpt>
      <trkpt lat="43.245" lon="5.62859">
        <ele>451.4</ele>
        <time>2021-04-14T11:31:59Z</time>
      </trkpt>
      <trkpt lat="43.24501" lon="5.62866">
        <ele>452.9</ele>
        <time>2021-04-14T11:32:07Z</time>
      </trkpt>
      <trkpt lat="43.24506" lon="5.62869">
        <ele>452.9</ele>
        <time>2021-04-14T11:32:13Z</time>
      </trkpt>
      <trkpt lat="43.24513" lon="5.62871">
        <ele>452.1</ele>
        <time>2021-04-14T11:32:21Z</time>
      </trkpt>
      <trkpt lat="43.24518" lon="5.62875">
        <ele>452.2</ele>
        <time>2021-04-14T11:32:29Z</time>
      </trkpt>
      <trkpt lat="43.24522" lon="5.6288">
        <ele>452.7</ele>
        <time>2021-04-14T11:32:37Z</time>
      </trkpt>
      <trkpt lat="43.24526" lon="5.62885">
        <ele>453.4</ele>
        <time>2021-04-14T11:32:45Z</time>
      </trkpt>
      <trkpt lat="43.24531" lon="5.62887">
        <ele>453</ele>
        <time>2021-04-14T11:32:51Z</time>
      </trkpt>
      <trkpt lat="43.24536" lon="5.62891">
        <ele>453.3</ele>
        <time>2021-04-14T11:32:59Z</time>
      </trkpt>
      <trkpt lat="43.24539" lon="5.62898">
        <ele>454.4</ele>
        <time>2021-04-14T11:33:07Z</time>
      </trkpt>
      <trkpt lat="43.24544" lon="5.62902">
        <ele>454.7</ele>
        <time>2021-04-14T11:33:15Z</time>
      </trkpt>
      <trkpt lat="43.24549" lon="5.62906">
        <ele>455</ele>
        <time>2021-04-14T11:33:21Z</time>
      </trkpt>
      <trkpt lat="43.24553" lon="5.62909">
        <ele>455.1</ele>
        <time>2021-04-14T11:33:27Z</time>
      </trkpt>
      <trkpt lat="43.24555" lon="5.62915">
        <ele>456.3</ele>
        <time>2021-04-14T11:33:33Z</time>
      </trkpt>
      <trkpt lat="43.24561" lon="5.62915">
        <ele>455.4</ele>
        <time>2021-04-14T11:33:39Z</time>
      </trkpt>
      <trkpt lat="43.24565" lon="5.62911">
        <ele>453.6</ele>
        <time>2021-04-14T11:33:43Z</time>
      </trkpt>
      <trkpt lat="43.24569" lon="5.62906">
        <ele>451.5</ele>
        <time>2021-04-14T11:33:49Z</time>
      </trkpt>
      <trkpt lat="43.24572" lon="5.62912">
        <ele>452.4</ele>
        <time>2021-04-14T11:34:19Z</time>
      </trkpt>
      <trkpt lat="43.24571" lon="5.62919">
        <ele>454.6</ele>
        <time>2021-04-14T11:35:25Z</time>
      </trkpt>
      <trkpt lat="43.24572" lon="5.62928">
        <ele>456.4</ele>
        <time>2021-04-14T11:35:33Z</time>
      </trkpt>
      <trkpt lat="43.24574" lon="5.62934">
        <ele>457.6</ele>
        <time>2021-04-14T11:35:41Z</time>
      </trkpt>
      <trkpt lat="43.24577" lon="5.62938">
        <ele>458</ele>
        <time>2021-04-14T11:35:45Z</time>
      </trkpt>
      <trkpt lat="43.24582" lon="5.62942">
        <ele>458.2</ele>
        <time>2021-04-14T11:35:49Z</time>
      </trkpt>
      <trkpt lat="43.24584" lon="5.62948">
        <ele>458.9</ele>
        <time>2021-04-14T11:35:55Z</time>
      </trkpt>
      <trkpt lat="43.24585" lon="5.62955">
        <ele>460.5</ele>
        <time>2021-04-14T11:36:03Z</time>
      </trkpt>
      <trkpt lat="43.24587" lon="5.62961">
        <ele>460.9</ele>
        <time>2021-04-14T11:36:09Z</time>
      </trkpt>
      <trkpt lat="43.24591" lon="5.62963">
        <ele>459.1</ele>
        <time>2021-04-14T11:36:57Z</time>
      </trkpt>
      <trkpt lat="43.24595" lon="5.62969">
        <ele>458.8</ele>
        <time>2021-04-14T11:41:53Z</time>
      </trkpt>
      <trkpt lat="43.24596" lon="5.62977">
        <ele>460.2</ele>
        <time>2021-04-14T11:41:59Z</time>
      </trkpt>
      <trkpt lat="43.24596" lon="5.62984">
        <ele>462.1</ele>
        <time>2021-04-14T11:42:05Z</time>
      </trkpt>
      <trkpt lat="43.24598" lon="5.6299">
        <ele>462.1</ele>
        <time>2021-04-14T11:42:11Z</time>
      </trkpt>
      <trkpt lat="43.24598" lon="5.62997">
        <ele>463.8</ele>
        <time>2021-04-14T11:42:17Z</time>
      </trkpt>
      <trkpt lat="43.246" lon="5.63004">
        <ele>464.5</ele>
        <time>2021-04-14T11:42:23Z</time>
      </trkpt>
      <trkpt lat="43.24602" lon="5.63011">
        <ele>464</ele>
        <time>2021-04-14T11:42:29Z</time>
      </trkpt>
      <trkpt lat="43.24605" lon="5.63018">
        <ele>463.6</ele>
        <time>2021-04-14T11:42:35Z</time>
      </trkpt>
      <trkpt lat="43.24607" lon="5.63024">
        <ele>463.6</ele>
        <time>2021-04-14T11:42:39Z</time>
      </trkpt>
      <trkpt lat="43.2461" lon="5.63031">
        <ele>463</ele>
        <time>2021-04-14T11:42:45Z</time>
      </trkpt>
      <trkpt lat="43.24614" lon="5.63036">
        <ele>462.3</ele>
        <time>2021-04-14T11:42:49Z</time>
      </trkpt>
      <trkpt lat="43.24617" lon="5.63042">
        <ele>461.8</ele>
        <time>2021-04-14T11:42:55Z</time>
      </trkpt>
      <trkpt lat="43.24618" lon="5.6305">
        <ele>462.5</ele>
        <time>2021-04-14T11:43:01Z</time>
      </trkpt>
      <trkpt lat="43.24619" lon="5.63056">
        <ele>463.2</ele>
        <time>2021-04-14T11:43:07Z</time>
      </trkpt>
      <trkpt lat="43.24621" lon="5.63063">
        <ele>463.7</ele>
        <time>2021-04-14T11:43:13Z</time>
      </trkpt>
      <trkpt lat="43.2462" lon="5.6307">
        <ele>464.9</ele>
        <time>2021-04-14T11:43:17Z</time>
      </trkpt>
      <trkpt lat="43.2462" lon="5.63077">
        <ele>466.3</ele>
        <time>2021-04-14T11:43:21Z</time>
      </trkpt>
      <trkpt lat="43.24623" lon="5.63084">
        <ele>466.3</ele>
        <time>2021-04-14T11:43:25Z</time>
      </trkpt>
      <trkpt lat="43.24623" lon="5.63091">
        <ele>465.9</ele>
        <time>2021-04-14T11:43:29Z</time>
      </trkpt>
      <trkpt lat="43.24625" lon="5.63097">
        <ele>465.2</ele>
        <time>2021-04-14T11:43:33Z</time>
      </trkpt>
      <trkpt lat="43.24628" lon="5.63103">
        <ele>464.1</ele>
        <time>2021-04-14T11:43:39Z</time>
      </trkpt>
      <trkpt lat="43.24626" lon="5.6311">
        <ele>464.4</ele>
        <time>2021-04-14T11:43:47Z</time>
      </trkpt>
      <trkpt lat="43.24622" lon="5.63117">
        <ele>465.2</ele>
        <time>2021-04-14T11:43:53Z</time>
      </trkpt>
      <trkpt lat="43.24616" lon="5.63122">
        <ele>466.5</ele>
        <time>2021-04-14T11:43:57Z</time>
      </trkpt>
      <trkpt lat="43.24616" lon="5.63129">
        <ele>466.3</ele>
        <time>2021-04-14T11:44:03Z</time>
      </trkpt>
      <trkpt lat="43.24621" lon="5.63133">
        <ele>465</ele>
        <time>2021-04-14T11:44:11Z</time>
      </trkpt>
      <trkpt lat="43.24625" lon="5.63136">
        <ele>463.8</ele>
        <time>2021-04-14T11:44:19Z</time>
      </trkpt>
      <trkpt lat="43.24631" lon="5.63137">
        <ele>462.6</ele>
        <time>2021-04-14T11:44:27Z</time>
      </trkpt>
      <trkpt lat="43.24636" lon="5.6314">
        <ele>461.4</ele>
        <time>2021-04-14T11:44:33Z</time>
      </trkpt>
      <trkpt lat="43.24642" lon="5.63143">
        <ele>460.1</ele>
        <time>2021-04-14T11:44:39Z</time>
      </trkpt>
      <trkpt lat="43.24648" lon="5.63144">
        <ele>458.9</ele>
        <time>2021-04-14T11:44:43Z</time>
      </trkpt>
      <trkpt lat="43.24652" lon="5.63148">
        <ele>458.1</ele>
        <time>2021-04-14T11:44:55Z</time>
      </trkpt>
      <trkpt lat="43.24658" lon="5.63152">
        <ele>457</ele>
        <time>2021-04-14T11:45:01Z</time>
      </trkpt>
      <trkpt lat="43.24663" lon="5.63155">
        <ele>456.1</ele>
        <time>2021-04-14T11:45:05Z</time>
      </trkpt>
      <trkpt lat="43.24669" lon="5.63157">
        <ele>455.1</ele>
        <time>2021-04-14T11:45:09Z</time>
      </trkpt>
      <trkpt lat="43.24673" lon="5.63157">
        <ele>453.9</ele>
        <time>2021-04-14T11:45:15Z</time>
      </trkpt>
      <trkpt lat="43.24678" lon="5.63158">
        <ele>452.6</ele>
        <time>2021-04-14T11:45:31Z</time>
      </trkpt>
      <trkpt lat="43.24683" lon="5.63153">
        <ele>451.2</ele>
        <time>2021-04-14T11:47:43Z</time>
      </trkpt>
      <trkpt lat="43.24688" lon="5.63151">
        <ele>449.7</ele>
        <time>2021-04-14T11:47:49Z</time>
      </trkpt>
      <trkpt lat="43.24693" lon="5.6315">
        <ele>448.4</ele>
        <time>2021-04-14T11:47:55Z</time>
      </trkpt>
      <trkpt lat="43.24695" lon="5.63144">
        <ele>447.5</ele>
        <time>2021-04-14T11:48:03Z</time>
      </trkpt>
      <trkpt lat="43.24693" lon="5.63138">
        <ele>447.6</ele>
        <time>2021-04-14T11:48:23Z</time>
      </trkpt>
      <trkpt lat="43.24696" lon="5.63132">
        <ele>446.5</ele>
        <time>2021-04-14T11:48:31Z</time>
      </trkpt>
      <trkpt lat="43.24701" lon="5.63131">
        <ele>445.1</ele>
        <time>2021-04-14T11:49:01Z</time>
      </trkpt>
      <trkpt lat="43.24707" lon="5.63135">
        <ele>443.9</ele>
        <time>2021-04-14T11:49:11Z</time>
      </trkpt>
      <trkpt lat="43.24712" lon="5.63136">
        <ele>442.6</ele>
        <time>2021-04-14T11:49:21Z</time>
      </trkpt>
      <trkpt lat="43.24716" lon="5.63134">
        <ele>441.3</ele>
        <time>2021-04-14T11:49:27Z</time>
      </trkpt>
      <trkpt lat="43.24721" lon="5.63134">
        <ele>440</ele>
        <time>2021-04-14T11:49:33Z</time>
      </trkpt>
      <trkpt lat="43.24726" lon="5.63135">
        <ele>438.8</ele>
        <time>2021-04-14T11:49:45Z</time>
      </trkpt>
      <trkpt lat="43.2473" lon="5.63135">
        <ele>437.6</ele>
        <time>2021-04-14T11:49:59Z</time>
      </trkpt>
      <trkpt lat="43.24735" lon="5.6313">
        <ele>435.9</ele>
        <time>2021-04-14T11:50:05Z</time>
      </trkpt>
      <trkpt lat="43.24741" lon="5.63126">
        <ele>434.1</ele>
        <time>2021-04-14T11:50:13Z</time>
      </trkpt>
      <trkpt lat="43.24745" lon="5.63123">
        <ele>432.6</ele>
        <time>2021-04-14T11:50:19Z</time>
      </trkpt>
      <trkpt lat="43.24749" lon="5.6312">
        <ele>431.3</ele>
        <time>2021-04-14T11:50:43Z</time>
      </trkpt>
      <trkpt lat="43.24753" lon="5.63124">
        <ele>430.4</ele>
        <time>2021-04-14T11:51:05Z</time>
      </trkpt>
      <trkpt lat="43.24757" lon="5.63128">
        <ele>429.4</ele>
        <time>2021-04-14T11:51:15Z</time>
      </trkpt>
      <trkpt lat="43.24761" lon="5.63131">
        <ele>428</ele>
        <time>2021-04-14T11:51:23Z</time>
      </trkpt>
      <trkpt lat="43.24766" lon="5.63127">
        <ele>426.2</ele>
        <time>2021-04-14T11:51:33Z</time>
      </trkpt>
      <trkpt lat="43.2477" lon="5.6313">
        <ele>424.7</ele>
        <time>2021-04-14T11:51:45Z</time>
      </trkpt>
      <trkpt lat="43.24774" lon="5.63134">
        <ele>423.6</ele>
        <time>2021-04-14T11:51:55Z</time>
      </trkpt>
      <trkpt lat="43.24778" lon="5.63139">
        <ele>422.5</ele>
        <time>2021-04-14T11:52:05Z</time>
      </trkpt>
      <trkpt lat="43.24782" lon="5.63145">
        <ele>421.3</ele>
        <time>2021-04-14T11:52:11Z</time>
      </trkpt>
      <trkpt lat="43.24787" lon="5.63147">
        <ele>419.9</ele>
        <time>2021-04-14T11:52:27Z</time>
      </trkpt>
      <trkpt lat="43.24791" lon="5.6315">
        <ele>418.5</ele>
        <time>2021-04-14T11:53:17Z</time>
      </trkpt>
      <trkpt lat="43.24796" lon="5.63151">
        <ele>416.7</ele>
        <time>2021-04-14T11:53:45Z</time>
      </trkpt>
      <trkpt lat="43.24799" lon="5.63156">
        <ele>415.8</ele>
        <time>2021-04-14T11:54:41Z</time>
      </trkpt>
      <trkpt lat="43.24796" lon="5.63151">
        <ele>416.8</ele>
        <time>2021-04-14T11:55:17Z</time>
      </trkpt>
      <trkpt lat="43.24791" lon="5.63148">
        <ele>418.3</ele>
        <time>2021-04-14T11:57:11Z</time>
      </trkpt>
      <trkpt lat="43.24787" lon="5.63146">
        <ele>419.8</ele>
        <time>2021-04-14T11:57:29Z</time>
      </trkpt>
      <trkpt lat="43.24784" lon="5.63141">
        <ele>420.6</ele>
        <time>2021-04-14T11:57:43Z</time>
      </trkpt>
      <trkpt lat="43.24781" lon="5.63135">
        <ele>421.3</ele>
        <time>2021-04-14T11:57:51Z</time>
      </trkpt>
      <trkpt lat="43.24777" lon="5.63133">
        <ele>422.7</ele>
        <time>2021-04-14T11:57:57Z</time>
      </trkpt>
      <trkpt lat="43.24775" lon="5.63127">
        <ele>423.1</ele>
        <time>2021-04-14T11:58:05Z</time>
      </trkpt>
      <trkpt lat="43.24771" lon="5.63124">
        <ele>424.1</ele>
        <time>2021-04-14T11:58:13Z</time>
      </trkpt>
      <trkpt lat="43.24765" lon="5.63125">
        <ele>426.1</ele>
        <time>2021-04-14T11:58:21Z</time>
      </trkpt>
      <trkpt lat="43.24761" lon="5.63128">
        <ele>427.9</ele>
        <time>2021-04-14T11:58:29Z</time>
      </trkpt>
      <trkpt lat="43.24757" lon="5.63127">
        <ele>429.3</ele>
        <time>2021-04-14T11:58:41Z</time>
      </trkpt>
      <trkpt lat="43.24758" lon="5.63119">
        <ele>428.4</ele>
        <time>2021-04-14T11:59:01Z</time>
      </trkpt>
      <trkpt lat="43.24754" lon="5.63114">
        <ele>429.3</ele>
        <time>2021-04-14T11:59:07Z</time>
      </trkpt>
      <trkpt lat="43.2475" lon="5.63112">
        <ele>430.5</ele>
        <time>2021-04-14T11:59:11Z</time>
      </trkpt>
      <trkpt lat="43.24743" lon="5.63114">
        <ele>432.4</ele>
        <time>2021-04-14T11:59:17Z</time>
      </trkpt>
      <trkpt lat="43.24739" lon="5.63118">
        <ele>433.9</ele>
        <time>2021-04-14T11:59:23Z</time>
      </trkpt>
      <trkpt lat="43.24736" lon="5.63124">
        <ele>435.2</ele>
        <time>2021-04-14T11:59:27Z</time>
      </trkpt>
      <trkpt lat="43.24731" lon="5.63124">
        <ele>436.5</ele>
        <time>2021-04-14T11:59:33Z</time>
      </trkpt>
      <trkpt lat="43.24726" lon="5.63126">
        <ele>438</ele>
        <time>2021-04-14T11:59:41Z</time>
      </trkpt>
      <trkpt lat="43.24722" lon="5.63128">
        <ele>439.3</ele>
        <time>2021-04-14T11:59:45Z</time>
      </trkpt>
      <trkpt lat="43.24716" lon="5.63131">
        <ele>441.1</ele>
        <time>2021-04-14T11:59:53Z</time>
      </trkpt>
      <trkpt lat="43.24711" lon="5.63128">
        <ele>442.2</ele>
        <time>2021-04-14T11:59:59Z</time>
      </trkpt>
      <trkpt lat="43.24707" lon="5.63127">
        <ele>443.4</ele>
        <time>2021-04-14T12:00:05Z</time>
      </trkpt>
      <trkpt lat="43.24702" lon="5.63125">
        <ele>444.4</ele>
        <time>2021-04-14T12:00:17Z</time>
      </trkpt>
      <trkpt lat="43.24699" lon="5.6313">
        <ele>445.6</ele>
        <time>2021-04-14T12:00:35Z</time>
      </trkpt>
      <trkpt lat="43.24702" lon="5.63135">
        <ele>445.1</ele>
        <time>2021-04-14T12:00:43Z</time>
      </trkpt>
      <trkpt lat="43.247" lon="5.63142">
        <ele>446</ele>
        <time>2021-04-14T12:01:11Z</time>
      </trkpt>
      <trkpt lat="43.24695" lon="5.63145">
        <ele>447.4</ele>
        <time>2021-04-14T12:01:19Z</time>
      </trkpt>
      <trkpt lat="43.24691" lon="5.63148">
        <ele>448.7</ele>
        <time>2021-04-14T12:01:25Z</time>
      </trkpt>
      <trkpt lat="43.24683" lon="5.63152">
        <ele>451.1</ele>
        <time>2021-04-14T12:01:31Z</time>
      </trkpt>
      <trkpt lat="43.24676" lon="5.63151">
        <ele>452.8</ele>
        <time>2021-04-14T12:02:25Z</time>
      </trkpt>
      <trkpt lat="43.24672" lon="5.63151">
        <ele>453.9</ele>
        <time>2021-04-14T12:02:39Z</time>
      </trkpt>
      <trkpt lat="43.24667" lon="5.6315">
        <ele>455.1</ele>
        <time>2021-04-14T12:03:17Z</time>
      </trkpt>
      <trkpt lat="43.24662" lon="5.63147">
        <ele>456.1</ele>
        <time>2021-04-14T12:03:29Z</time>
      </trkpt>
      <trkpt lat="43.24656" lon="5.63145">
        <ele>457.3</ele>
        <time>2021-04-14T12:03:39Z</time>
      </trkpt>
      <trkpt lat="43.24651" lon="5.63143">
        <ele>458.2</ele>
        <time>2021-04-14T12:03:49Z</time>
      </trkpt>
      <trkpt lat="43.24646" lon="5.6314">
        <ele>459.3</ele>
        <time>2021-04-14T12:04:07Z</time>
      </trkpt>
      <trkpt lat="43.24639" lon="5.63136">
        <ele>460.7</ele>
        <time>2021-04-14T12:04:19Z</time>
      </trkpt>
      <trkpt lat="43.24634" lon="5.63135">
        <ele>461.9</ele>
        <time>2021-04-14T12:04:25Z</time>
      </trkpt>
      <trkpt lat="43.2463" lon="5.63131">
        <ele>462.9</ele>
        <time>2021-04-14T12:04:33Z</time>
      </trkpt>
      <trkpt lat="43.24624" lon="5.63128">
        <ele>464.3</ele>
        <time>2021-04-14T12:06:11Z</time>
      </trkpt>
      <trkpt lat="43.2462" lon="5.63131">
        <ele>465.2</ele>
        <time>2021-04-14T12:07:13Z</time>
      </trkpt>
      <trkpt lat="43.24623" lon="5.63137">
        <ele>464.4</ele>
        <time>2021-04-14T12:08:17Z</time>
      </trkpt>
      <trkpt lat="43.24624" lon="5.63144">
        <ele>464</ele>
        <time>2021-04-14T12:08:33Z</time>
      </trkpt>
      <trkpt lat="43.24624" lon="5.6315">
        <ele>463.7</ele>
        <time>2021-04-14T12:08:41Z</time>
      </trkpt>
      <trkpt lat="43.2462" lon="5.63154">
        <ele>464.4</ele>
        <time>2021-04-14T12:08:53Z</time>
      </trkpt>
      <trkpt lat="43.24616" lon="5.63158">
        <ele>464.8</ele>
        <time>2021-04-14T12:08:59Z</time>
      </trkpt>
      <trkpt lat="43.24613" lon="5.63166">
        <ele>465</ele>
        <time>2021-04-14T12:09:07Z</time>
      </trkpt>
      <trkpt lat="43.24611" lon="5.63172">
        <ele>464</ele>
        <time>2021-04-14T12:09:15Z</time>
      </trkpt>
      <trkpt lat="43.24606" lon="5.63175">
        <ele>464.2</ele>
        <time>2021-04-14T12:09:19Z</time>
      </trkpt>
      <trkpt lat="43.24602" lon="5.6318">
        <ele>463.7</ele>
        <time>2021-04-14T12:09:27Z</time>
      </trkpt>
      <trkpt lat="43.246" lon="5.63186">
        <ele>462.7</ele>
        <time>2021-04-14T12:09:35Z</time>
      </trkpt>
      <trkpt lat="43.24598" lon="5.63192">
        <ele>461.5</ele>
        <time>2021-04-14T12:09:45Z</time>
      </trkpt>
      <trkpt lat="43.24595" lon="5.63197">
        <ele>460.9</ele>
        <time>2021-04-14T12:09:51Z</time>
      </trkpt>
      <trkpt lat="43.24593" lon="5.63203">
        <ele>459.5</ele>
        <time>2021-04-14T12:09:59Z</time>
      </trkpt>
      <trkpt lat="43.24592" lon="5.6321">
        <ele>458.1</ele>
        <time>2021-04-14T12:10:07Z</time>
      </trkpt>
      <trkpt lat="43.24588" lon="5.63214">
        <ele>457.8</ele>
        <time>2021-04-14T12:10:15Z</time>
      </trkpt>
      <trkpt lat="43.24585" lon="5.63219">
        <ele>457</ele>
        <time>2021-04-14T12:10:25Z</time>
      </trkpt>
      <trkpt lat="43.24583" lon="5.63226">
        <ele>455.7</ele>
        <time>2021-04-14T12:10:35Z</time>
      </trkpt>
      <trkpt lat="43.24581" lon="5.63232">
        <ele>454.5</ele>
        <time>2021-04-14T12:10:41Z</time>
      </trkpt>
      <trkpt lat="43.24582" lon="5.63238">
        <ele>453</ele>
        <time>2021-04-14T12:10:53Z</time>
      </trkpt>
      <trkpt lat="43.24585" lon="5.63244">
        <ele>451.1</ele>
        <time>2021-04-14T12:11:01Z</time>
      </trkpt>
      <trkpt lat="43.24589" lon="5.63247">
        <ele>449.8</ele>
        <time>2021-04-14T12:11:07Z</time>
      </trkpt>
      <trkpt lat="43.24593" lon="5.63251">
        <ele>448.2</ele>
        <time>2021-04-14T12:11:13Z</time>
      </trkpt>
      <trkpt lat="43.24597" lon="5.63254">
        <ele>446.7</ele>
        <time>2021-04-14T12:11:23Z</time>
      </trkpt>
      <trkpt lat="43.24594" lon="5.63259">
        <ele>446.2</ele>
        <time>2021-04-14T12:55:32Z</time>
      </trkpt>
      <trkpt lat="43.24591" lon="5.63253">
        <ele>448.1</ele>
        <time>2021-04-14T13:08:48Z</time>
      </trkpt>
      <trkpt lat="43.24587" lon="5.63247">
        <ele>449.9</ele>
        <time>2021-04-14T13:08:58Z</time>
      </trkpt>
      <trkpt lat="43.24584" lon="5.63243">
        <ele>451.5</ele>
        <time>2021-04-14T13:09:06Z</time>
      </trkpt>
      <trkpt lat="43.24581" lon="5.63237">
        <ele>453.3</ele>
        <time>2021-04-14T13:09:22Z</time>
      </trkpt>
      <trkpt lat="43.24576" lon="5.6324">
        <ele>453.3</ele>
        <time>2021-04-14T13:09:32Z</time>
      </trkpt>
      <trkpt lat="43.24572" lon="5.63244">
        <ele>452.8</ele>
        <time>2021-04-14T13:09:44Z</time>
      </trkpt>
      <trkpt lat="43.2457" lon="5.6325">
        <ele>451.5</ele>
        <time>2021-04-14T13:09:56Z</time>
      </trkpt>
      <trkpt lat="43.24567" lon="5.63256">
        <ele>450.6</ele>
        <time>2021-04-14T13:10:06Z</time>
      </trkpt>
      <trkpt lat="43.24563" lon="5.63262">
        <ele>450.1</ele>
        <time>2021-04-14T13:10:14Z</time>
      </trkpt>
      <trkpt lat="43.24559" lon="5.63267">
        <ele>449.6</ele>
        <time>2021-04-14T13:10:22Z</time>
      </trkpt>
      <trkpt lat="43.24554" lon="5.63272">
        <ele>449.5</ele>
        <time>2021-04-14T13:10:46Z</time>
      </trkpt>
      <trkpt lat="43.24551" lon="5.63277">
        <ele>449.2</ele>
        <time>2021-04-14T13:10:52Z</time>
      </trkpt>
      <trkpt lat="43.24545" lon="5.63279">
        <ele>449.8</ele>
        <time>2021-04-14T13:11:02Z</time>
      </trkpt>
      <trkpt lat="43.24541" lon="5.63284">
        <ele>449.9</ele>
        <time>2021-04-14T13:11:08Z</time>
      </trkpt>
      <trkpt lat="43.24539" lon="5.63289">
        <ele>449.7</ele>
        <time>2021-04-14T13:11:14Z</time>
      </trkpt>
      <trkpt lat="43.24534" lon="5.63293">
        <ele>450.1</ele>
        <time>2021-04-14T13:11:22Z</time>
      </trkpt>
      <trkpt lat="43.24529" lon="5.63297">
        <ele>450.7</ele>
        <time>2021-04-14T13:11:26Z</time>
      </trkpt>
      <trkpt lat="43.24528" lon="5.63303">
        <ele>450.3</ele>
        <time>2021-04-14T13:11:32Z</time>
      </trkpt>
      <trkpt lat="43.2453" lon="5.63311">
        <ele>449</ele>
        <time>2021-04-14T13:11:38Z</time>
      </trkpt>
      <trkpt lat="43.2453" lon="5.63317">
        <ele>448.3</ele>
        <time>2021-04-14T13:11:42Z</time>
      </trkpt>
      <trkpt lat="43.24533" lon="5.63324">
        <ele>446.5</ele>
        <time>2021-04-14T13:11:48Z</time>
      </trkpt>
      <trkpt lat="43.24537" lon="5.63329">
        <ele>444.9</ele>
        <time>2021-04-14T13:11:52Z</time>
      </trkpt>
      <trkpt lat="43.24541" lon="5.63337">
        <ele>443.4</ele>
        <time>2021-04-14T13:11:58Z</time>
      </trkpt>
      <trkpt lat="43.24545" lon="5.63343">
        <ele>442.3</ele>
        <time>2021-04-14T13:12:04Z</time>
      </trkpt>
      <trkpt lat="43.24549" lon="5.63349">
        <ele>441.1</ele>
        <time>2021-04-14T13:12:10Z</time>
      </trkpt>
      <trkpt lat="43.24552" lon="5.63353">
        <ele>440</ele>
        <time>2021-04-14T13:12:14Z</time>
      </trkpt>
      <trkpt lat="43.24556" lon="5.63358">
        <ele>438.8</ele>
        <time>2021-04-14T13:12:20Z</time>
      </trkpt>
      <trkpt lat="43.24557" lon="5.63365">
        <ele>438.5</ele>
        <time>2021-04-14T13:12:30Z</time>
      </trkpt>
      <trkpt lat="43.24557" lon="5.63371">
        <ele>438.5</ele>
        <time>2021-04-14T13:12:40Z</time>
      </trkpt>
      <trkpt lat="43.24556" lon="5.6338">
        <ele>438.6</ele>
        <time>2021-04-14T13:12:46Z</time>
      </trkpt>
      <trkpt lat="43.24556" lon="5.63388">
        <ele>438.7</ele>
        <time>2021-04-14T13:12:52Z</time>
      </trkpt>
      <trkpt lat="43.24555" lon="5.63396">
        <ele>439</ele>
        <time>2021-04-14T13:12:58Z</time>
      </trkpt>
      <trkpt lat="43.24557" lon="5.63404">
        <ele>437.9</ele>
        <time>2021-04-14T13:13:04Z</time>
      </trkpt>
      <trkpt lat="43.2456" lon="5.63409">
        <ele>436.8</ele>
        <time>2021-04-14T13:13:08Z</time>
      </trkpt>
      <trkpt lat="43.24563" lon="5.63416">
        <ele>435.3</ele>
        <time>2021-04-14T13:13:14Z</time>
      </trkpt>
      <trkpt lat="43.24566" lon="5.63422">
        <ele>434.6</ele>
        <time>2021-04-14T13:13:20Z</time>
      </trkpt>
      <trkpt lat="43.24565" lon="5.63429">
        <ele>435.3</ele>
        <time>2021-04-14T13:13:24Z</time>
      </trkpt>
      <trkpt lat="43.24564" lon="5.63435">
        <ele>436.6</ele>
        <time>2021-04-14T13:13:30Z</time>
      </trkpt>
      <trkpt lat="43.24563" lon="5.63442">
        <ele>437.5</ele>
        <time>2021-04-14T13:13:36Z</time>
      </trkpt>
      <trkpt lat="43.24562" lon="5.63449">
        <ele>438.5</ele>
        <time>2021-04-14T13:13:42Z</time>
      </trkpt>
      <trkpt lat="43.24563" lon="5.63455">
        <ele>439</ele>
        <time>2021-04-14T13:13:48Z</time>
      </trkpt>
      <trkpt lat="43.24563" lon="5.63463">
        <ele>439.8</ele>
        <time>2021-04-14T13:13:54Z</time>
      </trkpt>
      <trkpt lat="43.24563" lon="5.63469">
        <ele>440.3</ele>
        <time>2021-04-14T13:13:58Z</time>
      </trkpt>
      <trkpt lat="43.24564" lon="5.63476">
        <ele>440.6</ele>
        <time>2021-04-14T13:14:02Z</time>
      </trkpt>
      <trkpt lat="43.24566" lon="5.63483">
        <ele>440.6</ele>
        <time>2021-04-14T13:14:08Z</time>
      </trkpt>
      <trkpt lat="43.24568" lon="5.6349">
        <ele>440.6</ele>
        <time>2021-04-14T13:14:14Z</time>
      </trkpt>
      <trkpt lat="43.2457" lon="5.63499">
        <ele>440.9</ele>
        <time>2021-04-14T13:14:20Z</time>
      </trkpt>
      <trkpt lat="43.24574" lon="5.63505">
        <ele>440.9</ele>
        <time>2021-04-14T13:14:26Z</time>
      </trkpt>
      <trkpt lat="43.24579" lon="5.6351">
        <ele>440.4</ele>
        <time>2021-04-14T13:14:32Z</time>
      </trkpt>
      <trkpt lat="43.24584" lon="5.63516">
        <ele>439.9</ele>
        <time>2021-04-14T13:14:38Z</time>
      </trkpt>
      <trkpt lat="43.24587" lon="5.6352">
        <ele>439.3</ele>
        <time>2021-04-14T13:14:42Z</time>
      </trkpt>
      <trkpt lat="43.24591" lon="5.63525">
        <ele>439</ele>
        <time>2021-04-14T13:14:48Z</time>
      </trkpt>
      <trkpt lat="43.2459" lon="5.63532">
        <ele>440.6</ele>
        <time>2021-04-14T13:14:56Z</time>
      </trkpt>
      <trkpt lat="43.24591" lon="5.6354">
        <ele>442.1</ele>
        <time>2021-04-14T13:15:02Z</time>
      </trkpt>
      <trkpt lat="43.24591" lon="5.63546">
        <ele>443.1</ele>
        <time>2021-04-14T13:15:06Z</time>
      </trkpt>
      <trkpt lat="43.24593" lon="5.63554">
        <ele>443.6</ele>
        <time>2021-04-14T13:15:12Z</time>
      </trkpt>
      <trkpt lat="43.24596" lon="5.6356">
        <ele>443.5</ele>
        <time>2021-04-14T13:15:18Z</time>
      </trkpt>
      <trkpt lat="43.246" lon="5.63567">
        <ele>443</ele>
        <time>2021-04-14T13:15:24Z</time>
      </trkpt>
      <trkpt lat="43.24604" lon="5.63572">
        <ele>442.7</ele>
        <time>2021-04-14T13:15:30Z</time>
      </trkpt>
      <trkpt lat="43.24607" lon="5.63579">
        <ele>442.4</ele>
        <time>2021-04-14T13:15:36Z</time>
      </trkpt>
      <trkpt lat="43.24612" lon="5.63585">
        <ele>441.5</ele>
        <time>2021-04-14T13:15:42Z</time>
      </trkpt>
      <trkpt lat="43.24616" lon="5.63591">
        <ele>439.6</ele>
        <time>2021-04-14T13:15:48Z</time>
      </trkpt>
      <trkpt lat="43.2462" lon="5.63595">
        <ele>438</ele>
        <time>2021-04-14T13:15:54Z</time>
      </trkpt>
      <trkpt lat="43.24622" lon="5.63601">
        <ele>437.2</ele>
        <time>2021-04-14T13:16:00Z</time>
      </trkpt>
      <trkpt lat="43.24625" lon="5.63607">
        <ele>436.2</ele>
        <time>2021-04-14T13:16:06Z</time>
      </trkpt>
      <trkpt lat="43.24629" lon="5.63613">
        <ele>434.6</ele>
        <time>2021-04-14T13:16:12Z</time>
      </trkpt>
      <trkpt lat="43.24631" lon="5.63619">
        <ele>434</ele>
        <time>2021-04-14T13:16:18Z</time>
      </trkpt>
      <trkpt lat="43.24631" lon="5.63626">
        <ele>433.9</ele>
        <time>2021-04-14T13:16:24Z</time>
      </trkpt>
      <trkpt lat="43.24632" lon="5.63632">
        <ele>433.7</ele>
        <time>2021-04-14T13:16:30Z</time>
      </trkpt>
      <trkpt lat="43.24633" lon="5.63639">
        <ele>433.7</ele>
        <time>2021-04-14T13:16:36Z</time>
      </trkpt>
      <trkpt lat="43.24632" lon="5.63646">
        <ele>434</ele>
        <time>2021-04-14T13:16:42Z</time>
      </trkpt>
      <trkpt lat="43.24633" lon="5.63653">
        <ele>434.1</ele>
        <time>2021-04-14T13:16:48Z</time>
      </trkpt>
      <trkpt lat="43.24633" lon="5.6366">
        <ele>434.1</ele>
        <time>2021-04-14T13:16:54Z</time>
      </trkpt>
      <trkpt lat="43.24633" lon="5.63667">
        <ele>434.1</ele>
        <time>2021-04-14T13:17:00Z</time>
      </trkpt>
      <trkpt lat="43.24636" lon="5.63673">
        <ele>432.1</ele>
        <time>2021-04-14T13:17:06Z</time>
      </trkpt>
      <trkpt lat="43.24636" lon="5.6368">
        <ele>430.7</ele>
        <time>2021-04-14T13:17:12Z</time>
      </trkpt>
      <trkpt lat="43.24634" lon="5.63687">
        <ele>430.7</ele>
        <time>2021-04-14T13:17:18Z</time>
      </trkpt>
      <trkpt lat="43.24631" lon="5.63693">
        <ele>430.9</ele>
        <time>2021-04-14T13:17:24Z</time>
      </trkpt>
      <trkpt lat="43.24628" lon="5.63698">
        <ele>431.4</ele>
        <time>2021-04-14T13:17:30Z</time>
      </trkpt>
      <trkpt lat="43.24624" lon="5.63703">
        <ele>432.5</ele>
        <time>2021-04-14T13:17:36Z</time>
      </trkpt>
      <trkpt lat="43.24622" lon="5.63708">
        <ele>432.9</ele>
        <time>2021-04-14T13:17:42Z</time>
      </trkpt>
      <trkpt lat="43.24619" lon="5.63715">
        <ele>432.7</ele>
        <time>2021-04-14T13:17:52Z</time>
      </trkpt>
      <trkpt lat="43.24617" lon="5.63722">
        <ele>432.9</ele>
        <time>2021-04-14T13:17:58Z</time>
      </trkpt>
      <trkpt lat="43.24615" lon="5.63728">
        <ele>432.6</ele>
        <time>2021-04-14T13:18:04Z</time>
      </trkpt>
      <trkpt lat="43.24616" lon="5.63736">
        <ele>431.3</ele>
        <time>2021-04-14T13:18:10Z</time>
      </trkpt>
      <trkpt lat="43.24615" lon="5.63743">
        <ele>430.5</ele>
        <time>2021-04-14T13:18:16Z</time>
      </trkpt>
      <trkpt lat="43.24612" lon="5.6375">
        <ele>430.4</ele>
        <time>2021-04-14T13:18:22Z</time>
      </trkpt>
      <trkpt lat="43.24609" lon="5.63758">
        <ele>430.6</ele>
        <time>2021-04-14T13:18:30Z</time>
      </trkpt>
      <trkpt lat="43.24607" lon="5.63764">
        <ele>430.2</ele>
        <time>2021-04-14T13:18:36Z</time>
      </trkpt>
      <trkpt lat="43.24605" lon="5.63771">
        <ele>429.7</ele>
        <time>2021-04-14T13:18:46Z</time>
      </trkpt>
      <trkpt lat="43.24602" lon="5.63778">
        <ele>429.9</ele>
        <time>2021-04-14T13:18:52Z</time>
      </trkpt>
      <trkpt lat="43.24598" lon="5.63785">
        <ele>430.5</ele>
        <time>2021-04-14T13:19:00Z</time>
      </trkpt>
      <trkpt lat="43.24595" lon="5.63789">
        <ele>431.3</ele>
        <time>2021-04-14T13:19:04Z</time>
      </trkpt>
      <trkpt lat="43.24591" lon="5.63794">
        <ele>432.4</ele>
        <time>2021-04-14T13:19:08Z</time>
      </trkpt>
      <trkpt lat="43.24587" lon="5.63798">
        <ele>433.5</ele>
        <time>2021-04-14T13:19:12Z</time>
      </trkpt>
      <trkpt lat="43.24583" lon="5.63803">
        <ele>434.5</ele>
        <time>2021-04-14T13:19:18Z</time>
      </trkpt>
      <trkpt lat="43.2458" lon="5.63809">
        <ele>434.4</ele>
        <time>2021-04-14T13:19:24Z</time>
      </trkpt>
      <trkpt lat="43.24578" lon="5.63815">
        <ele>434</ele>
        <time>2021-04-14T13:19:32Z</time>
      </trkpt>
      <trkpt lat="43.24578" lon="5.63823">
        <ele>432.3</ele>
        <time>2021-04-14T13:19:38Z</time>
      </trkpt>
      <trkpt lat="43.2458" lon="5.6383">
        <ele>430.8</ele>
        <time>2021-04-14T13:19:42Z</time>
      </trkpt>
      <trkpt lat="43.24581" lon="5.63837">
        <ele>429</ele>
        <time>2021-04-14T13:19:48Z</time>
      </trkpt>
      <trkpt lat="43.24579" lon="5.63844">
        <ele>428</ele>
        <time>2021-04-14T13:19:54Z</time>
      </trkpt>
      <trkpt lat="43.2458" lon="5.63852">
        <ele>426.3</ele>
        <time>2021-04-14T13:20:00Z</time>
      </trkpt>
      <trkpt lat="43.24579" lon="5.6386">
        <ele>424.6</ele>
        <time>2021-04-14T13:20:06Z</time>
      </trkpt>
      <trkpt lat="43.24578" lon="5.63867">
        <ele>423.5</ele>
        <time>2021-04-14T13:20:12Z</time>
      </trkpt>
      <trkpt lat="43.24577" lon="5.63875">
        <ele>422.2</ele>
        <time>2021-04-14T13:20:18Z</time>
      </trkpt>
      <trkpt lat="43.24575" lon="5.63882">
        <ele>421.4</ele>
        <time>2021-04-14T13:20:24Z</time>
      </trkpt>
      <trkpt lat="43.24573" lon="5.6389">
        <ele>420.4</ele>
        <time>2021-04-14T13:20:30Z</time>
      </trkpt>
      <trkpt lat="43.24572" lon="5.63896">
        <ele>419.3</ele>
        <time>2021-04-14T13:20:36Z</time>
      </trkpt>
      <trkpt lat="43.2457" lon="5.63902">
        <ele>418.5</ele>
        <time>2021-04-14T13:20:46Z</time>
      </trkpt>
      <trkpt lat="43.24568" lon="5.6391">
        <ele>417.6</ele>
        <time>2021-04-14T13:20:54Z</time>
      </trkpt>
      <trkpt lat="43.24565" lon="5.63915">
        <ele>417.1</ele>
        <time>2021-04-14T13:21:00Z</time>
      </trkpt>
      <trkpt lat="43.24562" lon="5.63922">
        <ele>417.1</ele>
        <time>2021-04-14T13:21:08Z</time>
      </trkpt>
      <trkpt lat="43.24561" lon="5.63928">
        <ele>416.8</ele>
        <time>2021-04-14T13:21:14Z</time>
      </trkpt>
      <trkpt lat="43.24559" lon="5.63935">
        <ele>416.6</ele>
        <time>2021-04-14T13:21:22Z</time>
      </trkpt>
      <trkpt lat="43.24558" lon="5.63942">
        <ele>416.1</ele>
        <time>2021-04-14T13:21:30Z</time>
      </trkpt>
      <trkpt lat="43.24555" lon="5.63947">
        <ele>416.2</ele>
        <time>2021-04-14T13:21:36Z</time>
      </trkpt>
      <trkpt lat="43.24551" lon="5.63952">
        <ele>416.4</ele>
        <time>2021-04-14T13:21:44Z</time>
      </trkpt>
      <trkpt lat="43.24548" lon="5.63959">
        <ele>416.1</ele>
        <time>2021-04-14T13:24:32Z</time>
      </trkpt>
      <trkpt lat="43.24543" lon="5.63962">
        <ele>416.8</ele>
        <time>2021-04-14T13:24:38Z</time>
      </trkpt>
      <trkpt lat="43.24539" lon="5.63968">
        <ele>416.6</ele>
        <time>2021-04-14T13:24:44Z</time>
      </trkpt>
      <trkpt lat="43.24534" lon="5.63969">
        <ele>417.4</ele>
        <time>2021-04-14T13:24:48Z</time>
      </trkpt>
      <trkpt lat="43.2453" lon="5.63971">
        <ele>417.8</ele>
        <time>2021-04-14T13:24:52Z</time>
      </trkpt>
      <trkpt lat="43.24526" lon="5.63974">
        <ele>418</ele>
        <time>2021-04-14T13:24:56Z</time>
      </trkpt>
      <trkpt lat="43.24521" lon="5.63978">
        <ele>418.3</ele>
        <time>2021-04-14T13:25:00Z</time>
      </trkpt>
      <trkpt lat="43.24516" lon="5.6398">
        <ele>418.6</ele>
        <time>2021-04-14T13:25:04Z</time>
      </trkpt>
      <trkpt lat="43.24512" lon="5.63984">
        <ele>418.6</ele>
        <time>2021-04-14T13:25:14Z</time>
      </trkpt>
      <trkpt lat="43.24508" lon="5.63988">
        <ele>418.4</ele>
        <time>2021-04-14T13:25:20Z</time>
      </trkpt>
      <trkpt lat="43.24503" lon="5.63993">
        <ele>418.1</ele>
        <time>2021-04-14T13:25:24Z</time>
      </trkpt>
      <trkpt lat="43.24499" lon="5.63994">
        <ele>418.4</ele>
        <time>2021-04-14T13:25:28Z</time>
      </trkpt>
      <trkpt lat="43.24494" lon="5.63998">
        <ele>418.4</ele>
        <time>2021-04-14T13:25:34Z</time>
      </trkpt>
      <trkpt lat="43.24491" lon="5.64003">
        <ele>418.7</ele>
        <time>2021-04-14T13:25:40Z</time>
      </trkpt>
      <trkpt lat="43.24487" lon="5.64008">
        <ele>419.6</ele>
        <time>2021-04-14T13:25:46Z</time>
      </trkpt>
      <trkpt lat="43.24483" lon="5.64015">
        <ele>420.4</ele>
        <time>2021-04-14T13:25:52Z</time>
      </trkpt>
      <trkpt lat="43.24479" lon="5.64021">
        <ele>421</ele>
        <time>2021-04-14T13:25:56Z</time>
      </trkpt>
      <trkpt lat="43.24474" lon="5.64026">
        <ele>421.6</ele>
        <time>2021-04-14T13:26:02Z</time>
      </trkpt>
      <trkpt lat="43.2447" lon="5.64029">
        <ele>422.1</ele>
        <time>2021-04-14T13:26:06Z</time>
      </trkpt>
      <trkpt lat="43.24466" lon="5.64034">
        <ele>422.5</ele>
        <time>2021-04-14T13:26:12Z</time>
      </trkpt>
      <trkpt lat="43.24462" lon="5.64038">
        <ele>422.8</ele>
        <time>2021-04-14T13:26:22Z</time>
      </trkpt>
      <trkpt lat="43.24457" lon="5.6404">
        <ele>423.2</ele>
        <time>2021-04-14T13:26:30Z</time>
      </trkpt>
      <trkpt lat="43.24454" lon="5.64046">
        <ele>423.1</ele>
        <time>2021-04-14T13:26:36Z</time>
      </trkpt>
      <trkpt lat="43.24451" lon="5.64053">
        <ele>423</ele>
        <time>2021-04-14T13:26:42Z</time>
      </trkpt>
      <trkpt lat="43.24447" lon="5.64056">
        <ele>423.1</ele>
        <time>2021-04-14T13:26:48Z</time>
      </trkpt>
      <trkpt lat="43.24442" lon="5.64061">
        <ele>422.9</ele>
        <time>2021-04-14T13:26:52Z</time>
      </trkpt>
      <trkpt lat="43.24439" lon="5.64067">
        <ele>422.6</ele>
        <time>2021-04-14T13:26:58Z</time>
      </trkpt>
      <trkpt lat="43.24435" lon="5.64072">
        <ele>422.2</ele>
        <time>2021-04-14T13:27:06Z</time>
      </trkpt>
      <trkpt lat="43.24431" lon="5.64075">
        <ele>422</ele>
        <time>2021-04-14T13:27:26Z</time>
      </trkpt>
      <trkpt lat="43.24426" lon="5.64077">
        <ele>421.8</ele>
        <time>2021-04-14T13:27:32Z</time>
      </trkpt>
      <trkpt lat="43.2442" lon="5.64081">
        <ele>421.3</ele>
        <time>2021-04-14T13:27:40Z</time>
      </trkpt>
      <trkpt lat="43.24415" lon="5.64084">
        <ele>421.3</ele>
        <time>2021-04-14T13:27:44Z</time>
      </trkpt>
      <trkpt lat="43.24411" lon="5.64086">
        <ele>422</ele>
        <time>2021-04-14T13:27:48Z</time>
      </trkpt>
      <trkpt lat="43.24405" lon="5.64089">
        <ele>423</ele>
        <time>2021-04-14T13:27:52Z</time>
      </trkpt>
      <trkpt lat="43.244" lon="5.64092">
        <ele>423.9</ele>
        <time>2021-04-14T13:27:58Z</time>
      </trkpt>
      <trkpt lat="43.24395" lon="5.64096">
        <ele>424.7</ele>
        <time>2021-04-14T13:28:06Z</time>
      </trkpt>
      <trkpt lat="43.24391" lon="5.64099">
        <ele>425.3</ele>
        <time>2021-04-14T13:28:12Z</time>
      </trkpt>
      <trkpt lat="43.24385" lon="5.64103">
        <ele>426.1</ele>
        <time>2021-04-14T13:28:20Z</time>
      </trkpt>
      <trkpt lat="43.24379" lon="5.64107">
        <ele>426.7</ele>
        <time>2021-04-14T13:28:26Z</time>
      </trkpt>
      <trkpt lat="43.24374" lon="5.64111">
        <ele>427.2</ele>
        <time>2021-04-14T13:28:36Z</time>
      </trkpt>
      <trkpt lat="43.24369" lon="5.64112">
        <ele>427.6</ele>
        <time>2021-04-14T13:28:42Z</time>
      </trkpt>
      <trkpt lat="43.24365" lon="5.64114">
        <ele>428</ele>
        <time>2021-04-14T13:28:46Z</time>
      </trkpt>
      <trkpt lat="43.2436" lon="5.64118">
        <ele>428.2</ele>
        <time>2021-04-14T13:28:50Z</time>
      </trkpt>
      <trkpt lat="43.24356" lon="5.64121">
        <ele>428.5</ele>
        <time>2021-04-14T13:28:54Z</time>
      </trkpt>
      <trkpt lat="43.24351" lon="5.64123">
        <ele>428.7</ele>
        <time>2021-04-14T13:28:58Z</time>
      </trkpt>
      <trkpt lat="43.24345" lon="5.64126">
        <ele>428.9</ele>
        <time>2021-04-14T13:29:04Z</time>
      </trkpt>
      <trkpt lat="43.24341" lon="5.64129">
        <ele>429</ele>
        <time>2021-04-14T13:29:10Z</time>
      </trkpt>
      <trkpt lat="43.24336" lon="5.64135">
        <ele>428.9</ele>
        <time>2021-04-14T13:29:16Z</time>
      </trkpt>
      <trkpt lat="43.24331" lon="5.64139">
        <ele>428.9</ele>
        <time>2021-04-14T13:29:22Z</time>
      </trkpt>
      <trkpt lat="43.24327" lon="5.64138">
        <ele>429.4</ele>
        <time>2021-04-14T13:29:36Z</time>
      </trkpt>
      <trkpt lat="43.24322" lon="5.64137">
        <ele>430.1</ele>
        <time>2021-04-14T13:30:02Z</time>
      </trkpt>
      <trkpt lat="43.24318" lon="5.64133">
        <ele>430.7</ele>
        <time>2021-04-14T13:30:14Z</time>
      </trkpt>
      <trkpt lat="43.24315" lon="5.64126">
        <ele>431.5</ele>
        <time>2021-04-14T13:31:30Z</time>
      </trkpt>
      <trkpt lat="43.24315" lon="5.6412">
        <ele>431.9</ele>
        <time>2021-04-14T13:31:36Z</time>
      </trkpt>
      <trkpt lat="43.24319" lon="5.64116">
        <ele>431.7</ele>
        <time>2021-04-14T13:31:40Z</time>
      </trkpt>
      <trkpt lat="43.24323" lon="5.64112">
        <ele>431.5</ele>
        <time>2021-04-14T13:31:46Z</time>
      </trkpt>
      <trkpt lat="43.24327" lon="5.64108">
        <ele>431.3</ele>
        <time>2021-04-14T13:31:52Z</time>
      </trkpt>
      <trkpt lat="43.2433" lon="5.64103">
        <ele>431.2</ele>
        <time>2021-04-14T13:31:58Z</time>
      </trkpt>
      <trkpt lat="43.24334" lon="5.64098">
        <ele>431</ele>
        <time>2021-04-14T13:32:04Z</time>
      </trkpt>
      <trkpt lat="43.24335" lon="5.64092">
        <ele>431.2</ele>
        <time>2021-04-14T13:32:12Z</time>
      </trkpt>
      <trkpt lat="43.24336" lon="5.64085">
        <ele>431.5</ele>
        <time>2021-04-14T13:32:18Z</time>
      </trkpt>
      <trkpt lat="43.24338" lon="5.64078">
        <ele>432.5</ele>
        <time>2021-04-14T13:32:26Z</time>
      </trkpt>
      <trkpt lat="43.2434" lon="5.64071">
        <ele>433.7</ele>
        <time>2021-04-14T13:32:34Z</time>
      </trkpt>
      <trkpt lat="43.24345" lon="5.64067">
        <ele>433.8</ele>
        <time>2021-04-14T13:32:40Z</time>
      </trkpt>
      <trkpt lat="43.24348" lon="5.64062">
        <ele>434.3</ele>
        <time>2021-04-14T13:32:46Z</time>
      </trkpt>
      <trkpt lat="43.24352" lon="5.6406">
        <ele>434.1</ele>
        <time>2021-04-14T13:32:52Z</time>
      </trkpt>
      <trkpt lat="43.24356" lon="5.64056">
        <ele>434.4</ele>
        <time>2021-04-14T13:33:00Z</time>
      </trkpt>
      <trkpt lat="43.24355" lon="5.64048">
        <ele>435.9</ele>
        <time>2021-04-14T13:33:06Z</time>
      </trkpt>
      <trkpt lat="43.24357" lon="5.64042">
        <ele>436.8</ele>
        <time>2021-04-14T13:33:12Z</time>
      </trkpt>
      <trkpt lat="43.2436" lon="5.64034">
        <ele>437.8</ele>
        <time>2021-04-14T13:33:20Z</time>
      </trkpt>
      <trkpt lat="43.24361" lon="5.64027">
        <ele>438.9</ele>
        <time>2021-04-14T13:33:28Z</time>
      </trkpt>
      <trkpt lat="43.2436" lon="5.64021">
        <ele>440.2</ele>
        <time>2021-04-14T13:33:38Z</time>
      </trkpt>
      <trkpt lat="43.2436" lon="5.64015">
        <ele>441.4</ele>
        <time>2021-04-14T13:33:46Z</time>
      </trkpt>
      <trkpt lat="43.24361" lon="5.64008">
        <ele>442.5</ele>
        <time>2021-04-14T13:33:54Z</time>
      </trkpt>
      <trkpt lat="43.24362" lon="5.64001">
        <ele>443.6</ele>
        <time>2021-04-14T13:34:00Z</time>
      </trkpt>
      <trkpt lat="43.24365" lon="5.63994">
        <ele>444.1</ele>
        <time>2021-04-14T13:34:10Z</time>
      </trkpt>
      <trkpt lat="43.24366" lon="5.63987">
        <ele>445.3</ele>
        <time>2021-04-14T13:34:18Z</time>
      </trkpt>
      <trkpt lat="43.24366" lon="5.6398">
        <ele>446.6</ele>
        <time>2021-04-14T13:34:26Z</time>
      </trkpt>
      <trkpt lat="43.24369" lon="5.63975">
        <ele>446.8</ele>
        <time>2021-04-14T13:34:34Z</time>
      </trkpt>
      <trkpt lat="43.2437" lon="5.63968">
        <ele>447.8</ele>
        <time>2021-04-14T13:34:40Z</time>
      </trkpt>
      <trkpt lat="43.24372" lon="5.63962">
        <ele>448.6</ele>
        <time>2021-04-14T13:34:48Z</time>
      </trkpt>
      <trkpt lat="43.24375" lon="5.63955">
        <ele>449.1</ele>
        <time>2021-04-14T13:34:56Z</time>
      </trkpt>
      <trkpt lat="43.24375" lon="5.63948">
        <ele>450.4</ele>
        <time>2021-04-14T13:35:04Z</time>
      </trkpt>
      <trkpt lat="43.24375" lon="5.63942">
        <ele>451.5</ele>
        <time>2021-04-14T13:35:10Z</time>
      </trkpt>
      <trkpt lat="43.24377" lon="5.63936">
        <ele>452.1</ele>
        <time>2021-04-14T13:35:16Z</time>
      </trkpt>
      <trkpt lat="43.24378" lon="5.63929">
        <ele>453.2</ele>
        <time>2021-04-14T13:35:24Z</time>
      </trkpt>
      <trkpt lat="43.24374" lon="5.63924">
        <ele>454.8</ele>
        <time>2021-04-14T13:36:16Z</time>
      </trkpt>
      <trkpt lat="43.24375" lon="5.63916">
        <ele>456.3</ele>
        <time>2021-04-14T13:37:28Z</time>
      </trkpt>
      <trkpt lat="43.24377" lon="5.6391">
        <ele>457</ele>
        <time>2021-04-14T13:37:32Z</time>
      </trkpt>
      <trkpt lat="43.24377" lon="5.63902">
        <ele>458.7</ele>
        <time>2021-04-14T13:37:38Z</time>
      </trkpt>
      <trkpt lat="43.24376" lon="5.63895">
        <ele>460.5</ele>
        <time>2021-04-14T13:37:44Z</time>
      </trkpt>
      <trkpt lat="43.24378" lon="5.63889">
        <ele>461.3</ele>
        <time>2021-04-14T13:37:52Z</time>
      </trkpt>
      <trkpt lat="43.24382" lon="5.63884">
        <ele>461.7</ele>
        <time>2021-04-14T13:38:02Z</time>
      </trkpt>
      <trkpt lat="43.24384" lon="5.63878">
        <ele>462.5</ele>
        <time>2021-04-14T13:38:14Z</time>
      </trkpt>
      <trkpt lat="43.24389" lon="5.63872">
        <ele>462.9</ele>
        <time>2021-04-14T13:38:20Z</time>
      </trkpt>
      <trkpt lat="43.24392" lon="5.63865">
        <ele>464.1</ele>
        <time>2021-04-14T13:38:28Z</time>
      </trkpt>
      <trkpt lat="43.24397" lon="5.63861">
        <ele>463.9</ele>
        <time>2021-04-14T13:38:34Z</time>
      </trkpt>
      <trkpt lat="43.244" lon="5.63855">
        <ele>464.8</ele>
        <time>2021-04-14T13:38:42Z</time>
      </trkpt>
      <trkpt lat="43.24404" lon="5.63851">
        <ele>465</ele>
        <time>2021-04-14T13:38:48Z</time>
      </trkpt>
      <trkpt lat="43.24407" lon="5.63845">
        <ele>465.9</ele>
        <time>2021-04-14T13:38:56Z</time>
      </trkpt>
      <trkpt lat="43.24412" lon="5.63839">
        <ele>466.4</ele>
        <time>2021-04-14T13:39:10Z</time>
      </trkpt>
      <trkpt lat="43.24416" lon="5.63833">
        <ele>467.1</ele>
        <time>2021-04-14T13:39:20Z</time>
      </trkpt>
      <trkpt lat="43.24421" lon="5.63829">
        <ele>467.5</ele>
        <time>2021-04-14T13:39:28Z</time>
      </trkpt>
      <trkpt lat="43.24426" lon="5.63824">
        <ele>467.8</ele>
        <time>2021-04-14T13:39:36Z</time>
      </trkpt>
      <trkpt lat="43.24426" lon="5.63817">
        <ele>469.7</ele>
        <time>2021-04-14T13:39:46Z</time>
      </trkpt>
      <trkpt lat="43.24429" lon="5.63812">
        <ele>470.5</ele>
        <time>2021-04-14T13:39:52Z</time>
      </trkpt>
      <trkpt lat="43.24431" lon="5.63806">
        <ele>471.5</ele>
        <time>2021-04-14T13:39:58Z</time>
      </trkpt>
      <trkpt lat="43.24432" lon="5.638">
        <ele>472.9</ele>
        <time>2021-04-14T13:40:08Z</time>
      </trkpt>
      <trkpt lat="43.24434" lon="5.63793">
        <ele>474.1</ele>
        <time>2021-04-14T13:40:18Z</time>
      </trkpt>
      <trkpt lat="43.24437" lon="5.63786">
        <ele>475.1</ele>
        <time>2021-04-14T13:40:28Z</time>
      </trkpt>
      <trkpt lat="43.24441" lon="5.6378">
        <ele>475.7</ele>
        <time>2021-04-14T13:40:34Z</time>
      </trkpt>
      <trkpt lat="43.24444" lon="5.63775">
        <ele>476.3</ele>
        <time>2021-04-14T13:40:40Z</time>
      </trkpt>
      <trkpt lat="43.24448" lon="5.6377">
        <ele>476.9</ele>
        <time>2021-04-14T13:40:46Z</time>
      </trkpt>
      <trkpt lat="43.24448" lon="5.63763">
        <ele>478.5</ele>
        <time>2021-04-14T13:40:54Z</time>
      </trkpt>
      <trkpt lat="43.2445" lon="5.63756">
        <ele>479.6</ele>
        <time>2021-04-14T13:41:02Z</time>
      </trkpt>
      <trkpt lat="43.24454" lon="5.63749">
        <ele>480.3</ele>
        <time>2021-04-14T13:41:10Z</time>
      </trkpt>
      <trkpt lat="43.24455" lon="5.6374">
        <ele>481.1</ele>
        <time>2021-04-14T13:41:16Z</time>
      </trkpt>
      <trkpt lat="43.24458" lon="5.63734">
        <ele>481.2</ele>
        <time>2021-04-14T13:41:22Z</time>
      </trkpt>
      <trkpt lat="43.24461" lon="5.63729">
        <ele>481</ele>
        <time>2021-04-14T13:41:28Z</time>
      </trkpt>
      <trkpt lat="43.24464" lon="5.63723">
        <ele>481</ele>
        <time>2021-04-14T13:41:36Z</time>
      </trkpt>
      <trkpt lat="43.24466" lon="5.63715">
        <ele>481.6</ele>
        <time>2021-04-14T13:41:44Z</time>
      </trkpt>
      <trkpt lat="43.24469" lon="5.63709">
        <ele>481.7</ele>
        <time>2021-04-14T13:41:50Z</time>
      </trkpt>
      <trkpt lat="43.24472" lon="5.63704">
        <ele>481.4</ele>
        <time>2021-04-14T13:41:56Z</time>
      </trkpt>
      <trkpt lat="43.24474" lon="5.63699">
        <ele>481.8</ele>
        <time>2021-04-14T13:42:04Z</time>
      </trkpt>
      <trkpt lat="43.24475" lon="5.63692">
        <ele>482.6</ele>
        <time>2021-04-14T13:42:10Z</time>
      </trkpt>
      <trkpt lat="43.24474" lon="5.63684">
        <ele>483.8</ele>
        <time>2021-04-14T13:42:16Z</time>
      </trkpt>
      <trkpt lat="43.24472" lon="5.63678">
        <ele>484.8</ele>
        <time>2021-04-14T13:42:20Z</time>
      </trkpt>
      <trkpt lat="43.24473" lon="5.63672">
        <ele>485.6</ele>
        <time>2021-04-14T13:42:28Z</time>
      </trkpt>
      <trkpt lat="43.24473" lon="5.63664">
        <ele>486</ele>
        <time>2021-04-14T13:42:38Z</time>
      </trkpt>
      <trkpt lat="43.24472" lon="5.63656">
        <ele>485.7</ele>
        <time>2021-04-14T13:42:44Z</time>
      </trkpt>
      <trkpt lat="43.24469" lon="5.63648">
        <ele>485.8</ele>
        <time>2021-04-14T13:42:50Z</time>
      </trkpt>
      <trkpt lat="43.24466" lon="5.63642">
        <ele>486</ele>
        <time>2021-04-14T13:42:56Z</time>
      </trkpt>
      <trkpt lat="43.24463" lon="5.63638">
        <ele>486.4</ele>
        <time>2021-04-14T13:43:02Z</time>
      </trkpt>
      <trkpt lat="43.24458" lon="5.63638">
        <ele>487.5</ele>
        <time>2021-04-14T13:43:30Z</time>
      </trkpt>
      <trkpt lat="43.24453" lon="5.63638">
        <ele>488.6</ele>
        <time>2021-04-14T13:43:44Z</time>
      </trkpt>
      <trkpt lat="43.24448" lon="5.63639">
        <ele>489.8</ele>
        <time>2021-04-14T13:43:54Z</time>
      </trkpt>
      <trkpt lat="43.24444" lon="5.63643">
        <ele>491.1</ele>
        <time>2021-04-14T13:44:02Z</time>
      </trkpt>
      <trkpt lat="43.24439" lon="5.63645">
        <ele>492.3</ele>
        <time>2021-04-14T13:44:10Z</time>
      </trkpt>
      <trkpt lat="43.24436" lon="5.63649">
        <ele>493.4</ele>
        <time>2021-04-14T13:44:20Z</time>
      </trkpt>
      <trkpt lat="43.2443" lon="5.63653">
        <ele>494.9</ele>
        <time>2021-04-14T13:44:30Z</time>
      </trkpt>
      <trkpt lat="43.24427" lon="5.63658">
        <ele>496.1</ele>
        <time>2021-04-14T13:44:38Z</time>
      </trkpt>
      <trkpt lat="43.24423" lon="5.63663">
        <ele>497.4</ele>
        <time>2021-04-14T13:44:44Z</time>
      </trkpt>
      <trkpt lat="43.2442" lon="5.63669">
        <ele>497.9</ele>
        <time>2021-04-14T13:44:52Z</time>
      </trkpt>
      <trkpt lat="43.24417" lon="5.63674">
        <ele>498</ele>
        <time>2021-04-14T13:44:58Z</time>
      </trkpt>
      <trkpt lat="43.24414" lon="5.63678">
        <ele>497.9</ele>
        <time>2021-04-14T13:45:04Z</time>
      </trkpt>
      <trkpt lat="43.24411" lon="5.63683">
        <ele>497.7</ele>
        <time>2021-04-14T13:45:12Z</time>
      </trkpt>
      <trkpt lat="43.24407" lon="5.63684">
        <ele>498</ele>
        <time>2021-04-14T13:45:18Z</time>
      </trkpt>
      <trkpt lat="43.24401" lon="5.63686">
        <ele>498.4</ele>
        <time>2021-04-14T13:45:24Z</time>
      </trkpt>
      <trkpt lat="43.24397" lon="5.63688">
        <ele>498.8</ele>
        <time>2021-04-14T13:45:32Z</time>
      </trkpt>
      <trkpt lat="43.24391" lon="5.63688">
        <ele>499.3</ele>
        <time>2021-04-14T13:45:40Z</time>
      </trkpt>
      <trkpt lat="43.24386" lon="5.63684">
        <ele>500.3</ele>
        <time>2021-04-14T13:45:48Z</time>
      </trkpt>
      <trkpt lat="43.24383" lon="5.6368">
        <ele>501.3</ele>
        <time>2021-04-14T13:46:04Z</time>
      </trkpt>
      <trkpt lat="43.24379" lon="5.63677">
        <ele>502.2</ele>
        <time>2021-04-14T13:46:12Z</time>
      </trkpt>
      <trkpt lat="43.24375" lon="5.63674">
        <ele>503</ele>
        <time>2021-04-14T13:46:18Z</time>
      </trkpt>
      <trkpt lat="43.24372" lon="5.6367">
        <ele>504</ele>
        <time>2021-04-14T13:46:26Z</time>
      </trkpt>
      <trkpt lat="43.24369" lon="5.63664">
        <ele>504.8</ele>
        <time>2021-04-14T13:46:34Z</time>
      </trkpt>
      <trkpt lat="43.24364" lon="5.63658">
        <ele>505.5</ele>
        <time>2021-04-14T13:46:42Z</time>
      </trkpt>
      <trkpt lat="43.2436" lon="5.63655">
        <ele>506.1</ele>
        <time>2021-04-14T13:46:48Z</time>
      </trkpt>
      <trkpt lat="43.2436" lon="5.63648">
        <ele>506.3</ele>
        <time>2021-04-14T13:46:56Z</time>
      </trkpt>
      <trkpt lat="43.24364" lon="5.63644">
        <ele>505.8</ele>
        <time>2021-04-14T13:48:40Z</time>
      </trkpt>
      <trkpt lat="43.24359" lon="5.63645">
        <ele>506.5</ele>
        <time>2021-04-14T13:49:26Z</time>
      </trkpt>
      <trkpt lat="43.24362" lon="5.6364">
        <ele>506.1</ele>
        <time>2021-04-14T13:49:40Z</time>
      </trkpt>
      <trkpt lat="43.24365" lon="5.63634">
        <ele>505.7</ele>
        <time>2021-04-14T13:49:48Z</time>
      </trkpt>
      <trkpt lat="43.24368" lon="5.63627">
        <ele>505.4</ele>
        <time>2021-04-14T13:49:54Z</time>
      </trkpt>
      <trkpt lat="43.24368" lon="5.63619">
        <ele>505.4</ele>
        <time>2021-04-14T13:50:00Z</time>
      </trkpt>
      <trkpt lat="43.24366" lon="5.6361">
        <ele>505.9</ele>
        <time>2021-04-14T13:50:06Z</time>
      </trkpt>
      <trkpt lat="43.24366" lon="5.63602">
        <ele>506.2</ele>
        <time>2021-04-14T13:50:12Z</time>
      </trkpt>
      <trkpt lat="43.24366" lon="5.63594">
        <ele>506.3</ele>
        <time>2021-04-14T13:50:18Z</time>
      </trkpt>
      <trkpt lat="43.24364" lon="5.63588">
        <ele>506.8</ele>
        <time>2021-04-14T13:50:22Z</time>
      </trkpt>
      <trkpt lat="43.24364" lon="5.6358">
        <ele>506.7</ele>
        <time>2021-04-14T13:50:28Z</time>
      </trkpt>
      <trkpt lat="43.24363" lon="5.63573">
        <ele>506.5</ele>
        <time>2021-04-14T13:50:34Z</time>
      </trkpt>
      <trkpt lat="43.24364" lon="5.63566">
        <ele>505.8</ele>
        <time>2021-04-14T13:50:40Z</time>
      </trkpt>
      <trkpt lat="43.24364" lon="5.63557">
        <ele>505.4</ele>
        <time>2021-04-14T13:50:46Z</time>
      </trkpt>
      <trkpt lat="43.24364" lon="5.63548">
        <ele>504.9</ele>
        <time>2021-04-14T13:50:52Z</time>
      </trkpt>
      <trkpt lat="43.24364" lon="5.63539">
        <ele>504.4</ele>
        <time>2021-04-14T13:50:58Z</time>
      </trkpt>
      <trkpt lat="43.24363" lon="5.63533">
        <ele>504.1</ele>
        <time>2021-04-14T13:51:02Z</time>
      </trkpt>
      <trkpt lat="43.24363" lon="5.63526">
        <ele>503.8</ele>
        <time>2021-04-14T13:51:06Z</time>
      </trkpt>
      <trkpt lat="43.24363" lon="5.6352">
        <ele>503.5</ele>
        <time>2021-04-14T13:51:10Z</time>
      </trkpt>
      <trkpt lat="43.24362" lon="5.63514">
        <ele>503.3</ele>
        <time>2021-04-14T13:51:14Z</time>
      </trkpt>
      <trkpt lat="43.24361" lon="5.63508">
        <ele>503.1</ele>
        <time>2021-04-14T13:51:18Z</time>
      </trkpt>
      <trkpt lat="43.24361" lon="5.63498">
        <ele>502.5</ele>
        <time>2021-04-14T13:51:24Z</time>
      </trkpt>
      <trkpt lat="43.2436" lon="5.6349">
        <ele>501.8</ele>
        <time>2021-04-14T13:51:30Z</time>
      </trkpt>
      <trkpt lat="43.24359" lon="5.63483">
        <ele>501.2</ele>
        <time>2021-04-14T13:51:36Z</time>
      </trkpt>
      <trkpt lat="43.24357" lon="5.63475">
        <ele>500.5</ele>
        <time>2021-04-14T13:51:42Z</time>
      </trkpt>
      <trkpt lat="43.24354" lon="5.63467">
        <ele>500.2</ele>
        <time>2021-04-14T13:51:48Z</time>
      </trkpt>
      <trkpt lat="43.24351" lon="5.63462">
        <ele>500.1</ele>
        <time>2021-04-14T13:51:52Z</time>
      </trkpt>
      <trkpt lat="43.24346" lon="5.63456">
        <ele>500.2</ele>
        <time>2021-04-14T13:51:58Z</time>
      </trkpt>
      <trkpt lat="43.24342" lon="5.63451">
        <ele>500.4</ele>
        <time>2021-04-14T13:52:04Z</time>
      </trkpt>
      <trkpt lat="43.24336" lon="5.63445">
        <ele>500.5</ele>
        <time>2021-04-14T13:52:10Z</time>
      </trkpt>
      <trkpt lat="43.24333" lon="5.63441">
        <ele>500.4</ele>
        <time>2021-04-14T13:52:14Z</time>
      </trkpt>
      <trkpt lat="43.24329" lon="5.63436">
        <ele>499.5</ele>
        <time>2021-04-14T13:52:18Z</time>
      </trkpt>
      <trkpt lat="43.24326" lon="5.63429">
        <ele>498.2</ele>
        <time>2021-04-14T13:52:24Z</time>
      </trkpt>
      <trkpt lat="43.24321" lon="5.63423">
        <ele>496.9</ele>
        <time>2021-04-14T13:52:30Z</time>
      </trkpt>
      <trkpt lat="43.24317" lon="5.63418">
        <ele>495.8</ele>
        <time>2021-04-14T13:52:36Z</time>
      </trkpt>
      <trkpt lat="43.24312" lon="5.63413">
        <ele>494.8</ele>
        <time>2021-04-14T13:52:42Z</time>
      </trkpt>
      <trkpt lat="43.24309" lon="5.63405">
        <ele>493.9</ele>
        <time>2021-04-14T13:52:48Z</time>
      </trkpt>
      <trkpt lat="43.24307" lon="5.63397">
        <ele>493.1</ele>
        <time>2021-04-14T13:52:54Z</time>
      </trkpt>
      <trkpt lat="43.24305" lon="5.63388">
        <ele>492.3</ele>
        <time>2021-04-14T13:53:00Z</time>
      </trkpt>
      <trkpt lat="43.24305" lon="5.63382">
        <ele>491.7</ele>
        <time>2021-04-14T13:53:04Z</time>
      </trkpt>
      <trkpt lat="43.24303" lon="5.63373">
        <ele>490.8</ele>
        <time>2021-04-14T13:53:10Z</time>
      </trkpt>
      <trkpt lat="43.24303" lon="5.63365">
        <ele>490.1</ele>
        <time>2021-04-14T13:53:16Z</time>
      </trkpt>
      <trkpt lat="43.24302" lon="5.63358">
        <ele>489.5</ele>
        <time>2021-04-14T13:53:20Z</time>
      </trkpt>
      <trkpt lat="43.24301" lon="5.63349">
        <ele>488.6</ele>
        <time>2021-04-14T13:53:26Z</time>
      </trkpt>
      <trkpt lat="43.243" lon="5.6334">
        <ele>487.8</ele>
        <time>2021-04-14T13:53:32Z</time>
      </trkpt>
      <trkpt lat="43.24299" lon="5.63331">
        <ele>487.1</ele>
        <time>2021-04-14T13:53:38Z</time>
      </trkpt>
      <trkpt lat="43.24299" lon="5.63325">
        <ele>487</ele>
        <time>2021-04-14T13:53:42Z</time>
      </trkpt>
      <trkpt lat="43.24299" lon="5.63316">
        <ele>486.9</ele>
        <time>2021-04-14T13:53:48Z</time>
      </trkpt>
      <trkpt lat="43.24298" lon="5.63308">
        <ele>486.8</ele>
        <time>2021-04-14T13:53:54Z</time>
      </trkpt>
      <trkpt lat="43.24297" lon="5.63301">
        <ele>486.7</ele>
        <time>2021-04-14T13:53:58Z</time>
      </trkpt>
      <trkpt lat="43.24295" lon="5.63296">
        <ele>486.5</ele>
        <time>2021-04-14T13:54:02Z</time>
      </trkpt>
      <trkpt lat="43.24294" lon="5.6329">
        <ele>486.4</ele>
        <time>2021-04-14T13:54:06Z</time>
      </trkpt>
      <trkpt lat="43.24293" lon="5.63283">
        <ele>486.3</ele>
        <time>2021-04-14T13:54:10Z</time>
      </trkpt>
      <trkpt lat="43.24291" lon="5.63278">
        <ele>486.1</ele>
        <time>2021-04-14T13:54:14Z</time>
      </trkpt>
      <trkpt lat="43.24287" lon="5.63271">
        <ele>485.9</ele>
        <time>2021-04-14T13:54:20Z</time>
      </trkpt>
      <trkpt lat="43.24285" lon="5.63264">
        <ele>485.7</ele>
        <time>2021-04-14T13:54:26Z</time>
      </trkpt>
      <trkpt lat="43.24281" lon="5.63257">
        <ele>485.5</ele>
        <time>2021-04-14T13:54:32Z</time>
      </trkpt>
      <trkpt lat="43.24278" lon="5.63251">
        <ele>485.3</ele>
        <time>2021-04-14T13:54:36Z</time>
      </trkpt>
      <trkpt lat="43.24275" lon="5.63243">
        <ele>485</ele>
        <time>2021-04-14T13:54:40Z</time>
      </trkpt>
      <trkpt lat="43.24273" lon="5.63235">
        <ele>484.6</ele>
        <time>2021-04-14T13:54:46Z</time>
      </trkpt>
      <trkpt lat="43.24272" lon="5.63228">
        <ele>484.3</ele>
        <time>2021-04-14T13:54:52Z</time>
      </trkpt>
      <trkpt lat="43.2427" lon="5.6322">
        <ele>484</ele>
        <time>2021-04-14T13:54:58Z</time>
      </trkpt>
      <trkpt lat="43.24269" lon="5.63213">
        <ele>483.7</ele>
        <time>2021-04-14T13:55:02Z</time>
      </trkpt>
      <trkpt lat="43.24268" lon="5.63207">
        <ele>483.5</ele>
        <time>2021-04-14T13:55:06Z</time>
      </trkpt>
      <trkpt lat="43.24265" lon="5.63202">
        <ele>483.2</ele>
        <time>2021-04-14T13:55:10Z</time>
      </trkpt>
      <trkpt lat="43.24262" lon="5.63195">
        <ele>483</ele>
        <time>2021-04-14T13:55:14Z</time>
      </trkpt>
      <trkpt lat="43.2426" lon="5.6319">
        <ele>482.8</ele>
        <time>2021-04-14T13:55:18Z</time>
      </trkpt>
      <trkpt lat="43.24258" lon="5.63182">
        <ele>482.5</ele>
        <time>2021-04-14T13:55:24Z</time>
      </trkpt>
      <trkpt lat="43.24257" lon="5.63176">
        <ele>482.3</ele>
        <time>2021-04-14T13:55:28Z</time>
      </trkpt>
      <trkpt lat="43.24254" lon="5.63169">
        <ele>482.1</ele>
        <time>2021-04-14T13:55:32Z</time>
      </trkpt>
      <trkpt lat="43.24251" lon="5.63164">
        <ele>481.8</ele>
        <time>2021-04-14T13:55:36Z</time>
      </trkpt>
      <trkpt lat="43.24249" lon="5.63157">
        <ele>481.2</ele>
        <time>2021-04-14T13:55:40Z</time>
      </trkpt>
      <trkpt lat="43.24247" lon="5.6315">
        <ele>480.5</ele>
        <time>2021-04-14T13:55:46Z</time>
      </trkpt>
      <trkpt lat="43.24245" lon="5.63141">
        <ele>479.7</ele>
        <time>2021-04-14T13:55:52Z</time>
      </trkpt>
      <trkpt lat="43.24243" lon="5.63134">
        <ele>479</ele>
        <time>2021-04-14T13:55:56Z</time>
      </trkpt>
      <trkpt lat="43.24242" lon="5.63128">
        <ele>478.4</ele>
        <time>2021-04-14T13:56:00Z</time>
      </trkpt>
      <trkpt lat="43.24241" lon="5.6312">
        <ele>477.7</ele>
        <time>2021-04-14T13:56:06Z</time>
      </trkpt>
      <trkpt lat="43.24241" lon="5.63112">
        <ele>477.1</ele>
        <time>2021-04-14T13:56:12Z</time>
      </trkpt>
      <trkpt lat="43.24242" lon="5.63105">
        <ele>476.6</ele>
        <time>2021-04-14T13:56:16Z</time>
      </trkpt>
      <trkpt lat="43.24243" lon="5.63098">
        <ele>476</ele>
        <time>2021-04-14T13:56:22Z</time>
      </trkpt>
      <trkpt lat="43.2424" lon="5.63091">
        <ele>475.4</ele>
        <time>2021-04-14T13:56:26Z</time>
      </trkpt>
      <trkpt lat="43.24239" lon="5.63085">
        <ele>474.9</ele>
        <time>2021-04-14T13:56:30Z</time>
      </trkpt>
      <trkpt lat="43.24238" lon="5.63076">
        <ele>473.9</ele>
        <time>2021-04-14T13:56:36Z</time>
      </trkpt>
      <trkpt lat="43.24237" lon="5.63069">
        <ele>473.1</ele>
        <time>2021-04-14T13:56:42Z</time>
      </trkpt>
      <trkpt lat="43.24237" lon="5.63062">
        <ele>472.5</ele>
        <time>2021-04-14T13:56:48Z</time>
      </trkpt>
      <trkpt lat="43.24236" lon="5.63054">
        <ele>471.5</ele>
        <time>2021-04-14T13:56:54Z</time>
      </trkpt>
      <trkpt lat="43.24235" lon="5.63046">
        <ele>470.7</ele>
        <time>2021-04-14T13:57:00Z</time>
      </trkpt>
      <trkpt lat="43.24234" lon="5.63038">
        <ele>469.7</ele>
        <time>2021-04-14T13:57:06Z</time>
      </trkpt>
      <trkpt lat="43.24235" lon="5.6303">
        <ele>468.9</ele>
        <time>2021-04-14T13:57:12Z</time>
      </trkpt>
      <trkpt lat="43.24236" lon="5.63023">
        <ele>468.3</ele>
        <time>2021-04-14T13:57:18Z</time>
      </trkpt>
      <trkpt lat="43.24238" lon="5.63016">
        <ele>467.7</ele>
        <time>2021-04-14T13:57:24Z</time>
      </trkpt>
      <trkpt lat="43.24242" lon="5.63009">
        <ele>467.2</ele>
        <time>2021-04-14T13:57:30Z</time>
      </trkpt>
      <trkpt lat="43.24242" lon="5.63001">
        <ele>466.4</ele>
        <time>2021-04-14T13:57:36Z</time>
      </trkpt>
      <trkpt lat="43.24243" lon="5.62994">
        <ele>465.7</ele>
        <time>2021-04-14T13:57:42Z</time>
      </trkpt>
      <trkpt lat="43.24245" lon="5.62986">
        <ele>465.1</ele>
        <time>2021-04-14T13:57:48Z</time>
      </trkpt>
      <trkpt lat="43.24248" lon="5.62979">
        <ele>464.7</ele>
        <time>2021-04-14T13:57:54Z</time>
      </trkpt>
      <trkpt lat="43.24249" lon="5.6297">
        <ele>464</ele>
        <time>2021-04-14T13:58:00Z</time>
      </trkpt>
      <trkpt lat="43.24251" lon="5.62962">
        <ele>463.3</ele>
        <time>2021-04-14T13:58:06Z</time>
      </trkpt>
      <trkpt lat="43.24252" lon="5.62955">
        <ele>462.6</ele>
        <time>2021-04-14T13:58:10Z</time>
      </trkpt>
      <trkpt lat="43.24254" lon="5.62947">
        <ele>461.7</ele>
        <time>2021-04-14T13:58:16Z</time>
      </trkpt>
      <trkpt lat="43.24256" lon="5.62941">
        <ele>460.9</ele>
        <time>2021-04-14T13:58:20Z</time>
      </trkpt>
      <trkpt lat="43.24258" lon="5.62934">
        <ele>460.2</ele>
        <time>2021-04-14T13:58:24Z</time>
      </trkpt>
      <trkpt lat="43.24261" lon="5.62927">
        <ele>459.2</ele>
        <time>2021-04-14T13:58:30Z</time>
      </trkpt>
      <trkpt lat="43.24264" lon="5.62919">
        <ele>458.3</ele>
        <time>2021-04-14T13:58:36Z</time>
      </trkpt>
      <trkpt lat="43.24265" lon="5.62913">
        <ele>457.8</ele>
        <time>2021-04-14T13:58:40Z</time>
      </trkpt>
      <trkpt lat="43.24266" lon="5.62906">
        <ele>457.5</ele>
        <time>2021-04-14T13:58:44Z</time>
      </trkpt>
      <trkpt lat="43.24266" lon="5.629">
        <ele>457.3</ele>
        <time>2021-04-14T13:58:48Z</time>
      </trkpt>
      <trkpt lat="43.24267" lon="5.62892">
        <ele>456.9</ele>
        <time>2021-04-14T13:58:54Z</time>
      </trkpt>
      <trkpt lat="43.24268" lon="5.62883">
        <ele>456.6</ele>
        <time>2021-04-14T13:59:00Z</time>
      </trkpt>
      <trkpt lat="43.2427" lon="5.62878">
        <ele>456.2</ele>
        <time>2021-04-14T13:59:04Z</time>
      </trkpt>
      <trkpt lat="43.24272" lon="5.62872">
        <ele>455.9</ele>
        <time>2021-04-14T13:59:08Z</time>
      </trkpt>
      <trkpt lat="43.24274" lon="5.62866">
        <ele>455.6</ele>
        <time>2021-04-14T13:59:12Z</time>
      </trkpt>
      <trkpt lat="43.24277" lon="5.6286">
        <ele>455.2</ele>
        <time>2021-04-14T13:59:16Z</time>
      </trkpt>
      <trkpt lat="43.2428" lon="5.62852">
        <ele>454.8</ele>
        <time>2021-04-14T13:59:22Z</time>
      </trkpt>
      <trkpt lat="43.24282" lon="5.62845">
        <ele>454.4</ele>
        <time>2021-04-14T13:59:28Z</time>
      </trkpt>
      <trkpt lat="43.24283" lon="5.62838">
        <ele>454.1</ele>
        <time>2021-04-14T13:59:32Z</time>
      </trkpt>
      <trkpt lat="43.24284" lon="5.62831">
        <ele>454</ele>
        <time>2021-04-14T13:59:36Z</time>
      </trkpt>
      <trkpt lat="43.24282" lon="5.62822">
        <ele>454.1</ele>
        <time>2021-04-14T13:59:42Z</time>
      </trkpt>
      <trkpt lat="43.2428" lon="5.62814">
        <ele>454.3</ele>
        <time>2021-04-14T13:59:48Z</time>
      </trkpt>
      <trkpt lat="43.24278" lon="5.62806">
        <ele>454.6</ele>
        <time>2021-04-14T13:59:54Z</time>
      </trkpt>
      <trkpt lat="43.24273" lon="5.628">
        <ele>455.1</ele>
        <time>2021-04-14T14:00:00Z</time>
      </trkpt>
      <trkpt lat="43.24271" lon="5.62795">
        <ele>455.5</ele>
        <time>2021-04-14T14:00:04Z</time>
      </trkpt>
      <trkpt lat="43.24267" lon="5.6279">
        <ele>456</ele>
        <time>2021-04-14T14:00:08Z</time>
      </trkpt>
      <trkpt lat="43.24262" lon="5.62787">
        <ele>456.6</ele>
        <time>2021-04-14T14:00:12Z</time>
      </trkpt>
      <trkpt lat="43.24258" lon="5.62784">
        <ele>457.3</ele>
        <time>2021-04-14T14:00:16Z</time>
      </trkpt>
      <trkpt lat="43.24255" lon="5.62779">
        <ele>457.9</ele>
        <time>2021-04-14T14:00:20Z</time>
      </trkpt>
      <trkpt lat="43.24251" lon="5.62772">
        <ele>458.7</ele>
        <time>2021-04-14T14:00:26Z</time>
      </trkpt>
      <trkpt lat="43.24248" lon="5.62764">
        <ele>459.1</ele>
        <time>2021-04-14T14:00:32Z</time>
      </trkpt>
      <trkpt lat="43.24245" lon="5.62759">
        <ele>459</ele>
        <time>2021-04-14T14:00:36Z</time>
      </trkpt>
      <trkpt lat="43.24241" lon="5.62754">
        <ele>458.9</ele>
        <time>2021-04-14T14:00:40Z</time>
      </trkpt>
      <trkpt lat="43.24238" lon="5.62749">
        <ele>458.8</ele>
        <time>2021-04-14T14:00:44Z</time>
      </trkpt>
      <trkpt lat="43.24234" lon="5.62742">
        <ele>458.3</ele>
        <time>2021-04-14T14:00:50Z</time>
      </trkpt>
      <trkpt lat="43.24231" lon="5.62734">
        <ele>457.9</ele>
        <time>2021-04-14T14:00:56Z</time>
      </trkpt>
      <trkpt lat="43.24228" lon="5.62727">
        <ele>457.6</ele>
        <time>2021-04-14T14:01:02Z</time>
      </trkpt>
      <trkpt lat="43.24225" lon="5.6272">
        <ele>457.2</ele>
        <time>2021-04-14T14:01:08Z</time>
      </trkpt>
      <trkpt lat="43.24223" lon="5.62713">
        <ele>456.9</ele>
        <time>2021-04-14T14:01:14Z</time>
      </trkpt>
      <trkpt lat="43.24219" lon="5.62708">
        <ele>456.6</ele>
        <time>2021-04-14T14:01:18Z</time>
      </trkpt>
      <trkpt lat="43.24213" lon="5.62703">
        <ele>456.1</ele>
        <time>2021-04-14T14:01:24Z</time>
      </trkpt>
      <trkpt lat="43.2421" lon="5.62699">
        <ele>455.8</ele>
        <time>2021-04-14T14:01:28Z</time>
      </trkpt>
      <trkpt lat="43.24206" lon="5.62694">
        <ele>455.5</ele>
        <time>2021-04-14T14:01:32Z</time>
      </trkpt>
      <trkpt lat="43.24202" lon="5.62689">
        <ele>455.2</ele>
        <time>2021-04-14T14:01:36Z</time>
      </trkpt>
      <trkpt lat="43.24198" lon="5.62685">
        <ele>454.9</ele>
        <time>2021-04-14T14:01:40Z</time>
      </trkpt>
      <trkpt lat="43.24194" lon="5.62679">
        <ele>454.6</ele>
        <time>2021-04-14T14:01:46Z</time>
      </trkpt>
      <trkpt lat="43.2419" lon="5.62673">
        <ele>454.4</ele>
        <time>2021-04-14T14:01:52Z</time>
      </trkpt>
      <trkpt lat="43.24186" lon="5.62668">
        <ele>454.2</ele>
        <time>2021-04-14T14:01:58Z</time>
      </trkpt>
      <trkpt lat="43.24184" lon="5.62662">
        <ele>453.7</ele>
        <time>2021-04-14T14:02:02Z</time>
      </trkpt>
      <trkpt lat="43.2418" lon="5.62654">
        <ele>453.1</ele>
        <time>2021-04-14T14:02:08Z</time>
      </trkpt>
      <trkpt lat="43.24178" lon="5.62647">
        <ele>452.6</ele>
        <time>2021-04-14T14:02:12Z</time>
      </trkpt>
      <trkpt lat="43.24176" lon="5.62641">
        <ele>452.2</ele>
        <time>2021-04-14T14:02:16Z</time>
      </trkpt>
      <trkpt lat="43.24174" lon="5.62633">
        <ele>451.7</ele>
        <time>2021-04-14T14:02:22Z</time>
      </trkpt>
      <trkpt lat="43.24173" lon="5.62625">
        <ele>451.2</ele>
        <time>2021-04-14T14:02:28Z</time>
      </trkpt>
      <trkpt lat="43.24172" lon="5.62619">
        <ele>450.8</ele>
        <time>2021-04-14T14:02:32Z</time>
      </trkpt>
      <trkpt lat="43.24172" lon="5.62609">
        <ele>450.3</ele>
        <time>2021-04-14T14:02:38Z</time>
      </trkpt>
      <trkpt lat="43.2417" lon="5.62601">
        <ele>449.9</ele>
        <time>2021-04-14T14:02:44Z</time>
      </trkpt>
      <trkpt lat="43.24171" lon="5.62593">
        <ele>449.5</ele>
        <time>2021-04-14T14:02:50Z</time>
      </trkpt>
      <trkpt lat="43.24169" lon="5.62585">
        <ele>449.1</ele>
        <time>2021-04-14T14:02:56Z</time>
      </trkpt>
      <trkpt lat="43.2417" lon="5.62576">
        <ele>448.3</ele>
        <time>2021-04-14T14:03:02Z</time>
      </trkpt>
      <trkpt lat="43.2417" lon="5.62568">
        <ele>447.6</ele>
        <time>2021-04-14T14:03:08Z</time>
      </trkpt>
      <trkpt lat="43.2417" lon="5.6256">
        <ele>447</ele>
        <time>2021-04-14T14:03:12Z</time>
      </trkpt>
      <trkpt lat="43.2417" lon="5.62553">
        <ele>446.3</ele>
        <time>2021-04-14T14:03:16Z</time>
      </trkpt>
      <trkpt lat="43.24168" lon="5.62546">
        <ele>445.8</ele>
        <time>2021-04-14T14:03:20Z</time>
      </trkpt>
      <trkpt lat="43.24166" lon="5.62539">
        <ele>445.3</ele>
        <time>2021-04-14T14:03:24Z</time>
      </trkpt>
      <trkpt lat="43.24165" lon="5.62531">
        <ele>444.5</ele>
        <time>2021-04-14T14:03:30Z</time>
      </trkpt>
      <trkpt lat="43.24165" lon="5.62523">
        <ele>443.8</ele>
        <time>2021-04-14T14:03:36Z</time>
      </trkpt>
      <trkpt lat="43.24163" lon="5.62514">
        <ele>443</ele>
        <time>2021-04-14T14:03:42Z</time>
      </trkpt>
      <trkpt lat="43.24163" lon="5.62507">
        <ele>442.4</ele>
        <time>2021-04-14T14:03:46Z</time>
      </trkpt>
      <trkpt lat="43.24165" lon="5.62501">
        <ele>441.9</ele>
        <time>2021-04-14T14:03:50Z</time>
      </trkpt>
      <trkpt lat="43.24165" lon="5.62494">
        <ele>442.1</ele>
        <time>2021-04-14T14:03:54Z</time>
      </trkpt>
      <trkpt lat="43.24167" lon="5.62486">
        <ele>442.5</ele>
        <time>2021-04-14T14:04:00Z</time>
      </trkpt>
      <trkpt lat="43.24168" lon="5.62479">
        <ele>442.6</ele>
        <time>2021-04-14T14:04:04Z</time>
      </trkpt>
      <trkpt lat="43.24168" lon="5.62471">
        <ele>442.9</ele>
        <time>2021-04-14T14:04:10Z</time>
      </trkpt>
      <trkpt lat="43.24169" lon="5.62463">
        <ele>443.1</ele>
        <time>2021-04-14T14:04:16Z</time>
      </trkpt>
      <trkpt lat="43.24168" lon="5.62456">
        <ele>443.4</ele>
        <time>2021-04-14T14:04:22Z</time>
      </trkpt>
      <trkpt lat="43.24165" lon="5.62452">
        <ele>443.6</ele>
        <time>2021-04-14T14:04:30Z</time>
      </trkpt>
      <trkpt lat="43.2416" lon="5.6245">
        <ele>443.2</ele>
        <time>2021-04-14T14:04:40Z</time>
      </trkpt>
      <trkpt lat="43.24157" lon="5.62445">
        <ele>443.1</ele>
        <time>2021-04-14T14:04:52Z</time>
      </trkpt>
      <trkpt lat="43.24152" lon="5.62447">
        <ele>442.6</ele>
        <time>2021-04-14T14:06:10Z</time>
      </trkpt>
      <trkpt lat="43.24148" lon="5.62444">
        <ele>442.3</ele>
        <time>2021-04-14T14:07:50Z</time>
      </trkpt>
      <trkpt lat="43.24143" lon="5.6244">
        <ele>441.9</ele>
        <time>2021-04-14T14:09:08Z</time>
      </trkpt>
      <trkpt lat="43.24138" lon="5.6244">
        <ele>441.5</ele>
        <time>2021-04-14T14:09:14Z</time>
      </trkpt>
      <trkpt lat="43.24133" lon="5.62442">
        <ele>440.9</ele>
        <time>2021-04-14T14:09:20Z</time>
      </trkpt>
      <trkpt lat="43.24128" lon="5.62444">
        <ele>440.4</ele>
        <time>2021-04-14T14:09:28Z</time>
      </trkpt>
      <trkpt lat="43.24122" lon="5.62446">
        <ele>439.9</ele>
        <time>2021-04-14T14:09:36Z</time>
      </trkpt>
      <trkpt lat="43.24117" lon="5.62447">
        <ele>439.4</ele>
        <time>2021-04-14T14:09:42Z</time>
      </trkpt>
      <trkpt lat="43.24113" lon="5.62448">
        <ele>439</ele>
        <time>2021-04-14T14:09:48Z</time>
      </trkpt>
      <trkpt lat="43.24108" lon="5.6245">
        <ele>438.6</ele>
        <time>2021-04-14T14:09:54Z</time>
      </trkpt>
      <trkpt lat="43.24104" lon="5.62452">
        <ele>438.2</ele>
        <time>2021-04-14T14:10:00Z</time>
      </trkpt>
      <trkpt lat="43.24099" lon="5.62453">
        <ele>437.8</ele>
        <time>2021-04-14T14:10:08Z</time>
      </trkpt>
      <trkpt lat="43.24094" lon="5.62455">
        <ele>437.4</ele>
        <time>2021-04-14T14:10:14Z</time>
      </trkpt>
      <trkpt lat="43.2409" lon="5.6246">
        <ele>437.1</ele>
        <time>2021-04-14T14:10:20Z</time>
      </trkpt>
      <trkpt lat="43.24086" lon="5.62466">
        <ele>436.8</ele>
        <time>2021-04-14T14:10:28Z</time>
      </trkpt>
      <trkpt lat="43.24084" lon="5.62472">
        <ele>436.7</ele>
        <time>2021-04-14T14:10:38Z</time>
      </trkpt>
      <trkpt lat="43.24081" lon="5.62477">
        <ele>436.5</ele>
        <time>2021-04-14T14:10:46Z</time>
      </trkpt>
      <trkpt lat="43.24076" lon="5.62472">
        <ele>435.9</ele>
        <time>2021-04-14T14:11:02Z</time>
      </trkpt>
      <trkpt lat="43.24072" lon="5.62467">
        <ele>435.4</ele>
        <time>2021-04-14T14:11:06Z</time>
      </trkpt>
      <trkpt lat="43.24068" lon="5.62461">
        <ele>434.9</ele>
        <time>2021-04-14T14:11:12Z</time>
      </trkpt>
      <trkpt lat="43.24064" lon="5.62456">
        <ele>434.4</ele>
        <time>2021-04-14T14:11:20Z</time>
      </trkpt>
      <trkpt lat="43.2406" lon="5.6245">
        <ele>433.7</ele>
        <time>2021-04-14T14:11:26Z</time>
      </trkpt>
      <trkpt lat="43.24055" lon="5.62444">
        <ele>433.1</ele>
        <time>2021-04-14T14:11:30Z</time>
      </trkpt>
      <trkpt lat="43.24051" lon="5.62438">
        <ele>432.4</ele>
        <time>2021-04-14T14:11:38Z</time>
      </trkpt>
      <trkpt lat="43.24051" lon="5.62431">
        <ele>432.2</ele>
        <time>2021-04-14T14:11:46Z</time>
      </trkpt>
      <trkpt lat="43.24051" lon="5.62424">
        <ele>431.9</ele>
        <time>2021-04-14T14:11:52Z</time>
      </trkpt>
      <trkpt lat="43.24049" lon="5.62419">
        <ele>431.5</ele>
        <time>2021-04-14T14:12:02Z</time>
      </trkpt>
      <trkpt lat="43.24045" lon="5.62413">
        <ele>431.2</ele>
        <time>2021-04-14T14:12:08Z</time>
      </trkpt>
      <trkpt lat="43.24043" lon="5.62407">
        <ele>431.3</ele>
        <time>2021-04-14T14:12:14Z</time>
      </trkpt>
      <trkpt lat="43.24038" lon="5.62402">
        <ele>431</ele>
        <time>2021-04-14T14:12:20Z</time>
      </trkpt>
      <trkpt lat="43.24035" lon="5.62394">
        <ele>431.1</ele>
        <time>2021-04-14T14:12:28Z</time>
      </trkpt>
      <trkpt lat="43.24033" lon="5.62389">
        <ele>431.2</ele>
        <time>2021-04-14T14:12:34Z</time>
      </trkpt>
      <trkpt lat="43.2403" lon="5.62382">
        <ele>431.2</ele>
        <time>2021-04-14T14:12:40Z</time>
      </trkpt>
      <trkpt lat="43.24024" lon="5.62379">
        <ele>430.9</ele>
        <time>2021-04-14T14:12:44Z</time>
      </trkpt>
      <trkpt lat="43.24018" lon="5.62377">
        <ele>430.3</ele>
        <time>2021-04-14T14:12:48Z</time>
      </trkpt>
      <trkpt lat="43.24011" lon="5.62374">
        <ele>429.7</ele>
        <time>2021-04-14T14:12:52Z</time>
      </trkpt>
      <trkpt lat="43.24006" lon="5.62375">
        <ele>429.2</ele>
        <time>2021-04-14T14:12:56Z</time>
      </trkpt>
      <trkpt lat="43.24001" lon="5.62377">
        <ele>428.5</ele>
        <time>2021-04-14T14:13:00Z</time>
      </trkpt>
      <trkpt lat="43.23996" lon="5.62379">
        <ele>428</ele>
        <time>2021-04-14T14:13:06Z</time>
      </trkpt>
      <trkpt lat="43.23991" lon="5.62381">
        <ele>427.7</ele>
        <time>2021-04-14T14:13:10Z</time>
      </trkpt>
      <trkpt lat="43.23986" lon="5.62384">
        <ele>427.3</ele>
        <time>2021-04-14T14:13:14Z</time>
      </trkpt>
      <trkpt lat="43.23981" lon="5.62385">
        <ele>427</ele>
        <time>2021-04-14T14:13:20Z</time>
      </trkpt>
      <trkpt lat="43.23976" lon="5.62388">
        <ele>426.5</ele>
        <time>2021-04-14T14:13:26Z</time>
      </trkpt>
      <trkpt lat="43.23969" lon="5.62389">
        <ele>426.2</ele>
        <time>2021-04-14T14:13:32Z</time>
      </trkpt>
      <trkpt lat="43.23965" lon="5.62388">
        <ele>426.1</ele>
        <time>2021-04-14T14:13:36Z</time>
      </trkpt>
      <trkpt lat="43.23959" lon="5.6239">
        <ele>425.7</ele>
        <time>2021-04-14T14:13:42Z</time>
      </trkpt>
      <trkpt lat="43.23953" lon="5.62393">
        <ele>425.2</ele>
        <time>2021-04-14T14:13:48Z</time>
      </trkpt>
      <trkpt lat="43.23947" lon="5.62397">
        <ele>424.5</ele>
        <time>2021-04-14T14:13:54Z</time>
      </trkpt>
      <trkpt lat="43.23943" lon="5.62401">
        <ele>424</ele>
        <time>2021-04-14T14:13:58Z</time>
      </trkpt>
      <trkpt lat="43.23939" lon="5.62404">
        <ele>423.4</ele>
        <time>2021-04-14T14:14:02Z</time>
      </trkpt>
      <trkpt lat="43.23935" lon="5.62409">
        <ele>422.8</ele>
        <time>2021-04-14T14:14:08Z</time>
      </trkpt>
      <trkpt lat="43.2393" lon="5.62412">
        <ele>422.2</ele>
        <time>2021-04-14T14:14:14Z</time>
      </trkpt>
      <trkpt lat="43.23923" lon="5.62414">
        <ele>421.7</ele>
        <time>2021-04-14T14:14:20Z</time>
      </trkpt>
      <trkpt lat="43.23917" lon="5.62416">
        <ele>421.1</ele>
        <time>2021-04-14T14:14:26Z</time>
      </trkpt>
      <trkpt lat="43.23912" lon="5.62419">
        <ele>420.5</ele>
        <time>2021-04-14T14:14:32Z</time>
      </trkpt>
      <trkpt lat="43.23906" lon="5.6242">
        <ele>419.8</ele>
        <time>2021-04-14T14:14:38Z</time>
      </trkpt>
      <trkpt lat="43.23901" lon="5.62422">
        <ele>419.2</ele>
        <time>2021-04-14T14:14:42Z</time>
      </trkpt>
      <trkpt lat="43.23897" lon="5.62425">
        <ele>418.6</ele>
        <time>2021-04-14T14:14:48Z</time>
      </trkpt>
      <trkpt lat="43.23893" lon="5.62429">
        <ele>418.1</ele>
        <time>2021-04-14T14:14:56Z</time>
      </trkpt>
      <trkpt lat="43.23888" lon="5.62433">
        <ele>417.4</ele>
        <time>2021-04-14T14:15:06Z</time>
      </trkpt>
      <trkpt lat="43.23882" lon="5.62434">
        <ele>416.8</ele>
        <time>2021-04-14T14:15:16Z</time>
      </trkpt>
      <trkpt lat="43.23876" lon="5.62434">
        <ele>416</ele>
        <time>2021-04-14T14:15:24Z</time>
      </trkpt>
      <trkpt lat="43.23872" lon="5.62439">
        <ele>415.3</ele>
        <time>2021-04-14T14:15:30Z</time>
      </trkpt>
      <trkpt lat="43.23868" lon="5.62443">
        <ele>414.7</ele>
        <time>2021-04-14T14:15:36Z</time>
      </trkpt>
      <trkpt lat="43.23863" lon="5.62448">
        <ele>413.9</ele>
        <time>2021-04-14T14:15:42Z</time>
      </trkpt>
      <trkpt lat="43.23859" lon="5.62452">
        <ele>413.1</ele>
        <time>2021-04-14T14:15:48Z</time>
      </trkpt>
      <trkpt lat="43.23854" lon="5.62456">
        <ele>412.3</ele>
        <time>2021-04-14T14:15:54Z</time>
      </trkpt>
      <trkpt lat="43.23849" lon="5.6246">
        <ele>411.4</ele>
        <time>2021-04-14T14:16:00Z</time>
      </trkpt>
      <trkpt lat="43.23843" lon="5.62463">
        <ele>410.6</ele>
        <time>2021-04-14T14:16:06Z</time>
      </trkpt>
      <trkpt lat="43.23839" lon="5.62467">
        <ele>409.8</ele>
        <time>2021-04-14T14:16:14Z</time>
      </trkpt>
      <trkpt lat="43.23835" lon="5.62469">
        <ele>409</ele>
        <time>2021-04-14T14:16:26Z</time>
      </trkpt>
      <trkpt lat="43.2383" lon="5.62468">
        <ele>408.6</ele>
        <time>2021-04-14T14:16:40Z</time>
      </trkpt>
      <trkpt lat="43.23826" lon="5.62472">
        <ele>408.1</ele>
        <time>2021-04-14T14:17:22Z</time>
      </trkpt>
      <trkpt lat="43.23821" lon="5.62471">
        <ele>407.7</ele>
        <time>2021-04-14T14:17:30Z</time>
      </trkpt>
      <trkpt lat="43.23816" lon="5.62469">
        <ele>407.3</ele>
        <time>2021-04-14T14:17:36Z</time>
      </trkpt>
      <trkpt lat="43.23811" lon="5.62468">
        <ele>406.9</ele>
        <time>2021-04-14T14:17:44Z</time>
      </trkpt>
      <trkpt lat="43.23804" lon="5.62467">
        <ele>406.3</ele>
        <time>2021-04-14T14:17:52Z</time>
      </trkpt>
      <trkpt lat="43.23799" lon="5.62466">
        <ele>405.8</ele>
        <time>2021-04-14T14:18:00Z</time>
      </trkpt>
      <trkpt lat="43.23794" lon="5.62465">
        <ele>405.3</ele>
        <time>2021-04-14T14:18:08Z</time>
      </trkpt>
      <trkpt lat="43.23789" lon="5.62464">
        <ele>404.7</ele>
        <time>2021-04-14T14:18:14Z</time>
      </trkpt>
      <trkpt lat="43.23784" lon="5.62459">
        <ele>404</ele>
        <time>2021-04-14T14:18:26Z</time>
      </trkpt>
      <trkpt lat="43.2378" lon="5.62454">
        <ele>403.1</ele>
        <time>2021-04-14T14:18:36Z</time>
      </trkpt>
      <trkpt lat="43.23776" lon="5.62451">
        <ele>402.4</ele>
        <time>2021-04-14T14:18:46Z</time>
      </trkpt>
      <trkpt lat="43.23771" lon="5.62449">
        <ele>401.5</ele>
        <time>2021-04-14T14:18:54Z</time>
      </trkpt>
      <trkpt lat="43.23765" lon="5.62448">
        <ele>400.6</ele>
        <time>2021-04-14T14:19:00Z</time>
      </trkpt>
      <trkpt lat="43.23761" lon="5.62444">
        <ele>399.5</ele>
        <time>2021-04-14T14:19:18Z</time>
      </trkpt>
      <trkpt lat="43.23755" lon="5.6244">
        <ele>398.3</ele>
        <time>2021-04-14T14:19:24Z</time>
      </trkpt>
      <trkpt lat="43.23751" lon="5.62438">
        <ele>397.3</ele>
        <time>2021-04-14T14:19:30Z</time>
      </trkpt>
      <trkpt lat="43.23745" lon="5.62435">
        <ele>396.2</ele>
        <time>2021-04-14T14:19:36Z</time>
      </trkpt>
      <trkpt lat="43.23741" lon="5.62433">
        <ele>395.4</ele>
        <time>2021-04-14T14:19:42Z</time>
      </trkpt>
      <trkpt lat="43.23736" lon="5.62432">
        <ele>394.9</ele>
        <time>2021-04-14T14:19:52Z</time>
      </trkpt>
      <trkpt lat="43.23731" lon="5.62428">
        <ele>393.6</ele>
        <time>2021-04-14T14:20:02Z</time>
      </trkpt>
      <trkpt lat="43.23727" lon="5.62424">
        <ele>392.4</ele>
        <time>2021-04-14T14:20:08Z</time>
      </trkpt>
      <trkpt lat="43.23722" lon="5.62421">
        <ele>391.2</ele>
        <time>2021-04-14T14:20:14Z</time>
      </trkpt>
      <trkpt lat="43.23718" lon="5.62418">
        <ele>390</ele>
        <time>2021-04-14T14:20:20Z</time>
      </trkpt>
      <trkpt lat="43.23713" lon="5.62416">
        <ele>389.2</ele>
        <time>2021-04-14T14:20:34Z</time>
      </trkpt>
      <trkpt lat="43.23708" lon="5.62413">
        <ele>388.5</ele>
        <time>2021-04-14T14:20:40Z</time>
      </trkpt>
      <trkpt lat="43.23703" lon="5.62409">
        <ele>387.9</ele>
        <time>2021-04-14T14:20:52Z</time>
      </trkpt>
      <trkpt lat="43.23701" lon="5.62403">
        <ele>387.6</ele>
        <time>2021-04-14T14:21:04Z</time>
      </trkpt>
      <trkpt lat="43.23697" lon="5.62398">
        <ele>386.8</ele>
        <time>2021-04-14T14:21:12Z</time>
      </trkpt>
      <trkpt lat="43.23691" lon="5.62396">
        <ele>385.7</ele>
        <time>2021-04-14T14:21:20Z</time>
      </trkpt>
      <trkpt lat="43.23687" lon="5.62392">
        <ele>384.7</ele>
        <time>2021-04-14T14:21:26Z</time>
      </trkpt>
      <trkpt lat="43.23681" lon="5.62388">
        <ele>383.3</ele>
        <time>2021-04-14T14:21:32Z</time>
      </trkpt>
      <trkpt lat="43.23677" lon="5.62385">
        <ele>382.2</ele>
        <time>2021-04-14T14:21:36Z</time>
      </trkpt>
      <trkpt lat="43.23671" lon="5.62382">
        <ele>380.8</ele>
        <time>2021-04-14T14:21:42Z</time>
      </trkpt>
      <trkpt lat="43.23666" lon="5.62378">
        <ele>379.3</ele>
        <time>2021-04-14T14:21:48Z</time>
      </trkpt>
      <trkpt lat="43.23663" lon="5.62373">
        <ele>378.9</ele>
        <time>2021-04-14T14:21:54Z</time>
      </trkpt>
      <trkpt lat="43.2366" lon="5.62368">
        <ele>378.6</ele>
        <time>2021-04-14T14:22:02Z</time>
      </trkpt>
      <trkpt lat="43.23655" lon="5.62366">
        <ele>378.3</ele>
        <time>2021-04-14T14:22:08Z</time>
      </trkpt>
      <trkpt lat="43.2365" lon="5.62362">
        <ele>377.9</ele>
        <time>2021-04-14T14:22:16Z</time>
      </trkpt>
      <trkpt lat="43.23645" lon="5.6236">
        <ele>377.5</ele>
        <time>2021-04-14T14:22:22Z</time>
      </trkpt>
      <trkpt lat="43.23641" lon="5.62357">
        <ele>377.1</ele>
        <time>2021-04-14T14:22:28Z</time>
      </trkpt>
      <trkpt lat="43.23637" lon="5.62353">
        <ele>376.2</ele>
        <time>2021-04-14T14:22:38Z</time>
      </trkpt>
      <trkpt lat="43.23635" lon="5.62347">
        <ele>375</ele>
        <time>2021-04-14T14:22:52Z</time>
      </trkpt>
      <trkpt lat="43.23632" lon="5.62341">
        <ele>373.7</ele>
        <time>2021-04-14T14:23:02Z</time>
      </trkpt>
      <trkpt lat="43.23627" lon="5.62334">
        <ele>371.8</ele>
        <time>2021-04-14T14:23:10Z</time>
      </trkpt>
      <trkpt lat="43.23623" lon="5.62328">
        <ele>371</ele>
        <time>2021-04-14T14:23:16Z</time>
      </trkpt>
      <trkpt lat="43.23621" lon="5.62323">
        <ele>370.4</ele>
        <time>2021-04-14T14:23:26Z</time>
      </trkpt>
      <trkpt lat="43.23616" lon="5.6232">
        <ele>369.6</ele>
        <time>2021-04-14T14:23:34Z</time>
      </trkpt>
      <trkpt lat="43.23612" lon="5.62321">
        <ele>369</ele>
        <time>2021-04-14T14:23:38Z</time>
      </trkpt>
      <trkpt lat="43.23607" lon="5.62319">
        <ele>368.2</ele>
        <time>2021-04-14T14:23:44Z</time>
      </trkpt>
      <trkpt lat="43.23605" lon="5.62312">
        <ele>367</ele>
        <time>2021-04-14T14:23:56Z</time>
      </trkpt>
      <trkpt lat="43.23606" lon="5.62305">
        <ele>366</ele>
        <time>2021-04-14T14:24:02Z</time>
      </trkpt>
      <trkpt lat="43.23601" lon="5.62298">
        <ele>364.3</ele>
        <time>2021-04-14T14:24:10Z</time>
      </trkpt>
      <trkpt lat="43.23598" lon="5.62292">
        <ele>362.7</ele>
        <time>2021-04-14T14:24:16Z</time>
      </trkpt>
      <trkpt lat="43.23596" lon="5.62286">
        <ele>361.2</ele>
        <time>2021-04-14T14:24:22Z</time>
      </trkpt>
      <trkpt lat="43.23593" lon="5.62279">
        <ele>359</ele>
        <time>2021-04-14T14:24:28Z</time>
      </trkpt>
      <trkpt lat="43.23588" lon="5.62274">
        <ele>356.6</ele>
        <time>2021-04-14T14:24:34Z</time>
      </trkpt>
      <trkpt lat="43.23585" lon="5.62267">
        <ele>354.2</ele>
        <time>2021-04-14T14:24:40Z</time>
      </trkpt>
      <trkpt lat="43.23583" lon="5.6226">
        <ele>352.2</ele>
        <time>2021-04-14T14:24:52Z</time>
      </trkpt>
      <trkpt lat="43.23579" lon="5.62255">
        <ele>351.4</ele>
        <time>2021-04-14T14:24:58Z</time>
      </trkpt>
      <trkpt lat="43.23576" lon="5.6225">
        <ele>350.7</ele>
        <time>2021-04-14T14:25:04Z</time>
      </trkpt>
      <trkpt lat="43.23571" lon="5.62247">
        <ele>351.2</ele>
        <time>2021-04-14T14:25:08Z</time>
      </trkpt>
      <trkpt lat="43.23567" lon="5.62246">
        <ele>351.6</ele>
        <time>2021-04-14T14:25:12Z</time>
      </trkpt>
      <trkpt lat="43.23561" lon="5.62244">
        <ele>352</ele>
        <time>2021-04-14T14:25:20Z</time>
      </trkpt>
      <trkpt lat="43.23558" lon="5.6224">
        <ele>352.2</ele>
        <time>2021-04-14T14:25:28Z</time>
      </trkpt>
      <trkpt lat="43.23553" lon="5.62235">
        <ele>352.2</ele>
        <time>2021-04-14T14:25:38Z</time>
      </trkpt>
      <trkpt lat="43.23551" lon="5.6223">
        <ele>352.1</ele>
        <time>2021-04-14T14:25:44Z</time>
      </trkpt>
      <trkpt lat="43.23549" lon="5.62223">
        <ele>351.7</ele>
        <time>2021-04-14T14:25:50Z</time>
      </trkpt>
      <trkpt lat="43.23546" lon="5.62216">
        <ele>351.3</ele>
        <time>2021-04-14T14:25:56Z</time>
      </trkpt>
      <trkpt lat="43.23543" lon="5.62208">
        <ele>350.6</ele>
        <time>2021-04-14T14:26:02Z</time>
      </trkpt>
      <trkpt lat="43.23542" lon="5.62201">
        <ele>350</ele>
        <time>2021-04-14T14:26:08Z</time>
      </trkpt>
      <trkpt lat="43.23539" lon="5.62195">
        <ele>349.2</ele>
        <time>2021-04-14T14:26:14Z</time>
      </trkpt>
      <trkpt lat="43.23534" lon="5.62191">
        <ele>348.2</ele>
        <time>2021-04-14T14:26:22Z</time>
      </trkpt>
      <trkpt lat="43.23529" lon="5.62187">
        <ele>347.1</ele>
        <time>2021-04-14T14:26:28Z</time>
      </trkpt>
      <trkpt lat="43.23524" lon="5.62183">
        <ele>346.1</ele>
        <time>2021-04-14T14:26:34Z</time>
      </trkpt>
      <trkpt lat="43.23519" lon="5.6218">
        <ele>344.9</ele>
        <time>2021-04-14T14:26:42Z</time>
      </trkpt>
      <trkpt lat="43.23515" lon="5.62176">
        <ele>343.6</ele>
        <time>2021-04-14T14:26:48Z</time>
      </trkpt>
      <trkpt lat="43.23511" lon="5.62172">
        <ele>342</ele>
        <time>2021-04-14T14:26:54Z</time>
      </trkpt>
      <trkpt lat="43.23507" lon="5.62167">
        <ele>340.6</ele>
        <time>2021-04-14T14:27:02Z</time>
      </trkpt>
      <trkpt lat="43.23502" lon="5.62164">
        <ele>339.9</ele>
        <time>2021-04-14T14:27:10Z</time>
      </trkpt>
      <trkpt lat="43.23498" lon="5.62162">
        <ele>339.7</ele>
        <time>2021-04-14T14:27:16Z</time>
      </trkpt>
      <trkpt lat="43.23493" lon="5.62158">
        <ele>340</ele>
        <time>2021-04-14T14:27:22Z</time>
      </trkpt>
      <trkpt lat="43.23487" lon="5.62156">
        <ele>339.7</ele>
        <time>2021-04-14T14:27:26Z</time>
      </trkpt>
      <trkpt lat="43.23482" lon="5.62155">
        <ele>339.2</ele>
        <time>2021-04-14T14:27:30Z</time>
      </trkpt>
      <trkpt lat="43.23476" lon="5.62154">
        <ele>338.9</ele>
        <time>2021-04-14T14:27:34Z</time>
      </trkpt>
      <trkpt lat="43.23471" lon="5.62152">
        <ele>338.6</ele>
        <time>2021-04-14T14:27:38Z</time>
      </trkpt>
      <trkpt lat="43.23466" lon="5.62151">
        <ele>338.2</ele>
        <time>2021-04-14T14:27:48Z</time>
      </trkpt>
      <trkpt lat="43.23462" lon="5.62155">
        <ele>337</ele>
        <time>2021-04-14T14:28:34Z</time>
      </trkpt>
      <trkpt lat="43.23456" lon="5.62153">
        <ele>336.4</ele>
        <time>2021-04-14T14:28:42Z</time>
      </trkpt>
      <trkpt lat="43.23451" lon="5.62155">
        <ele>335.5</ele>
        <time>2021-04-14T14:28:46Z</time>
      </trkpt>
      <trkpt lat="43.23446" lon="5.62155">
        <ele>335</ele>
        <time>2021-04-14T14:28:50Z</time>
      </trkpt>
      <trkpt lat="43.2344" lon="5.62153">
        <ele>334.5</ele>
        <time>2021-04-14T14:28:54Z</time>
      </trkpt>
      <trkpt lat="43.23436" lon="5.62152">
        <ele>334.2</ele>
        <time>2021-04-14T14:29:02Z</time>
      </trkpt>
      <trkpt lat="43.2343" lon="5.6215">
        <ele>333.7</ele>
        <time>2021-04-14T14:29:06Z</time>
      </trkpt>
      <trkpt lat="43.23425" lon="5.62149">
        <ele>333.2</ele>
        <time>2021-04-14T14:29:10Z</time>
      </trkpt>
      <trkpt lat="43.2342" lon="5.62148">
        <ele>332.6</ele>
        <time>2021-04-14T14:29:16Z</time>
      </trkpt>
      <trkpt lat="43.23414" lon="5.62147">
        <ele>332.3</ele>
        <time>2021-04-14T14:29:22Z</time>
      </trkpt>
      <trkpt lat="43.23408" lon="5.62145">
        <ele>332.1</ele>
        <time>2021-04-14T14:29:26Z</time>
      </trkpt>
      <trkpt lat="43.23402" lon="5.62144">
        <ele>331.9</ele>
        <time>2021-04-14T14:29:30Z</time>
      </trkpt>
      <trkpt lat="43.23397" lon="5.62145">
        <ele>331.5</ele>
        <time>2021-04-14T14:29:34Z</time>
      </trkpt>
      <trkpt lat="43.2339" lon="5.62146">
        <ele>331.1</ele>
        <time>2021-04-14T14:29:38Z</time>
      </trkpt>
      <trkpt lat="43.23384" lon="5.62147">
        <ele>330.7</ele>
        <time>2021-04-14T14:29:42Z</time>
      </trkpt>
      <trkpt lat="43.23378" lon="5.62146">
        <ele>330.4</ele>
        <time>2021-04-14T14:29:46Z</time>
      </trkpt>
      <trkpt lat="43.23373" lon="5.62145">
        <ele>330.2</ele>
        <time>2021-04-14T14:29:50Z</time>
      </trkpt>
      <trkpt lat="43.23369" lon="5.62144">
        <ele>329.9</ele>
        <time>2021-04-14T14:29:54Z</time>
      </trkpt>
      <trkpt lat="43.23364" lon="5.62144">
        <ele>329.6</ele>
        <time>2021-04-14T14:29:58Z</time>
      </trkpt>
      <trkpt lat="43.23359" lon="5.62142">
        <ele>329.3</ele>
        <time>2021-04-14T14:30:04Z</time>
      </trkpt>
      <trkpt lat="43.23355" lon="5.62136">
        <ele>328.8</ele>
        <time>2021-04-14T14:30:10Z</time>
      </trkpt>
      <trkpt lat="43.23351" lon="5.6213">
        <ele>328.1</ele>
        <time>2021-04-14T14:30:16Z</time>
      </trkpt>
      <trkpt lat="43.2335" lon="5.62123">
        <ele>327.6</ele>
        <time>2021-04-14T14:30:22Z</time>
      </trkpt>
      <trkpt lat="43.23348" lon="5.62114">
        <ele>327</ele>
        <time>2021-04-14T14:30:28Z</time>
      </trkpt>
      <trkpt lat="43.23343" lon="5.62108">
        <ele>325.9</ele>
        <time>2021-04-14T14:30:34Z</time>
      </trkpt>
      <trkpt lat="43.23339" lon="5.62104">
        <ele>324.9</ele>
        <time>2021-04-14T14:30:38Z</time>
      </trkpt>
      <trkpt lat="43.23335" lon="5.62101">
        <ele>323.9</ele>
        <time>2021-04-14T14:30:44Z</time>
      </trkpt>
      <trkpt lat="43.23335" lon="5.62094">
        <ele>323.4</ele>
        <time>2021-04-14T14:30:54Z</time>
      </trkpt>
      <trkpt lat="43.23332" lon="5.62087">
        <ele>322.3</ele>
        <time>2021-04-14T14:31:00Z</time>
      </trkpt>
      <trkpt lat="43.2333" lon="5.62082">
        <ele>321.7</ele>
        <time>2021-04-14T14:31:04Z</time>
      </trkpt>
      <trkpt lat="43.23327" lon="5.62074">
        <ele>321.4</ele>
        <time>2021-04-14T14:31:10Z</time>
      </trkpt>
      <trkpt lat="43.23323" lon="5.62069">
        <ele>321</ele>
        <time>2021-04-14T14:31:16Z</time>
      </trkpt>
      <trkpt lat="43.23319" lon="5.62063">
        <ele>320.5</ele>
        <time>2021-04-14T14:31:24Z</time>
      </trkpt>
      <trkpt lat="43.23315" lon="5.62058">
        <ele>320</ele>
        <time>2021-04-14T14:31:30Z</time>
      </trkpt>
      <trkpt lat="43.2331" lon="5.62055">
        <ele>319.4</ele>
        <time>2021-04-14T14:31:34Z</time>
      </trkpt>
      <trkpt lat="43.23306" lon="5.62051">
        <ele>318.8</ele>
        <time>2021-04-14T14:31:38Z</time>
      </trkpt>
      <trkpt lat="43.23301" lon="5.62048">
        <ele>318.2</ele>
        <time>2021-04-14T14:31:42Z</time>
      </trkpt>
      <trkpt lat="43.23295" lon="5.62046">
        <ele>317.5</ele>
        <time>2021-04-14T14:31:50Z</time>
      </trkpt>
      <trkpt lat="43.2329" lon="5.62045">
        <ele>316.9</ele>
        <time>2021-04-14T14:31:56Z</time>
      </trkpt>
      <trkpt lat="43.23285" lon="5.62043">
        <ele>316.3</ele>
        <time>2021-04-14T14:32:02Z</time>
      </trkpt>
      <trkpt lat="43.23281" lon="5.6204">
        <ele>315.6</ele>
        <time>2021-04-14T14:32:10Z</time>
      </trkpt>
      <trkpt lat="43.23275" lon="5.62035">
        <ele>314.8</ele>
        <time>2021-04-14T14:32:18Z</time>
      </trkpt>
      <trkpt lat="43.2327" lon="5.62034">
        <ele>314.1</ele>
        <time>2021-04-14T14:32:26Z</time>
      </trkpt>
      <trkpt lat="43.23263" lon="5.62031">
        <ele>313.2</ele>
        <time>2021-04-14T14:32:32Z</time>
      </trkpt>
      <trkpt lat="43.23258" lon="5.62029">
        <ele>312.5</ele>
        <time>2021-04-14T14:32:38Z</time>
      </trkpt>
      <trkpt lat="43.23252" lon="5.6203">
        <ele>311.6</ele>
        <time>2021-04-14T14:32:44Z</time>
      </trkpt>
      <trkpt lat="43.23246" lon="5.62031">
        <ele>310.7</ele>
        <time>2021-04-14T14:32:52Z</time>
      </trkpt>
      <trkpt lat="43.23241" lon="5.62031">
        <ele>309.5</ele>
        <time>2021-04-14T14:33:04Z</time>
      </trkpt>
      <trkpt lat="43.23236" lon="5.62032">
        <ele>308.4</ele>
        <time>2021-04-14T14:33:08Z</time>
      </trkpt>
      <trkpt lat="43.2323" lon="5.62034">
        <ele>307.2</ele>
        <time>2021-04-14T14:33:12Z</time>
      </trkpt>
      <trkpt lat="43.23224" lon="5.62036">
        <ele>306.1</ele>
        <time>2021-04-14T14:33:16Z</time>
      </trkpt>
      <trkpt lat="43.23219" lon="5.62036">
        <ele>304.8</ele>
        <time>2021-04-14T14:33:20Z</time>
      </trkpt>
      <trkpt lat="43.23213" lon="5.62036">
        <ele>303.6</ele>
        <time>2021-04-14T14:33:24Z</time>
      </trkpt>
      <trkpt lat="43.23207" lon="5.62036">
        <ele>302.2</ele>
        <time>2021-04-14T14:33:28Z</time>
      </trkpt>
      <trkpt lat="43.23202" lon="5.62036">
        <ele>301.1</ele>
        <time>2021-04-14T14:33:32Z</time>
      </trkpt>
      <trkpt lat="43.23197" lon="5.62036">
        <ele>300.1</ele>
        <time>2021-04-14T14:33:36Z</time>
      </trkpt>
      <trkpt lat="43.23193" lon="5.62037">
        <ele>299.2</ele>
        <time>2021-04-14T14:33:42Z</time>
      </trkpt>
      <trkpt lat="43.23188" lon="5.62037">
        <ele>298.1</ele>
        <time>2021-04-14T14:33:48Z</time>
      </trkpt>
      <trkpt lat="43.23181" lon="5.62036">
        <ele>296.6</ele>
        <time>2021-04-14T14:33:54Z</time>
      </trkpt>
      <trkpt lat="43.23178" lon="5.62032">
        <ele>295.8</ele>
        <time>2021-04-14T14:34:00Z</time>
      </trkpt>
      <trkpt lat="43.23175" lon="5.62027">
        <ele>295</ele>
        <time>2021-04-14T14:34:06Z</time>
      </trkpt>
      <trkpt lat="43.23172" lon="5.62021">
        <ele>294.5</ele>
        <time>2021-04-14T14:34:10Z</time>
      </trkpt>
      <trkpt lat="43.2317" lon="5.62014">
        <ele>293.8</ele>
        <time>2021-04-14T14:34:18Z</time>
      </trkpt>
      <trkpt lat="43.23169" lon="5.62008">
        <ele>293.6</ele>
        <time>2021-04-14T14:34:24Z</time>
      </trkpt>
      <trkpt lat="43.23173" lon="5.62002">
        <ele>294.3</ele>
        <time>2021-04-14T14:34:30Z</time>
      </trkpt>
      <trkpt lat="43.23174" lon="5.61996">
        <ele>294.4</ele>
        <time>2021-04-14T14:34:40Z</time>
      </trkpt>
      <trkpt lat="43.23179" lon="5.61991">
        <ele>295.3</ele>
        <time>2021-04-14T14:34:48Z</time>
      </trkpt>
      <trkpt lat="43.23183" lon="5.61987">
        <ele>296</ele>
        <time>2021-04-14T14:35:02Z</time>
      </trkpt>
      <trkpt lat="43.23187" lon="5.61984">
        <ele>296.9</ele>
        <time>2021-04-14T14:36:24Z</time>
      </trkpt>
      <trkpt lat="43.23191" lon="5.6198">
        <ele>297.9</ele>
        <time>2021-04-14T14:36:38Z</time>
      </trkpt>
      <trkpt lat="43.23194" lon="5.61975">
        <ele>298.7</ele>
        <time>2021-04-14T14:36:48Z</time>
      </trkpt>
      <trkpt lat="43.23191" lon="5.6197">
        <ele>297.9</ele>
        <time>2021-04-14T14:36:58Z</time>
      </trkpt>
      <trkpt lat="43.23193" lon="5.61962">
        <ele>298.3</ele>
        <time>2021-04-14T14:37:06Z</time>
      </trkpt>
      <trkpt lat="43.23195" lon="5.61953">
        <ele>298.9</ele>
        <time>2021-04-14T14:37:12Z</time>
      </trkpt>
      <trkpt lat="43.23192" lon="5.61948">
        <ele>297.9</ele>
        <time>2021-04-14T14:37:18Z</time>
      </trkpt>
      <trkpt lat="43.2319" lon="5.61941">
        <ele>297.3</ele>
        <time>2021-04-14T14:37:32Z</time>
      </trkpt>
      <trkpt lat="43.23188" lon="5.61935">
        <ele>296.7</ele>
        <time>2021-04-14T14:37:38Z</time>
      </trkpt>
      <trkpt lat="43.23184" lon="5.61927">
        <ele>295.2</ele>
        <time>2021-04-14T14:37:44Z</time>
      </trkpt>
      <trkpt lat="43.2318" lon="5.61922">
        <ele>293.8</ele>
        <time>2021-04-14T14:37:50Z</time>
      </trkpt>
      <trkpt lat="43.23174" lon="5.6192">
        <ele>291.5</ele>
        <time>2021-04-14T14:37:58Z</time>
      </trkpt>
      <trkpt lat="43.23169" lon="5.61919">
        <ele>289.8</ele>
        <time>2021-04-14T14:38:02Z</time>
      </trkpt>
      <trkpt lat="43.23164" lon="5.61918">
        <ele>288.4</ele>
        <time>2021-04-14T14:38:06Z</time>
      </trkpt>
      <trkpt lat="43.23158" lon="5.61917">
        <ele>287</ele>
        <time>2021-04-14T14:38:12Z</time>
      </trkpt>
      <trkpt lat="43.23153" lon="5.61915">
        <ele>286</ele>
        <time>2021-04-14T14:38:18Z</time>
      </trkpt>
      <trkpt lat="43.23148" lon="5.61916">
        <ele>284.7</ele>
        <time>2021-04-14T14:38:24Z</time>
      </trkpt>
      <trkpt lat="43.23143" lon="5.61917">
        <ele>283.5</ele>
        <time>2021-04-14T14:38:32Z</time>
      </trkpt>
      <trkpt lat="43.23139" lon="5.61911">
        <ele>283</ele>
        <time>2021-04-14T14:38:54Z</time>
      </trkpt>
      <trkpt lat="43.23138" lon="5.61904">
        <ele>282.9</ele>
        <time>2021-04-14T14:39:02Z</time>
      </trkpt>
      <trkpt lat="43.23135" lon="5.61897">
        <ele>282.7</ele>
        <time>2021-04-14T14:39:08Z</time>
      </trkpt>
      <trkpt lat="43.23133" lon="5.6189">
        <ele>282.5</ele>
        <time>2021-04-14T14:39:14Z</time>
      </trkpt>
      <trkpt lat="43.2313" lon="5.61882">
        <ele>282</ele>
        <time>2021-04-14T14:39:20Z</time>
      </trkpt>
      <trkpt lat="43.23129" lon="5.61875">
        <ele>282.1</ele>
        <time>2021-04-14T14:39:27Z</time>
      </trkpt>
      <trkpt lat="43.23128" lon="5.61867">
        <ele>282.2</ele>
        <time>2021-04-14T14:39:33Z</time>
      </trkpt>
      <trkpt lat="43.2313" lon="5.61861">
        <ele>283</ele>
        <time>2021-04-14T14:39:39Z</time>
      </trkpt>
      <trkpt lat="43.23134" lon="5.61857">
        <ele>284</ele>
        <time>2021-04-14T14:39:45Z</time>
      </trkpt>
      <trkpt lat="43.23139" lon="5.61853">
        <ele>285.2</ele>
        <time>2021-04-14T14:39:51Z</time>
      </trkpt>
      <trkpt lat="43.23143" lon="5.61848">
        <ele>286.2</ele>
        <time>2021-04-14T14:39:57Z</time>
      </trkpt>
      <trkpt lat="43.23146" lon="5.61843">
        <ele>287.1</ele>
        <time>2021-04-14T14:40:03Z</time>
      </trkpt>
      <trkpt lat="43.23149" lon="5.61837">
        <ele>288.1</ele>
        <time>2021-04-14T14:40:09Z</time>
      </trkpt>
      <trkpt lat="43.23151" lon="5.61831">
        <ele>288.8</ele>
        <time>2021-04-14T14:40:15Z</time>
      </trkpt>
      <trkpt lat="43.23148" lon="5.61824">
        <ele>289</ele>
        <time>2021-04-14T14:40:23Z</time>
      </trkpt>
      <trkpt lat="43.23144" lon="5.61821">
        <ele>288.4</ele>
        <time>2021-04-14T14:40:29Z</time>
      </trkpt>
      <trkpt lat="43.23139" lon="5.61819">
        <ele>287.4</ele>
        <time>2021-04-14T14:40:35Z</time>
      </trkpt>
      <trkpt lat="43.23133" lon="5.61816">
        <ele>286.5</ele>
        <time>2021-04-14T14:40:43Z</time>
      </trkpt>
      <trkpt lat="43.23127" lon="5.61815">
        <ele>285</ele>
        <time>2021-04-14T14:40:49Z</time>
      </trkpt>
      <trkpt lat="43.23122" lon="5.61813">
        <ele>284.1</ele>
        <time>2021-04-14T14:40:57Z</time>
      </trkpt>
      <trkpt lat="43.23116" lon="5.61811">
        <ele>282.9</ele>
        <time>2021-04-14T14:41:03Z</time>
      </trkpt>
      <trkpt lat="43.23111" lon="5.61807">
        <ele>282.1</ele>
        <time>2021-04-14T14:41:09Z</time>
      </trkpt>
      <trkpt lat="43.23106" lon="5.61801">
        <ele>281.3</ele>
        <time>2021-04-14T14:41:15Z</time>
      </trkpt>
      <trkpt lat="43.23103" lon="5.61796">
        <ele>280.9</ele>
        <time>2021-04-14T14:41:21Z</time>
      </trkpt>
      <trkpt lat="43.23099" lon="5.6179">
        <ele>280.5</ele>
        <time>2021-04-14T14:41:27Z</time>
      </trkpt>
      <trkpt lat="43.23097" lon="5.61782">
        <ele>280.6</ele>
        <time>2021-04-14T14:41:33Z</time>
      </trkpt>
      <trkpt lat="43.23094" lon="5.61775">
        <ele>280.1</ele>
        <time>2021-04-14T14:41:39Z</time>
      </trkpt>
      <trkpt lat="43.2309" lon="5.61771">
        <ele>279.5</ele>
        <time>2021-04-14T14:41:45Z</time>
      </trkpt>
      <trkpt lat="43.23087" lon="5.61766">
        <ele>279</ele>
        <time>2021-04-14T14:41:51Z</time>
      </trkpt>
      <trkpt lat="43.23082" lon="5.61763">
        <ele>278.1</ele>
        <time>2021-04-14T14:41:57Z</time>
      </trkpt>
      <trkpt lat="43.23077" lon="5.61762">
        <ele>277.5</ele>
        <time>2021-04-14T14:42:03Z</time>
      </trkpt>
      <trkpt lat="43.23071" lon="5.61763">
        <ele>276.5</ele>
        <time>2021-04-14T14:42:09Z</time>
      </trkpt>
      <trkpt lat="43.23065" lon="5.61765">
        <ele>275.6</ele>
        <time>2021-04-14T14:42:15Z</time>
      </trkpt>
      <trkpt lat="43.23059" lon="5.61768">
        <ele>274.6</ele>
        <time>2021-04-14T14:42:21Z</time>
      </trkpt>
      <trkpt lat="43.23053" lon="5.61772">
        <ele>273.4</ele>
        <time>2021-04-14T14:42:27Z</time>
      </trkpt>
      <trkpt lat="43.23047" lon="5.61776">
        <ele>272.4</ele>
        <time>2021-04-14T14:42:33Z</time>
      </trkpt>
      <trkpt lat="43.23042" lon="5.61778">
        <ele>271.5</ele>
        <time>2021-04-14T14:42:41Z</time>
      </trkpt>
      <trkpt lat="43.23037" lon="5.6178">
        <ele>270.7</ele>
        <time>2021-04-14T14:42:51Z</time>
      </trkpt>
      <trkpt lat="43.23032" lon="5.61778">
        <ele>270.2</ele>
        <time>2021-04-14T14:42:57Z</time>
      </trkpt>
      <trkpt lat="43.23027" lon="5.61774">
        <ele>269.7</ele>
        <time>2021-04-14T14:43:05Z</time>
      </trkpt>
      <trkpt lat="43.23023" lon="5.61769">
        <ele>269.6</ele>
        <time>2021-04-14T14:43:13Z</time>
      </trkpt>
      <trkpt lat="43.23019" lon="5.61764">
        <ele>269.4</ele>
        <time>2021-04-14T14:43:19Z</time>
      </trkpt>
      <trkpt lat="43.23014" lon="5.61759">
        <ele>269.1</ele>
        <time>2021-04-14T14:43:25Z</time>
      </trkpt>
      <trkpt lat="43.23009" lon="5.61753">
        <ele>268.9</ele>
        <time>2021-04-14T14:43:31Z</time>
      </trkpt>
      <trkpt lat="43.23005" lon="5.61747">
        <ele>268.7</ele>
        <time>2021-04-14T14:43:37Z</time>
      </trkpt>
      <trkpt lat="43.23004" lon="5.6174">
        <ele>268.5</ele>
        <time>2021-04-14T14:43:43Z</time>
      </trkpt>
      <trkpt lat="43.23007" lon="5.61731">
        <ele>268.7</ele>
        <time>2021-04-14T14:43:49Z</time>
      </trkpt>
      <trkpt lat="43.23008" lon="5.61726">
        <ele>268.9</ele>
        <time>2021-04-14T14:43:53Z</time>
      </trkpt>
      <trkpt lat="43.23009" lon="5.61718">
        <ele>269</ele>
        <time>2021-04-14T14:43:59Z</time>
      </trkpt>
      <trkpt lat="43.23011" lon="5.61712">
        <ele>269.2</ele>
        <time>2021-04-14T14:44:11Z</time>
      </trkpt>
      <trkpt lat="43.23009" lon="5.61705">
        <ele>269</ele>
        <time>2021-04-14T14:44:39Z</time>
      </trkpt>
      <trkpt lat="43.23005" lon="5.61703">
        <ele>268.3</ele>
        <time>2021-04-14T14:44:53Z</time>
      </trkpt>
      <trkpt lat="43.23004" lon="5.61696">
        <ele>268</ele>
        <time>2021-04-14T14:45:01Z</time>
      </trkpt>
      <trkpt lat="43.23001" lon="5.61691">
        <ele>267.4</ele>
        <time>2021-04-14T14:45:09Z</time>
      </trkpt>
      <trkpt lat="43.22996" lon="5.61686">
        <ele>266.7</ele>
        <time>2021-04-14T14:45:17Z</time>
      </trkpt>
      <trkpt lat="43.2299" lon="5.61683">
        <ele>266.1</ele>
        <time>2021-04-14T14:45:23Z</time>
      </trkpt>
      <trkpt lat="43.22985" lon="5.61681">
        <ele>265.5</ele>
        <time>2021-04-14T14:45:29Z</time>
      </trkpt>
      <trkpt lat="43.2298" lon="5.61682">
        <ele>265</ele>
        <time>2021-04-14T14:45:35Z</time>
      </trkpt>
      <trkpt lat="43.22976" lon="5.61682">
        <ele>264.4</ele>
        <time>2021-04-14T14:45:41Z</time>
      </trkpt>
      <trkpt lat="43.2297" lon="5.61683">
        <ele>263.9</ele>
        <time>2021-04-14T14:45:47Z</time>
      </trkpt>
      <trkpt lat="43.22966" lon="5.61685">
        <ele>263.3</ele>
        <time>2021-04-14T14:45:55Z</time>
      </trkpt>
      <trkpt lat="43.22962" lon="5.61681">
        <ele>262.9</ele>
        <time>2021-04-14T14:46:09Z</time>
      </trkpt>
      <trkpt lat="43.22958" lon="5.61676">
        <ele>262.5</ele>
        <time>2021-04-14T14:46:19Z</time>
      </trkpt>
      <trkpt lat="43.22956" lon="5.6167">
        <ele>262.2</ele>
        <time>2021-04-14T14:46:25Z</time>
      </trkpt>
      <trkpt lat="43.22953" lon="5.61665">
        <ele>262.1</ele>
        <time>2021-04-14T14:46:31Z</time>
      </trkpt>
      <trkpt lat="43.22952" lon="5.61657">
        <ele>262.5</ele>
        <time>2021-04-14T14:46:39Z</time>
      </trkpt>
      <trkpt lat="43.2295" lon="5.6165">
        <ele>262.7</ele>
        <time>2021-04-14T14:46:43Z</time>
      </trkpt>
      <trkpt lat="43.22949" lon="5.61644">
        <ele>263</ele>
        <time>2021-04-14T14:46:47Z</time>
      </trkpt>
      <trkpt lat="43.22948" lon="5.61637">
        <ele>263.3</ele>
        <time>2021-04-14T14:46:53Z</time>
      </trkpt>
      <trkpt lat="43.22946" lon="5.6163">
        <ele>263.4</ele>
        <time>2021-04-14T14:46:59Z</time>
      </trkpt>
      <trkpt lat="43.22945" lon="5.61623">
        <ele>263.6</ele>
        <time>2021-04-14T14:47:05Z</time>
      </trkpt>
      <trkpt lat="43.22946" lon="5.61616">
        <ele>264.1</ele>
        <time>2021-04-14T14:47:13Z</time>
      </trkpt>
      <trkpt lat="43.22948" lon="5.61609">
        <ele>265</ele>
        <time>2021-04-14T14:47:21Z</time>
      </trkpt>
      <trkpt lat="43.22947" lon="5.61601">
        <ele>265.3</ele>
        <time>2021-04-14T14:47:29Z</time>
      </trkpt>
      <trkpt lat="43.22945" lon="5.61594">
        <ele>265.1</ele>
        <time>2021-04-14T14:47:39Z</time>
      </trkpt>
      <trkpt lat="43.22941" lon="5.61588">
        <ele>264.6</ele>
        <time>2021-04-14T14:47:45Z</time>
      </trkpt>
      <trkpt lat="43.22938" lon="5.61583">
        <ele>263.9</ele>
        <time>2021-04-14T14:47:51Z</time>
      </trkpt>
      <trkpt lat="43.22934" lon="5.61578">
        <ele>264.5</ele>
        <time>2021-04-14T14:47:57Z</time>
      </trkpt>
      <trkpt lat="43.2293" lon="5.61576">
        <ele>264.2</ele>
        <time>2021-04-14T14:48:03Z</time>
      </trkpt>
      <trkpt lat="43.22924" lon="5.61573">
        <ele>263.7</ele>
        <time>2021-04-14T14:48:09Z</time>
      </trkpt>
      <trkpt lat="43.22918" lon="5.61572">
        <ele>262.3</ele>
        <time>2021-04-14T14:48:15Z</time>
      </trkpt>
      <trkpt lat="43.22913" lon="5.61572">
        <ele>261.3</ele>
        <time>2021-04-14T14:48:19Z</time>
      </trkpt>
      <trkpt lat="43.22909" lon="5.61573">
        <ele>260.1</ele>
        <time>2021-04-14T14:48:23Z</time>
      </trkpt>
      <trkpt lat="43.22904" lon="5.61575">
        <ele>258.8</ele>
        <time>2021-04-14T14:48:27Z</time>
      </trkpt>
      <trkpt lat="43.229" lon="5.61579">
        <ele>256.7</ele>
        <time>2021-04-14T14:48:33Z</time>
      </trkpt>
      <trkpt lat="43.22898" lon="5.61585">
        <ele>255</ele>
        <time>2021-04-14T14:48:39Z</time>
      </trkpt>
      <trkpt lat="43.22896" lon="5.61591">
        <ele>254.5</ele>
        <time>2021-04-14T14:48:45Z</time>
      </trkpt>
      <trkpt lat="43.22893" lon="5.61596">
        <ele>254</ele>
        <time>2021-04-14T14:48:51Z</time>
      </trkpt>
      <trkpt lat="43.22891" lon="5.61602">
        <ele>253.6</ele>
        <time>2021-04-14T14:48:57Z</time>
      </trkpt>
      <trkpt lat="43.22891" lon="5.61608">
        <ele>253.3</ele>
        <time>2021-04-14T14:49:03Z</time>
      </trkpt>
      <trkpt lat="43.22888" lon="5.61615">
        <ele>252.7</ele>
        <time>2021-04-14T14:49:11Z</time>
      </trkpt>
      <trkpt lat="43.22884" lon="5.61619">
        <ele>251.7</ele>
        <time>2021-04-14T14:49:19Z</time>
      </trkpt>
      <trkpt lat="43.22878" lon="5.6162">
        <ele>250.6</ele>
        <time>2021-04-14T14:49:29Z</time>
      </trkpt>
      <trkpt lat="43.22874" lon="5.61619">
        <ele>249.7</ele>
        <time>2021-04-14T14:49:35Z</time>
      </trkpt>
      <trkpt lat="43.22869" lon="5.61619">
        <ele>248.7</ele>
        <time>2021-04-14T14:49:41Z</time>
      </trkpt>
      <trkpt lat="43.22862" lon="5.6162">
        <ele>247.5</ele>
        <time>2021-04-14T14:49:47Z</time>
      </trkpt>
      <trkpt lat="43.22856" lon="5.61623">
        <ele>246.1</ele>
        <time>2021-04-14T14:49:53Z</time>
      </trkpt>
      <trkpt lat="43.22852" lon="5.61626">
        <ele>245.1</ele>
        <time>2021-04-14T14:49:59Z</time>
      </trkpt>
      <trkpt lat="43.22848" lon="5.6163">
        <ele>244</ele>
        <time>2021-04-14T14:50:05Z</time>
      </trkpt>
      <trkpt lat="43.22843" lon="5.61633">
        <ele>242.8</ele>
        <time>2021-04-14T14:50:13Z</time>
      </trkpt>
      <trkpt lat="43.22837" lon="5.61633">
        <ele>241.7</ele>
        <time>2021-04-14T14:50:23Z</time>
      </trkpt>
      <trkpt lat="43.22837" lon="5.61625">
        <ele>242.1</ele>
        <time>2021-04-14T14:50:33Z</time>
      </trkpt>
      <trkpt lat="43.22836" lon="5.61618">
        <ele>242.7</ele>
        <time>2021-04-14T14:50:39Z</time>
      </trkpt>
      <trkpt lat="43.22836" lon="5.6161">
        <ele>243.2</ele>
        <time>2021-04-14T14:50:47Z</time>
      </trkpt>
      <trkpt lat="43.22836" lon="5.61602">
        <ele>243.9</ele>
        <time>2021-04-14T14:50:55Z</time>
      </trkpt>
      <trkpt lat="43.22833" lon="5.61596">
        <ele>243.9</ele>
        <time>2021-04-14T14:51:03Z</time>
      </trkpt>
      <trkpt lat="43.22829" lon="5.61593">
        <ele>243.3</ele>
        <time>2021-04-14T14:51:09Z</time>
      </trkpt>
      <trkpt lat="43.22823" lon="5.61594">
        <ele>242.2</ele>
        <time>2021-04-14T14:51:17Z</time>
      </trkpt>
      <trkpt lat="43.22817" lon="5.61592">
        <ele>241.2</ele>
        <time>2021-04-14T14:51:25Z</time>
      </trkpt>
      <trkpt lat="43.22811" lon="5.61589">
        <ele>240.3</ele>
        <time>2021-04-14T14:51:31Z</time>
      </trkpt>
      <trkpt lat="43.22806" lon="5.61587">
        <ele>239.5</ele>
        <time>2021-04-14T14:51:35Z</time>
      </trkpt>
      <trkpt lat="43.22801" lon="5.61586">
        <ele>238.5</ele>
        <time>2021-04-14T14:51:39Z</time>
      </trkpt>
      <trkpt lat="43.22796" lon="5.61587">
        <ele>237.5</ele>
        <time>2021-04-14T14:51:43Z</time>
      </trkpt>
      <trkpt lat="43.2279" lon="5.61591">
        <ele>236.2</ele>
        <time>2021-04-14T14:51:49Z</time>
      </trkpt>
      <trkpt lat="43.22785" lon="5.61595">
        <ele>235</ele>
        <time>2021-04-14T14:51:55Z</time>
      </trkpt>
      <trkpt lat="43.22779" lon="5.61598">
        <ele>233.7</ele>
        <time>2021-04-14T14:52:01Z</time>
      </trkpt>
      <trkpt lat="43.22773" lon="5.61599">
        <ele>232.5</ele>
        <time>2021-04-14T14:52:07Z</time>
      </trkpt>
      <trkpt lat="43.22768" lon="5.616">
        <ele>231.4</ele>
        <time>2021-04-14T14:52:13Z</time>
      </trkpt>
      <trkpt lat="43.22762" lon="5.61598">
        <ele>230.5</ele>
        <time>2021-04-14T14:52:19Z</time>
      </trkpt>
      <trkpt lat="43.22757" lon="5.61596">
        <ele>229.6</ele>
        <time>2021-04-14T14:52:27Z</time>
      </trkpt>
      <trkpt lat="43.2275" lon="5.61596">
        <ele>228.5</ele>
        <time>2021-04-14T14:52:33Z</time>
      </trkpt>
      <trkpt lat="43.22746" lon="5.61595">
        <ele>228.3</ele>
        <time>2021-04-14T14:52:37Z</time>
      </trkpt>
      <trkpt lat="43.2274" lon="5.61594">
        <ele>228.1</ele>
        <time>2021-04-14T14:52:41Z</time>
      </trkpt>
      <trkpt lat="43.22734" lon="5.61592">
        <ele>228</ele>
        <time>2021-04-14T14:52:47Z</time>
      </trkpt>
      <trkpt lat="43.2273" lon="5.61589">
        <ele>228.1</ele>
        <time>2021-04-14T14:52:53Z</time>
      </trkpt>
      <trkpt lat="43.22727" lon="5.61584">
        <ele>228.4</ele>
        <time>2021-04-14T14:53:01Z</time>
      </trkpt>
      <trkpt lat="43.22726" lon="5.61577">
        <ele>228.3</ele>
        <time>2021-04-14T14:53:07Z</time>
      </trkpt>
      <trkpt lat="43.22727" lon="5.61571">
        <ele>228.2</ele>
        <time>2021-04-14T14:53:13Z</time>
      </trkpt>
      <trkpt lat="43.22732" lon="5.61569">
        <ele>228.2</ele>
        <time>2021-04-14T14:53:21Z</time>
      </trkpt>
      <trkpt lat="43.22734" lon="5.61563">
        <ele>228.1</ele>
        <time>2021-04-14T14:53:29Z</time>
      </trkpt>
      <trkpt lat="43.22738" lon="5.61557">
        <ele>228.1</ele>
        <time>2021-04-14T14:53:37Z</time>
      </trkpt>
      <trkpt lat="43.22742" lon="5.6155">
        <ele>228</ele>
        <time>2021-04-14T14:53:43Z</time>
      </trkpt>
      <trkpt lat="43.22743" lon="5.61543">
        <ele>227.9</ele>
        <time>2021-04-14T14:53:49Z</time>
      </trkpt>
      <trkpt lat="43.22742" lon="5.61537">
        <ele>227.7</ele>
        <time>2021-04-14T14:53:53Z</time>
      </trkpt>
      <trkpt lat="43.22741" lon="5.61531">
        <ele>227.5</ele>
        <time>2021-04-14T14:53:57Z</time>
      </trkpt>
      <trkpt lat="43.22741" lon="5.61525">
        <ele>227.4</ele>
        <time>2021-04-14T14:54:01Z</time>
      </trkpt>
      <trkpt lat="43.22742" lon="5.61517">
        <ele>227.2</ele>
        <time>2021-04-14T14:54:09Z</time>
      </trkpt>
      <trkpt lat="43.22744" lon="5.61509">
        <ele>227.1</ele>
        <time>2021-04-14T14:54:15Z</time>
      </trkpt>
      <trkpt lat="43.22745" lon="5.61501">
        <ele>226.9</ele>
        <time>2021-04-14T14:54:21Z</time>
      </trkpt>
      <trkpt lat="43.22744" lon="5.61494">
        <ele>229.5</ele>
        <time>2021-04-14T14:54:27Z</time>
      </trkpt>
      <trkpt lat="43.22742" lon="5.61488">
        <ele>231.9</ele>
        <time>2021-04-14T14:54:35Z</time>
      </trkpt>
      <trkpt lat="43.22739" lon="5.61483">
        <ele>233.8</ele>
        <time>2021-04-14T14:54:43Z</time>
      </trkpt>
      <trkpt lat="43.22734" lon="5.61479">
        <ele>235.3</ele>
        <time>2021-04-14T14:54:49Z</time>
      </trkpt>
      <trkpt lat="43.22729" lon="5.61476">
        <ele>236.5</ele>
        <time>2021-04-14T14:54:53Z</time>
      </trkpt>
      <trkpt lat="43.22724" lon="5.61471">
        <ele>238.5</ele>
        <time>2021-04-14T14:54:57Z</time>
      </trkpt>
      <trkpt lat="43.22718" lon="5.61469">
        <ele>239.3</ele>
        <time>2021-04-14T14:55:03Z</time>
      </trkpt>
      <trkpt lat="43.22713" lon="5.61468">
        <ele>239.7</ele>
        <time>2021-04-14T14:55:09Z</time>
      </trkpt>
      <trkpt lat="43.22707" lon="5.61469">
        <ele>239</ele>
        <time>2021-04-14T14:55:15Z</time>
      </trkpt>
      <trkpt lat="43.22702" lon="5.61471">
        <ele>237.9</ele>
        <time>2021-04-14T14:55:19Z</time>
      </trkpt>
      <trkpt lat="43.22696" lon="5.61473">
        <ele>237.2</ele>
        <time>2021-04-14T14:55:25Z</time>
      </trkpt>
      <trkpt lat="43.22691" lon="5.61474">
        <ele>236.7</ele>
        <time>2021-04-14T14:55:33Z</time>
      </trkpt>
      <trkpt lat="43.22686" lon="5.61471">
        <ele>237.7</ele>
        <time>2021-04-14T14:55:47Z</time>
      </trkpt>
      <trkpt lat="43.22682" lon="5.61476">
        <ele>235.6</ele>
        <time>2021-04-14T14:56:03Z</time>
      </trkpt>
      <trkpt lat="43.22677" lon="5.61476">
        <ele>235.3</ele>
        <time>2021-04-14T14:56:23Z</time>
      </trkpt>
      <trkpt lat="43.22671" lon="5.61476">
        <ele>235.1</ele>
        <time>2021-04-14T14:56:51Z</time>
      </trkpt>
      <trkpt lat="43.22666" lon="5.61477">
        <ele>234.5</ele>
        <time>2021-04-14T14:57:01Z</time>
      </trkpt>
      <trkpt lat="43.22661" lon="5.61482">
        <ele>233</ele>
        <time>2021-04-14T14:57:11Z</time>
      </trkpt>
      <trkpt lat="43.22656" lon="5.6148">
        <ele>234.1</ele>
        <time>2021-04-14T14:57:17Z</time>
      </trkpt>
      <trkpt lat="43.22651" lon="5.6148">
        <ele>234.7</ele>
        <time>2021-04-14T14:57:25Z</time>
      </trkpt>
      <trkpt lat="43.22647" lon="5.61482">
        <ele>234.1</ele>
        <time>2021-04-14T14:57:31Z</time>
      </trkpt>
      <trkpt lat="43.22643" lon="5.61488">
        <ele>232.2</ele>
        <time>2021-04-14T14:58:15Z</time>
      </trkpt>
      <trkpt lat="43.22639" lon="5.61492">
        <ele>230.9</ele>
        <time>2021-04-14T14:58:53Z</time>
      </trkpt>
      <trkpt lat="43.22635" lon="5.61495">
        <ele>230.2</ele>
        <time>2021-04-14T14:58:59Z</time>
      </trkpt>
      <trkpt lat="43.2263" lon="5.61499">
        <ele>228.9</ele>
        <time>2021-04-14T14:59:05Z</time>
      </trkpt>
      <trkpt lat="43.22626" lon="5.61505">
        <ele>228</ele>
        <time>2021-04-14T14:59:11Z</time>
      </trkpt>
      <trkpt lat="43.22623" lon="5.61511">
        <ele>227.1</ele>
        <time>2021-04-14T14:59:17Z</time>
      </trkpt>
      <trkpt lat="43.22621" lon="5.61518">
        <ele>226</ele>
        <time>2021-04-14T14:59:25Z</time>
      </trkpt>
      <trkpt lat="43.22618" lon="5.61524">
        <ele>224.8</ele>
        <time>2021-04-14T14:59:33Z</time>
      </trkpt>
      <trkpt lat="43.22615" lon="5.6153">
        <ele>223.4</ele>
        <time>2021-04-14T14:59:39Z</time>
      </trkpt>
      <trkpt lat="43.22612" lon="5.61536">
        <ele>221.7</ele>
        <time>2021-04-14T14:59:45Z</time>
      </trkpt>
      <trkpt lat="43.2261" lon="5.61542">
        <ele>220.1</ele>
        <time>2021-04-14T14:59:51Z</time>
      </trkpt>
      <trkpt lat="43.22607" lon="5.61547">
        <ele>218.6</ele>
        <time>2021-04-14T14:59:59Z</time>
      </trkpt>
      <trkpt lat="43.22602" lon="5.6155">
        <ele>217.2</ele>
        <time>2021-04-14T15:00:05Z</time>
      </trkpt>
      <trkpt lat="43.22598" lon="5.61552">
        <ele>215.8</ele>
        <time>2021-04-14T15:00:11Z</time>
      </trkpt>
      <trkpt lat="43.22593" lon="5.61555">
        <ele>214.2</ele>
        <time>2021-04-14T15:00:15Z</time>
      </trkpt>
      <trkpt lat="43.2259" lon="5.61559">
        <ele>212.2</ele>
        <time>2021-04-14T15:00:19Z</time>
      </trkpt>
      <trkpt lat="43.22585" lon="5.61565">
        <ele>209.3</ele>
        <time>2021-04-14T15:00:25Z</time>
      </trkpt>
      <trkpt lat="43.22581" lon="5.61569">
        <ele>207.8</ele>
        <time>2021-04-14T15:00:31Z</time>
      </trkpt>
      <trkpt lat="43.22577" lon="5.61574">
        <ele>206.8</ele>
        <time>2021-04-14T15:00:37Z</time>
      </trkpt>
      <trkpt lat="43.22573" lon="5.61576">
        <ele>207</ele>
        <time>2021-04-14T15:00:43Z</time>
      </trkpt>
      <trkpt lat="43.22568" lon="5.61578">
        <ele>207.1</ele>
        <time>2021-04-14T15:00:49Z</time>
      </trkpt>
      <trkpt lat="43.22563" lon="5.61582">
        <ele>206.9</ele>
        <time>2021-04-14T15:00:57Z</time>
      </trkpt>
      <trkpt lat="43.2256" lon="5.61586">
        <ele>206.7</ele>
        <time>2021-04-14T15:01:05Z</time>
      </trkpt>
      <trkpt lat="43.22561" lon="5.61592">
        <ele>205.7</ele>
        <time>2021-04-14T15:01:47Z</time>
      </trkpt>
      <trkpt lat="43.22556" lon="5.61596">
        <ele>206</ele>
        <time>2021-04-14T15:02:21Z</time>
      </trkpt>
      <trkpt lat="43.22552" lon="5.616">
        <ele>206.4</ele>
        <time>2021-04-14T15:02:33Z</time>
      </trkpt>
      <trkpt lat="43.22548" lon="5.61603">
        <ele>206.5</ele>
        <time>2021-04-14T15:02:39Z</time>
      </trkpt>
      <trkpt lat="43.22543" lon="5.61608">
        <ele>206.3</ele>
        <time>2021-04-14T15:02:47Z</time>
      </trkpt>
      <trkpt lat="43.22539" lon="5.61612">
        <ele>206.2</ele>
        <time>2021-04-14T15:02:53Z</time>
      </trkpt>
      <trkpt lat="43.22537" lon="5.61618">
        <ele>205.3</ele>
        <time>2021-04-14T15:02:59Z</time>
      </trkpt>
      <trkpt lat="43.22536" lon="5.61624">
        <ele>204.3</ele>
        <time>2021-04-14T15:03:03Z</time>
      </trkpt>
      <trkpt lat="43.22533" lon="5.61628">
        <ele>203.8</ele>
        <time>2021-04-14T15:03:09Z</time>
      </trkpt>
      <trkpt lat="43.2253" lon="5.61634">
        <ele>203</ele>
        <time>2021-04-14T15:03:15Z</time>
      </trkpt>
      <trkpt lat="43.22531" lon="5.6164">
        <ele>201.6</ele>
        <time>2021-04-14T15:03:21Z</time>
      </trkpt>
      <trkpt lat="43.22531" lon="5.61646">
        <ele>200.3</ele>
        <time>2021-04-14T15:03:25Z</time>
      </trkpt>
      <trkpt lat="43.22532" lon="5.61652">
        <ele>198.9</ele>
        <time>2021-04-14T15:03:29Z</time>
      </trkpt>
      <trkpt lat="43.22533" lon="5.61661">
        <ele>197.1</ele>
        <time>2021-04-14T15:03:35Z</time>
      </trkpt>
      <trkpt lat="43.22533" lon="5.6167">
        <ele>196.2</ele>
        <time>2021-04-14T15:03:41Z</time>
      </trkpt>
      <trkpt lat="43.22533" lon="5.61676">
        <ele>196.5</ele>
        <time>2021-04-14T15:03:45Z</time>
      </trkpt>
      <trkpt lat="43.22534" lon="5.61682">
        <ele>196.9</ele>
        <time>2021-04-14T15:03:49Z</time>
      </trkpt>
      <trkpt lat="43.22535" lon="5.61691">
        <ele>197.5</ele>
        <time>2021-04-14T15:03:55Z</time>
      </trkpt>
      <trkpt lat="43.22536" lon="5.61699">
        <ele>198.1</ele>
        <time>2021-04-14T15:04:01Z</time>
      </trkpt>
      <trkpt lat="43.22536" lon="5.61708">
        <ele>198.6</ele>
        <time>2021-04-14T15:04:07Z</time>
      </trkpt>
      <trkpt lat="43.22535" lon="5.61715">
        <ele>199</ele>
        <time>2021-04-14T15:04:13Z</time>
      </trkpt>
      <trkpt lat="43.22534" lon="5.61723">
        <ele>199.3</ele>
        <time>2021-04-14T15:04:19Z</time>
      </trkpt>
      <trkpt lat="43.22531" lon="5.6173">
        <ele>199.3</ele>
        <time>2021-04-14T15:04:25Z</time>
      </trkpt>
      <trkpt lat="43.22527" lon="5.61734">
        <ele>198.8</ele>
        <time>2021-04-14T15:04:31Z</time>
      </trkpt>
      <trkpt lat="43.22522" lon="5.61739">
        <ele>198.1</ele>
        <time>2021-04-14T15:04:37Z</time>
      </trkpt>
      <trkpt lat="43.22518" lon="5.61742">
        <ele>197.5</ele>
        <time>2021-04-14T15:04:41Z</time>
      </trkpt>
      <trkpt lat="43.22513" lon="5.61747">
        <ele>196.7</ele>
        <time>2021-04-14T15:04:47Z</time>
      </trkpt>
      <trkpt lat="43.22509" lon="5.61746">
        <ele>195.8</ele>
        <time>2021-04-14T15:04:53Z</time>
      </trkpt>
      <trkpt lat="43.22504" lon="5.61742">
        <ele>195</ele>
        <time>2021-04-14T15:04:59Z</time>
      </trkpt>
      <trkpt lat="43.22501" lon="5.61736">
        <ele>194.4</ele>
        <time>2021-04-14T15:05:05Z</time>
      </trkpt>
      <trkpt lat="43.22496" lon="5.61733">
        <ele>194.3</ele>
        <time>2021-04-14T15:05:11Z</time>
      </trkpt>
      <trkpt lat="43.22491" lon="5.6173">
        <ele>194.2</ele>
        <time>2021-04-14T15:05:19Z</time>
      </trkpt>
      <trkpt lat="43.22485" lon="5.61729">
        <ele>194.1</ele>
        <time>2021-04-14T15:05:25Z</time>
      </trkpt>
      <trkpt lat="43.2248" lon="5.61728">
        <ele>194.1</ele>
        <time>2021-04-14T15:05:31Z</time>
      </trkpt>
      <trkpt lat="43.22474" lon="5.61725">
        <ele>194.1</ele>
        <time>2021-04-14T15:05:37Z</time>
      </trkpt>
      <trkpt lat="43.22469" lon="5.61722">
        <ele>194.2</ele>
        <time>2021-04-14T15:05:43Z</time>
      </trkpt>
      <trkpt lat="43.22464" lon="5.61719">
        <ele>194.3</ele>
        <time>2021-04-14T15:05:49Z</time>
      </trkpt>
      <trkpt lat="43.22458" lon="5.61715">
        <ele>194.5</ele>
        <time>2021-04-14T15:05:55Z</time>
      </trkpt>
      <trkpt lat="43.22453" lon="5.61711">
        <ele>194.8</ele>
        <time>2021-04-14T15:05:59Z</time>
      </trkpt>
      <trkpt lat="43.22448" lon="5.61709">
        <ele>194.9</ele>
        <time>2021-04-14T15:06:05Z</time>
      </trkpt>
      <trkpt lat="43.22443" lon="5.61705">
        <ele>195.3</ele>
        <time>2021-04-14T15:06:11Z</time>
      </trkpt>
      <trkpt lat="43.22438" lon="5.61704">
        <ele>195.5</ele>
        <time>2021-04-14T15:06:15Z</time>
      </trkpt>
      <trkpt lat="43.22431" lon="5.61705">
        <ele>195.4</ele>
        <time>2021-04-14T15:06:21Z</time>
      </trkpt>
      <trkpt lat="43.22426" lon="5.61707">
        <ele>195.1</ele>
        <time>2021-04-14T15:06:25Z</time>
      </trkpt>
      <trkpt lat="43.2242" lon="5.61711">
        <ele>194.7</ele>
        <time>2021-04-14T15:06:31Z</time>
      </trkpt>
      <trkpt lat="43.22414" lon="5.61714">
        <ele>194.1</ele>
        <time>2021-04-14T15:06:37Z</time>
      </trkpt>
      <trkpt lat="43.22409" lon="5.61719">
        <ele>193.2</ele>
        <time>2021-04-14T15:06:43Z</time>
      </trkpt>
      <trkpt lat="43.22404" lon="5.61723">
        <ele>192.4</ele>
        <time>2021-04-14T15:06:49Z</time>
      </trkpt>
      <trkpt lat="43.22399" lon="5.61726">
        <ele>191.6</ele>
        <time>2021-04-14T15:06:55Z</time>
      </trkpt>
      <trkpt lat="43.22394" lon="5.61728">
        <ele>190.9</ele>
        <time>2021-04-14T15:07:01Z</time>
      </trkpt>
      <trkpt lat="43.22389" lon="5.61726">
        <ele>190.8</ele>
        <time>2021-04-14T15:07:07Z</time>
      </trkpt>
      <trkpt lat="43.22384" lon="5.61722">
        <ele>191.2</ele>
        <time>2021-04-14T15:07:15Z</time>
      </trkpt>
      <trkpt lat="43.22379" lon="5.61718">
        <ele>191.6</ele>
        <time>2021-04-14T15:07:21Z</time>
      </trkpt>
      <trkpt lat="43.22374" lon="5.61716">
        <ele>191.7</ele>
        <time>2021-04-14T15:07:27Z</time>
      </trkpt>
      <trkpt lat="43.22369" lon="5.61714">
        <ele>191.9</ele>
        <time>2021-04-14T15:07:33Z</time>
      </trkpt>
      <trkpt lat="43.22363" lon="5.61713">
        <ele>191.7</ele>
        <time>2021-04-14T15:07:39Z</time>
      </trkpt>
      <trkpt lat="43.22358" lon="5.61713">
        <ele>191.5</ele>
        <time>2021-04-14T15:07:43Z</time>
      </trkpt>
      <trkpt lat="43.22352" lon="5.61714">
        <ele>190.9</ele>
        <time>2021-04-14T15:07:51Z</time>
      </trkpt>
      <trkpt lat="43.22347" lon="5.61716">
        <ele>190.2</ele>
        <time>2021-04-14T15:07:57Z</time>
      </trkpt>
      <trkpt lat="43.22342" lon="5.61719">
        <ele>189.2</ele>
        <time>2021-04-14T15:08:03Z</time>
      </trkpt>
      <trkpt lat="43.22337" lon="5.61721">
        <ele>188.2</ele>
        <time>2021-04-14T15:08:07Z</time>
      </trkpt>
      <trkpt lat="43.22333" lon="5.61724">
        <ele>187.4</ele>
        <time>2021-04-14T15:08:11Z</time>
      </trkpt>
      <trkpt lat="43.22331" lon="5.61731">
        <ele>186</ele>
        <time>2021-04-14T15:08:17Z</time>
      </trkpt>
      <trkpt lat="43.22329" lon="5.61737">
        <ele>184.6</ele>
        <time>2021-04-14T15:08:21Z</time>
      </trkpt>
      <trkpt lat="43.22327" lon="5.61746">
        <ele>182.8</ele>
        <time>2021-04-14T15:08:27Z</time>
      </trkpt>
      <trkpt lat="43.22326" lon="5.61752">
        <ele>182</ele>
        <time>2021-04-14T15:08:31Z</time>
      </trkpt>
      <trkpt lat="43.22327" lon="5.6176">
        <ele>181.8</ele>
        <time>2021-04-14T15:08:37Z</time>
      </trkpt>
      <trkpt lat="43.22327" lon="5.61768">
        <ele>181.5</ele>
        <time>2021-04-14T15:08:43Z</time>
      </trkpt>
      <trkpt lat="43.22328" lon="5.61774">
        <ele>181</ele>
        <time>2021-04-14T15:08:49Z</time>
      </trkpt>
      <trkpt lat="43.2233" lon="5.61781">
        <ele>180.6</ele>
        <time>2021-04-14T15:08:57Z</time>
      </trkpt>
      <trkpt lat="43.22334" lon="5.61782">
        <ele>179.7</ele>
        <time>2021-04-14T15:10:01Z</time>
      </trkpt>
      <trkpt lat="43.22334" lon="5.6179">
        <ele>179.7</ele>
        <time>2021-04-14T15:11:43Z</time>
      </trkpt>
      <trkpt lat="43.22335" lon="5.61798">
        <ele>179.7</ele>
        <time>2021-04-14T15:11:51Z</time>
      </trkpt>
      <trkpt lat="43.22336" lon="5.61807">
        <ele>179.9</ele>
        <time>2021-04-14T15:11:57Z</time>
      </trkpt>
      <trkpt lat="43.22336" lon="5.61815">
        <ele>179.9</ele>
        <time>2021-04-14T15:12:03Z</time>
      </trkpt>
      <trkpt lat="43.22335" lon="5.61823">
        <ele>179.6</ele>
        <time>2021-04-14T15:12:09Z</time>
      </trkpt>
      <trkpt lat="43.22332" lon="5.61829">
        <ele>179.2</ele>
        <time>2021-04-14T15:12:15Z</time>
      </trkpt>
      <trkpt lat="43.22329" lon="5.61834">
        <ele>179.9</ele>
        <time>2021-04-14T15:12:21Z</time>
      </trkpt>
      <trkpt lat="43.22326" lon="5.61839">
        <ele>180.5</ele>
        <time>2021-04-14T15:12:27Z</time>
      </trkpt>
      <trkpt lat="43.22321" lon="5.61845">
        <ele>181.2</ele>
        <time>2021-04-14T15:12:33Z</time>
      </trkpt>
      <trkpt lat="43.22317" lon="5.61852">
        <ele>182</ele>
        <time>2021-04-14T15:12:39Z</time>
      </trkpt>
      <trkpt lat="43.22314" lon="5.61857">
        <ele>182.4</ele>
        <time>2021-04-14T15:12:43Z</time>
      </trkpt>
      <trkpt lat="43.22311" lon="5.61862">
        <ele>182.9</ele>
        <time>2021-04-14T15:12:47Z</time>
      </trkpt>
      <trkpt lat="43.22308" lon="5.61869">
        <ele>183.2</ele>
        <time>2021-04-14T15:12:53Z</time>
      </trkpt>
      <trkpt lat="43.22306" lon="5.61876">
        <ele>183.2</ele>
        <time>2021-04-14T15:12:59Z</time>
      </trkpt>
      <trkpt lat="43.22307" lon="5.61883">
        <ele>182.8</ele>
        <time>2021-04-14T15:13:05Z</time>
      </trkpt>
      <trkpt lat="43.22312" lon="5.61888">
        <ele>181.6</ele>
        <time>2021-04-14T15:13:09Z</time>
      </trkpt>
      <trkpt lat="43.22316" lon="5.61894">
        <ele>180.6</ele>
        <time>2021-04-14T15:13:13Z</time>
      </trkpt>
      <trkpt lat="43.22319" lon="5.61899">
        <ele>179.9</ele>
        <time>2021-04-14T15:13:17Z</time>
      </trkpt>
      <trkpt lat="43.22323" lon="5.61903">
        <ele>179.1</ele>
        <time>2021-04-14T15:13:23Z</time>
      </trkpt>
      <trkpt lat="43.22326" lon="5.61908">
        <ele>178.4</ele>
        <time>2021-04-14T15:13:29Z</time>
      </trkpt>
      <trkpt lat="43.22326" lon="5.61915">
        <ele>178.3</ele>
        <time>2021-04-14T15:13:35Z</time>
      </trkpt>
      <trkpt lat="43.22325" lon="5.61922">
        <ele>178.3</ele>
        <time>2021-04-14T15:13:41Z</time>
      </trkpt>
      <trkpt lat="43.22325" lon="5.6193">
        <ele>178.1</ele>
        <time>2021-04-14T15:13:47Z</time>
      </trkpt>
      <trkpt lat="43.22325" lon="5.61937">
        <ele>177.9</ele>
        <time>2021-04-14T15:13:51Z</time>
      </trkpt>
      <trkpt lat="43.22325" lon="5.61944">
        <ele>177.7</ele>
        <time>2021-04-14T15:13:55Z</time>
      </trkpt>
      <trkpt lat="43.22326" lon="5.6195">
        <ele>177.5</ele>
        <time>2021-04-14T15:13:59Z</time>
      </trkpt>
      <trkpt lat="43.22326" lon="5.61958">
        <ele>177.4</ele>
        <time>2021-04-14T15:14:03Z</time>
      </trkpt>
      <trkpt lat="43.22326" lon="5.61965">
        <ele>177.1</ele>
        <time>2021-04-14T15:14:07Z</time>
      </trkpt>
      <trkpt lat="43.22329" lon="5.61972">
        <ele>176.4</ele>
        <time>2021-04-14T15:14:13Z</time>
      </trkpt>
      <trkpt lat="43.22328" lon="5.61981">
        <ele>176.3</ele>
        <time>2021-04-14T15:14:19Z</time>
      </trkpt>
      <trkpt lat="43.22329" lon="5.6199">
        <ele>176</ele>
        <time>2021-04-14T15:14:25Z</time>
      </trkpt>
      <trkpt lat="43.22329" lon="5.61996">
        <ele>175.8</ele>
        <time>2021-04-14T15:14:31Z</time>
      </trkpt>
      <trkpt lat="43.22331" lon="5.62003">
        <ele>175.3</ele>
        <time>2021-04-14T15:14:37Z</time>
      </trkpt>
      <trkpt lat="43.22332" lon="5.6201">
        <ele>174.6</ele>
        <time>2021-04-14T15:14:45Z</time>
      </trkpt>
      <trkpt lat="43.22334" lon="5.62016">
        <ele>174.2</ele>
        <time>2021-04-14T15:14:51Z</time>
      </trkpt>
      <trkpt lat="43.22335" lon="5.62022">
        <ele>174</ele>
        <time>2021-04-14T15:14:55Z</time>
      </trkpt>
      <trkpt lat="43.22336" lon="5.6203">
        <ele>173.8</ele>
        <time>2021-04-14T15:15:05Z</time>
      </trkpt>
      <trkpt lat="43.22335" lon="5.62037">
        <ele>173.3</ele>
        <time>2021-04-14T15:15:15Z</time>
      </trkpt>
      <trkpt lat="43.22334" lon="5.62044">
        <ele>172.6</ele>
        <time>2021-04-14T15:15:25Z</time>
      </trkpt>
      <trkpt lat="43.22334" lon="5.62051">
        <ele>172.2</ele>
        <time>2021-04-14T15:15:31Z</time>
      </trkpt>
      <trkpt lat="43.22335" lon="5.6206">
        <ele>171.9</ele>
        <time>2021-04-14T15:15:39Z</time>
      </trkpt>
      <trkpt lat="43.22334" lon="5.62066">
        <ele>171.2</ele>
        <time>2021-04-14T15:15:45Z</time>
      </trkpt>
      <trkpt lat="43.22332" lon="5.62074">
        <ele>170.8</ele>
        <time>2021-04-14T15:15:53Z</time>
      </trkpt>
      <trkpt lat="43.22328" lon="5.6208">
        <ele>171.1</ele>
        <time>2021-04-14T15:16:01Z</time>
      </trkpt>
      <trkpt lat="43.22324" lon="5.62086">
        <ele>171.4</ele>
        <time>2021-04-14T15:16:07Z</time>
      </trkpt>
      <trkpt lat="43.22323" lon="5.62093">
        <ele>171.4</ele>
        <time>2021-04-14T15:16:13Z</time>
      </trkpt>
      <trkpt lat="43.22324" lon="5.62099">
        <ele>171</ele>
        <time>2021-04-14T15:16:17Z</time>
      </trkpt>
      <trkpt lat="43.22324" lon="5.62106">
        <ele>170.7</ele>
        <time>2021-04-14T15:16:23Z</time>
      </trkpt>
      <trkpt lat="43.22323" lon="5.62113">
        <ele>170.6</ele>
        <time>2021-04-14T15:16:29Z</time>
      </trkpt>
      <trkpt lat="43.22319" lon="5.6212">
        <ele>170.7</ele>
        <time>2021-04-14T15:16:37Z</time>
      </trkpt>
      <trkpt lat="43.22316" lon="5.62126">
        <ele>170.8</ele>
        <time>2021-04-14T15:16:43Z</time>
      </trkpt>
      <trkpt lat="43.22314" lon="5.62133">
        <ele>170.5</ele>
        <time>2021-04-14T15:16:49Z</time>
      </trkpt>
      <trkpt lat="43.22311" lon="5.62139">
        <ele>170.4</ele>
        <time>2021-04-14T15:16:55Z</time>
      </trkpt>
      <trkpt lat="43.22308" lon="5.62143">
        <ele>170.4</ele>
        <time>2021-04-14T15:17:03Z</time>
      </trkpt>
      <trkpt lat="43.22304" lon="5.62149">
        <ele>170.3</ele>
        <time>2021-04-14T15:17:11Z</time>
      </trkpt>
      <trkpt lat="43.223" lon="5.62152">
        <ele>170.3</ele>
        <time>2021-04-14T15:17:17Z</time>
      </trkpt>
      <trkpt lat="43.22295" lon="5.62157">
        <ele>170.2</ele>
        <time>2021-04-14T15:17:25Z</time>
      </trkpt>
      <trkpt lat="43.22292" lon="5.62162">
        <ele>169.9</ele>
        <time>2021-04-14T15:17:29Z</time>
      </trkpt>
      <trkpt lat="43.22291" lon="5.62169">
        <ele>169.4</ele>
        <time>2021-04-14T15:17:35Z</time>
      </trkpt>
      <trkpt lat="43.22293" lon="5.62176">
        <ele>168.9</ele>
        <time>2021-04-14T15:17:41Z</time>
      </trkpt>
      <trkpt lat="43.22291" lon="5.62183">
        <ele>168.5</ele>
        <time>2021-04-14T15:17:47Z</time>
      </trkpt>
      <trkpt lat="43.2229" lon="5.6219">
        <ele>167.9</ele>
        <time>2021-04-14T15:17:57Z</time>
      </trkpt>
      <trkpt lat="43.22288" lon="5.62196">
        <ele>167.5</ele>
        <time>2021-04-14T15:18:03Z</time>
      </trkpt>
      <trkpt lat="43.22287" lon="5.62203">
        <ele>166.8</ele>
        <time>2021-04-14T15:18:09Z</time>
      </trkpt>
      <trkpt lat="43.22286" lon="5.6221">
        <ele>166.2</ele>
        <time>2021-04-14T15:18:15Z</time>
      </trkpt>
      <trkpt lat="43.22285" lon="5.62217">
        <ele>165.6</ele>
        <time>2021-04-14T15:18:21Z</time>
      </trkpt>
      <trkpt lat="43.22284" lon="5.62224">
        <ele>164.8</ele>
        <time>2021-04-14T15:18:25Z</time>
      </trkpt>
      <trkpt lat="43.22282" lon="5.6223">
        <ele>164.2</ele>
        <time>2021-04-14T15:18:29Z</time>
      </trkpt>
      <trkpt lat="43.22279" lon="5.62237">
        <ele>163.1</ele>
        <time>2021-04-14T15:18:35Z</time>
      </trkpt>
      <trkpt lat="43.22275" lon="5.62243">
        <ele>162</ele>
        <time>2021-04-14T15:18:41Z</time>
      </trkpt>
      <trkpt lat="43.2227" lon="5.62247">
        <ele>160.7</ele>
        <time>2021-04-14T15:18:47Z</time>
      </trkpt>
      <trkpt lat="43.22266" lon="5.62252">
        <ele>159.5</ele>
        <time>2021-04-14T15:18:53Z</time>
      </trkpt>
      <trkpt lat="43.22262" lon="5.62259">
        <ele>158</ele>
        <time>2021-04-14T15:19:01Z</time>
      </trkpt>
      <trkpt lat="43.22259" lon="5.62264">
        <ele>156.7</ele>
        <time>2021-04-14T15:19:07Z</time>
      </trkpt>
      <trkpt lat="43.22256" lon="5.62269">
        <ele>155.5</ele>
        <time>2021-04-14T15:19:13Z</time>
      </trkpt>
      <trkpt lat="43.22252" lon="5.62274">
        <ele>154.2</ele>
        <time>2021-04-14T15:19:19Z</time>
      </trkpt>
      <trkpt lat="43.2225" lon="5.62279">
        <ele>153.2</ele>
        <time>2021-04-14T15:19:25Z</time>
      </trkpt>
      <trkpt lat="43.22246" lon="5.62283">
        <ele>153.2</ele>
        <time>2021-04-14T15:19:31Z</time>
      </trkpt>
      <trkpt lat="43.22242" lon="5.62288">
        <ele>152.9</ele>
        <time>2021-04-14T15:19:37Z</time>
      </trkpt>
      <trkpt lat="43.22239" lon="5.62295">
        <ele>152.2</ele>
        <time>2021-04-14T15:19:43Z</time>
      </trkpt>
      <trkpt lat="43.22237" lon="5.62302">
        <ele>151.4</ele>
        <time>2021-04-14T15:19:49Z</time>
      </trkpt>
      <trkpt lat="43.22236" lon="5.6231">
        <ele>150.1</ele>
        <time>2021-04-14T15:19:55Z</time>
      </trkpt>
      <trkpt lat="43.22235" lon="5.62317">
        <ele>149.2</ele>
        <time>2021-04-14T15:20:01Z</time>
      </trkpt>
      <trkpt lat="43.22236" lon="5.62323">
        <ele>148.1</ele>
        <time>2021-04-14T15:20:07Z</time>
      </trkpt>
      <trkpt lat="43.22234" lon="5.62331">
        <ele>146.9</ele>
        <time>2021-04-14T15:20:13Z</time>
      </trkpt>
      <trkpt lat="43.2223" lon="5.62338">
        <ele>146.3</ele>
        <time>2021-04-14T15:20:23Z</time>
      </trkpt>
      <trkpt lat="43.22227" lon="5.62342">
        <ele>145.8</ele>
        <time>2021-04-14T15:20:31Z</time>
      </trkpt>
      <trkpt lat="43.22224" lon="5.62347">
        <ele>145.3</ele>
        <time>2021-04-14T15:20:37Z</time>
      </trkpt>
      <trkpt lat="43.22221" lon="5.62355">
        <ele>144.3</ele>
        <time>2021-04-14T15:20:45Z</time>
      </trkpt>
      <trkpt lat="43.22217" lon="5.62362">
        <ele>143.4</ele>
        <time>2021-04-14T15:20:51Z</time>
      </trkpt>
      <trkpt lat="43.22214" lon="5.62368">
        <ele>142.4</ele>
        <time>2021-04-14T15:20:57Z</time>
      </trkpt>
      <trkpt lat="43.22211" lon="5.62376">
        <ele>141.3</ele>
        <time>2021-04-14T15:21:03Z</time>
      </trkpt>
      <trkpt lat="43.22209" lon="5.62383">
        <ele>140.1</ele>
        <time>2021-04-14T15:21:09Z</time>
      </trkpt>
      <trkpt lat="43.22208" lon="5.6239">
        <ele>139</ele>
        <time>2021-04-14T15:21:15Z</time>
      </trkpt>
      <trkpt lat="43.22206" lon="5.62396">
        <ele>137.9</ele>
        <time>2021-04-14T15:21:21Z</time>
      </trkpt>
      <trkpt lat="43.22203" lon="5.62402">
        <ele>136.7</ele>
        <time>2021-04-14T15:21:27Z</time>
      </trkpt>
      <trkpt lat="43.222" lon="5.62408">
        <ele>135.5</ele>
        <time>2021-04-14T15:21:33Z</time>
      </trkpt>
      <trkpt lat="43.22198" lon="5.62414">
        <ele>134.3</ele>
        <time>2021-04-14T15:21:47Z</time>
      </trkpt>
      <trkpt lat="43.22197" lon="5.6242">
        <ele>133.9</ele>
        <time>2021-04-14T15:21:51Z</time>
      </trkpt>
      <trkpt lat="43.22196" lon="5.62426">
        <ele>134.2</ele>
        <time>2021-04-14T15:21:59Z</time>
      </trkpt>
      <trkpt lat="43.22193" lon="5.62431">
        <ele>134.3</ele>
        <time>2021-04-14T15:22:07Z</time>
      </trkpt>
      <trkpt lat="43.22191" lon="5.62437">
        <ele>134.7</ele>
        <time>2021-04-14T15:22:31Z</time>
      </trkpt>
      <trkpt lat="43.22193" lon="5.62443">
        <ele>135.3</ele>
        <time>2021-04-14T15:22:45Z</time>
      </trkpt>
      <trkpt lat="43.22193" lon="5.6245">
        <ele>135.9</ele>
        <time>2021-04-14T15:23:03Z</time>
      </trkpt>
      <trkpt lat="43.22189" lon="5.62453">
        <ele>136</ele>
        <time>2021-04-14T15:23:27Z</time>
      </trkpt>
      <trkpt lat="43.22184" lon="5.62457">
        <ele>136.1</ele>
        <time>2021-04-14T15:23:37Z</time>
      </trkpt>
      <trkpt lat="43.22179" lon="5.62459">
        <ele>136.1</ele>
        <time>2021-04-14T15:23:41Z</time>
      </trkpt>
      <trkpt lat="43.22174" lon="5.6246">
        <ele>136</ele>
        <time>2021-04-14T15:23:47Z</time>
      </trkpt>
      <trkpt lat="43.22169" lon="5.62457">
        <ele>135.4</ele>
        <time>2021-04-14T15:23:53Z</time>
      </trkpt>
      <trkpt lat="43.22164" lon="5.62452">
        <ele>134.6</ele>
        <time>2021-04-14T15:23:59Z</time>
      </trkpt>
      <trkpt lat="43.22161" lon="5.62445">
        <ele>133.6</ele>
        <time>2021-04-14T15:24:05Z</time>
      </trkpt>
      <trkpt lat="43.22157" lon="5.62439">
        <ele>132.6</ele>
        <time>2021-04-14T15:24:11Z</time>
      </trkpt>
      <trkpt lat="43.22155" lon="5.62433">
        <ele>131.7</ele>
        <time>2021-04-14T15:24:17Z</time>
      </trkpt>
      <trkpt lat="43.22153" lon="5.62427">
        <ele>130.7</ele>
        <time>2021-04-14T15:24:23Z</time>
      </trkpt>
      <trkpt lat="43.2215" lon="5.62421">
        <ele>129.8</ele>
        <time>2021-04-14T15:24:27Z</time>
      </trkpt>
      <trkpt lat="43.22148" lon="5.62415">
        <ele>129.5</ele>
        <time>2021-04-14T15:24:31Z</time>
      </trkpt>
      <trkpt lat="43.22146" lon="5.62408">
        <ele>131.1</ele>
        <time>2021-04-14T15:24:35Z</time>
      </trkpt>
      <trkpt lat="43.22144" lon="5.624">
        <ele>132.8</ele>
        <time>2021-04-14T15:24:39Z</time>
      </trkpt>
      <trkpt lat="43.22143" lon="5.62391">
        <ele>134.7</ele>
        <time>2021-04-14T15:24:43Z</time>
      </trkpt>
      <trkpt lat="43.22141" lon="5.62384">
        <ele>136.2</ele>
        <time>2021-04-14T15:24:47Z</time>
      </trkpt>
      <trkpt lat="43.22137" lon="5.6238">
        <ele>136.9</ele>
        <time>2021-04-14T15:24:51Z</time>
      </trkpt>
      <trkpt lat="43.22132" lon="5.62378">
        <ele>137.2</ele>
        <time>2021-04-14T15:24:55Z</time>
      </trkpt>
      <trkpt lat="43.22127" lon="5.62377">
        <ele>137.1</ele>
        <time>2021-04-14T15:24:59Z</time>
      </trkpt>
      <trkpt lat="43.22122" lon="5.62378">
        <ele>136.7</ele>
        <time>2021-04-14T15:25:03Z</time>
      </trkpt>
      <trkpt lat="43.22117" lon="5.62379">
        <ele>136.2</ele>
        <time>2021-04-14T15:25:07Z</time>
      </trkpt>
      <trkpt lat="43.22112" lon="5.6238">
        <ele>135.7</ele>
        <time>2021-04-14T15:25:11Z</time>
      </trkpt>
      <trkpt lat="43.22107" lon="5.62382">
        <ele>135.1</ele>
        <time>2021-04-14T15:25:15Z</time>
      </trkpt>
      <trkpt lat="43.22102" lon="5.62383">
        <ele>134.6</ele>
        <time>2021-04-14T15:25:19Z</time>
      </trkpt>
      <trkpt lat="43.22098" lon="5.62385">
        <ele>133.9</ele>
        <time>2021-04-14T15:25:23Z</time>
      </trkpt>
      <trkpt lat="43.22093" lon="5.62388">
        <ele>133</ele>
        <time>2021-04-14T15:25:27Z</time>
      </trkpt>
      <trkpt lat="43.22089" lon="5.62392">
        <ele>132</ele>
        <time>2021-04-14T15:25:31Z</time>
      </trkpt>
      <trkpt lat="43.22084" lon="5.62395">
        <ele>131</ele>
        <time>2021-04-14T15:25:35Z</time>
      </trkpt>
      <trkpt lat="43.22079" lon="5.62398">
        <ele>130.2</ele>
        <time>2021-04-14T15:25:39Z</time>
      </trkpt>
      <trkpt lat="43.22073" lon="5.62399">
        <ele>129.8</ele>
        <time>2021-04-14T15:25:45Z</time>
      </trkpt>
      <trkpt lat="43.22066" lon="5.62399">
        <ele>129.6</ele>
        <time>2021-04-14T15:25:51Z</time>
      </trkpt>
      <trkpt lat="43.2206" lon="5.624">
        <ele>129.2</ele>
        <time>2021-04-14T15:25:57Z</time>
      </trkpt>
      <trkpt lat="43.22054" lon="5.624">
        <ele>129.1</ele>
        <time>2021-04-14T15:26:03Z</time>
      </trkpt>
      <trkpt lat="43.22047" lon="5.62399">
        <ele>129.2</ele>
        <time>2021-04-14T15:26:09Z</time>
      </trkpt>
      <trkpt lat="43.22041" lon="5.62398">
        <ele>129</ele>
        <time>2021-04-14T15:26:15Z</time>
      </trkpt>
      <trkpt lat="43.22036" lon="5.62401">
        <ele>128.4</ele>
        <time>2021-04-14T15:26:19Z</time>
      </trkpt>
      <trkpt lat="43.22032" lon="5.62404">
        <ele>127.5</ele>
        <time>2021-04-14T15:26:23Z</time>
      </trkpt>
      <trkpt lat="43.22028" lon="5.62408">
        <ele>126.6</ele>
        <time>2021-04-14T15:26:27Z</time>
      </trkpt>
      <trkpt lat="43.22024" lon="5.62411">
        <ele>125.8</ele>
        <time>2021-04-14T15:26:31Z</time>
      </trkpt>
      <trkpt lat="43.2202" lon="5.62414">
        <ele>125</ele>
        <time>2021-04-14T15:26:35Z</time>
      </trkpt>
      <trkpt lat="43.22015" lon="5.62417">
        <ele>124.4</ele>
        <time>2021-04-14T15:26:39Z</time>
      </trkpt>
      <trkpt lat="43.22009" lon="5.62421">
        <ele>124.8</ele>
        <time>2021-04-14T15:26:45Z</time>
      </trkpt>
      <trkpt lat="43.22003" lon="5.62424">
        <ele>124.9</ele>
        <time>2021-04-14T15:26:51Z</time>
      </trkpt>
      <trkpt lat="43.21997" lon="5.62425">
        <ele>124.7</ele>
        <time>2021-04-14T15:26:57Z</time>
      </trkpt>
      <trkpt lat="43.21993" lon="5.62425">
        <ele>124.4</ele>
        <time>2021-04-14T15:27:01Z</time>
      </trkpt>
      <trkpt lat="43.21988" lon="5.62425">
        <ele>124.1</ele>
        <time>2021-04-14T15:27:05Z</time>
      </trkpt>
      <trkpt lat="43.21983" lon="5.62424">
        <ele>123.6</ele>
        <time>2021-04-14T15:27:09Z</time>
      </trkpt>
      <trkpt lat="43.21978" lon="5.62423">
        <ele>123.2</ele>
        <time>2021-04-14T15:27:13Z</time>
      </trkpt>
      <trkpt lat="43.21972" lon="5.62422">
        <ele>122.7</ele>
        <time>2021-04-14T15:27:19Z</time>
      </trkpt>
      <trkpt lat="43.21965" lon="5.62421">
        <ele>122</ele>
        <time>2021-04-14T15:27:25Z</time>
      </trkpt>
      <trkpt lat="43.21959" lon="5.62418">
        <ele>121.3</ele>
        <time>2021-04-14T15:27:31Z</time>
      </trkpt>
      <trkpt lat="43.21954" lon="5.62416">
        <ele>120.8</ele>
        <time>2021-04-14T15:27:37Z</time>
      </trkpt>
      <trkpt lat="43.2195" lon="5.62414">
        <ele>120.8</ele>
        <time>2021-04-14T15:27:41Z</time>
      </trkpt>
      <trkpt lat="43.21943" lon="5.62413">
        <ele>120.7</ele>
        <time>2021-04-14T15:27:47Z</time>
      </trkpt>
      <trkpt lat="43.21937" lon="5.62412">
        <ele>120.4</ele>
        <time>2021-04-14T15:27:53Z</time>
      </trkpt>
      <trkpt lat="43.21931" lon="5.62411">
        <ele>120.1</ele>
        <time>2021-04-14T15:27:59Z</time>
      </trkpt>
      <trkpt lat="43.21925" lon="5.62409">
        <ele>120.2</ele>
        <time>2021-04-14T15:28:05Z</time>
      </trkpt>
      <trkpt lat="43.21919" lon="5.62406">
        <ele>120.3</ele>
        <time>2021-04-14T15:28:11Z</time>
      </trkpt>
      <trkpt lat="43.21913" lon="5.62405">
        <ele>120.1</ele>
        <time>2021-04-14T15:28:17Z</time>
      </trkpt>
      <trkpt lat="43.21908" lon="5.62404">
        <ele>120.1</ele>
        <time>2021-04-14T15:28:23Z</time>
      </trkpt>
      <trkpt lat="43.21902" lon="5.62403">
        <ele>120.1</ele>
        <time>2021-04-14T15:28:29Z</time>
      </trkpt>
      <trkpt lat="43.21895" lon="5.62401">
        <ele>120.2</ele>
        <time>2021-04-14T15:28:35Z</time>
      </trkpt>
      <trkpt lat="43.2189" lon="5.62398">
        <ele>120.4</ele>
        <time>2021-04-14T15:28:41Z</time>
      </trkpt>
      <trkpt lat="43.21886" lon="5.62395">
        <ele>120.6</ele>
        <time>2021-04-14T15:28:45Z</time>
      </trkpt>
      <trkpt lat="43.21881" lon="5.62393">
        <ele>120.7</ele>
        <time>2021-04-14T15:28:49Z</time>
      </trkpt>
      <trkpt lat="43.21876" lon="5.6239">
        <ele>120.8</ele>
        <time>2021-04-14T15:28:53Z</time>
      </trkpt>
      <trkpt lat="43.21871" lon="5.62386">
        <ele>121</ele>
        <time>2021-04-14T15:28:59Z</time>
      </trkpt>
      <trkpt lat="43.21866" lon="5.62381">
        <ele>121.1</ele>
        <time>2021-04-14T15:29:05Z</time>
      </trkpt>
      <trkpt lat="43.21861" lon="5.62377">
        <ele>121.1</ele>
        <time>2021-04-14T15:29:11Z</time>
      </trkpt>
      <trkpt lat="43.21855" lon="5.62374">
        <ele>120.9</ele>
        <time>2021-04-14T15:29:17Z</time>
      </trkpt>
      <trkpt lat="43.21849" lon="5.62371">
        <ele>120.6</ele>
        <time>2021-04-14T15:29:23Z</time>
      </trkpt>
      <trkpt lat="43.21845" lon="5.6237">
        <ele>120.3</ele>
        <time>2021-04-14T15:29:27Z</time>
      </trkpt>
      <trkpt lat="43.2184" lon="5.62368">
        <ele>120</ele>
        <time>2021-04-14T15:29:31Z</time>
      </trkpt>
      <trkpt lat="43.21835" lon="5.62366">
        <ele>119.6</ele>
        <time>2021-04-14T15:29:37Z</time>
      </trkpt>
      <trkpt lat="43.2183" lon="5.62362">
        <ele>119.2</ele>
        <time>2021-04-14T15:29:41Z</time>
      </trkpt>
      <trkpt lat="43.21826" lon="5.6236">
        <ele>118.8</ele>
        <time>2021-04-14T15:29:45Z</time>
      </trkpt>
      <trkpt lat="43.21821" lon="5.62357">
        <ele>118.4</ele>
        <time>2021-04-14T15:29:49Z</time>
      </trkpt>
      <trkpt lat="43.21817" lon="5.62354">
        <ele>117.9</ele>
        <time>2021-04-14T15:29:53Z</time>
      </trkpt>
      <trkpt lat="43.21812" lon="5.62352">
        <ele>117.4</ele>
        <time>2021-04-14T15:29:57Z</time>
      </trkpt>
      <trkpt lat="43.21807" lon="5.6235">
        <ele>116.8</ele>
        <time>2021-04-14T15:30:01Z</time>
      </trkpt>
      <trkpt lat="43.21801" lon="5.62346">
        <ele>116.1</ele>
        <time>2021-04-14T15:30:07Z</time>
      </trkpt>
      <trkpt lat="43.21796" lon="5.62345">
        <ele>115.5</ele>
        <time>2021-04-14T15:30:11Z</time>
      </trkpt>
      <trkpt lat="43.21791" lon="5.62343">
        <ele>114.8</ele>
        <time>2021-04-14T15:30:15Z</time>
      </trkpt>
      <trkpt lat="43.21786" lon="5.6234">
        <ele>114.1</ele>
        <time>2021-04-14T15:30:21Z</time>
      </trkpt>
      <trkpt lat="43.21781" lon="5.62337">
        <ele>113.4</ele>
        <time>2021-04-14T15:30:27Z</time>
      </trkpt>
      <trkpt lat="43.21775" lon="5.62335">
        <ele>112.6</ele>
        <time>2021-04-14T15:30:33Z</time>
      </trkpt>
      <trkpt lat="43.2177" lon="5.62332">
        <ele>112</ele>
        <time>2021-04-14T15:30:39Z</time>
      </trkpt>
      <trkpt lat="43.21764" lon="5.62331">
        <ele>111.4</ele>
        <time>2021-04-14T15:30:45Z</time>
      </trkpt>
      <trkpt lat="43.21758" lon="5.62331">
        <ele>110.6</ele>
        <time>2021-04-14T15:30:53Z</time>
      </trkpt>
      <trkpt lat="43.21752" lon="5.62331">
        <ele>109.8</ele>
        <time>2021-04-14T15:30:59Z</time>
      </trkpt>
      <trkpt lat="43.21747" lon="5.62329">
        <ele>109.4</ele>
        <time>2021-04-14T15:31:05Z</time>
      </trkpt>
      <trkpt lat="43.21742" lon="5.62326">
        <ele>109.2</ele>
        <time>2021-04-14T15:31:11Z</time>
      </trkpt>
      <trkpt lat="43.21737" lon="5.62324">
        <ele>108.9</ele>
        <time>2021-04-14T15:31:17Z</time>
      </trkpt>
      <trkpt lat="43.21732" lon="5.62321">
        <ele>108.6</ele>
        <time>2021-04-14T15:31:23Z</time>
      </trkpt>
      <trkpt lat="43.21727" lon="5.62319">
        <ele>108.3</ele>
        <time>2021-04-14T15:31:29Z</time>
      </trkpt>
      <trkpt lat="43.21721" lon="5.62317">
        <ele>107.8</ele>
        <time>2021-04-14T15:31:35Z</time>
      </trkpt>
      <trkpt lat="43.21716" lon="5.62317">
        <ele>107.2</ele>
        <time>2021-04-14T15:31:39Z</time>
      </trkpt>
      <trkpt lat="43.2171" lon="5.62319">
        <ele>106.2</ele>
        <time>2021-04-14T15:31:45Z</time>
      </trkpt>
      <trkpt lat="43.21705" lon="5.62319">
        <ele>105.7</ele>
        <time>2021-04-14T15:31:49Z</time>
      </trkpt>
      <trkpt lat="43.21699" lon="5.62318">
        <ele>105.1</ele>
        <time>2021-04-14T15:31:55Z</time>
      </trkpt>
      <trkpt lat="43.21694" lon="5.62319">
        <ele>104.3</ele>
        <time>2021-04-14T15:32:01Z</time>
      </trkpt>
      <trkpt lat="43.21689" lon="5.62319">
        <ele>103.7</ele>
        <time>2021-04-14T15:32:07Z</time>
      </trkpt>
      <trkpt lat="43.21684" lon="5.62319">
        <ele>103.2</ele>
        <time>2021-04-14T15:32:11Z</time>
      </trkpt>
      <trkpt lat="43.21679" lon="5.62319">
        <ele>102.5</ele>
        <time>2021-04-14T15:32:17Z</time>
      </trkpt>
      <trkpt lat="43.21674" lon="5.62319">
        <ele>101.9</ele>
        <time>2021-04-14T15:32:21Z</time>
      </trkpt>
      <trkpt lat="43.21668" lon="5.6232">
        <ele>101.2</ele>
        <time>2021-04-14T15:32:27Z</time>
      </trkpt>
      <trkpt lat="43.21663" lon="5.62318">
        <ele>101.1</ele>
        <time>2021-04-14T15:32:35Z</time>
      </trkpt>
      <trkpt lat="43.21658" lon="5.62316">
        <ele>101.2</ele>
        <time>2021-04-14T15:32:41Z</time>
      </trkpt>
      <trkpt lat="43.21654" lon="5.62313">
        <ele>101.4</ele>
        <time>2021-04-14T15:32:47Z</time>
      </trkpt>
      <trkpt lat="43.2165" lon="5.62308">
        <ele>101.6</ele>
        <time>2021-04-14T15:32:53Z</time>
      </trkpt>
      <trkpt lat="43.21646" lon="5.62302">
        <ele>101.8</ele>
        <time>2021-04-14T15:32:59Z</time>
      </trkpt>
      <trkpt lat="43.2164" lon="5.62301">
        <ele>101.7</ele>
        <time>2021-04-14T15:33:05Z</time>
      </trkpt>
      <trkpt lat="43.21634" lon="5.62302">
        <ele>101.6</ele>
        <time>2021-04-14T15:33:09Z</time>
      </trkpt>
      <trkpt lat="43.21629" lon="5.62303">
        <ele>101.4</ele>
        <time>2021-04-14T15:33:13Z</time>
      </trkpt>
      <trkpt lat="43.21625" lon="5.62305">
        <ele>101.3</ele>
        <time>2021-04-14T15:33:17Z</time>
      </trkpt>
      <trkpt lat="43.21619" lon="5.62308">
        <ele>101.2</ele>
        <time>2021-04-14T15:33:23Z</time>
      </trkpt>
      <trkpt lat="43.21614" lon="5.62311">
        <ele>101.2</ele>
        <time>2021-04-14T15:33:29Z</time>
      </trkpt>
      <trkpt lat="43.21608" lon="5.62315">
        <ele>101.2</ele>
        <time>2021-04-14T15:33:35Z</time>
      </trkpt>
      <trkpt lat="43.21603" lon="5.62317">
        <ele>101.2</ele>
        <time>2021-04-14T15:33:41Z</time>
      </trkpt>
      <trkpt lat="43.21598" lon="5.6232">
        <ele>101.3</ele>
        <time>2021-04-14T15:33:47Z</time>
      </trkpt>
      <trkpt lat="43.21592" lon="5.62321">
        <ele>101.4</ele>
        <time>2021-04-14T15:33:51Z</time>
      </trkpt>
      <trkpt lat="43.21586" lon="5.62324">
        <ele>101.5</ele>
        <time>2021-04-14T15:33:55Z</time>
      </trkpt>
      <trkpt lat="43.2158" lon="5.62326">
        <ele>101.8</ele>
        <time>2021-04-14T15:34:01Z</time>
      </trkpt>
      <trkpt lat="43.21574" lon="5.62329">
        <ele>102.2</ele>
        <time>2021-04-14T15:34:07Z</time>
      </trkpt>
      <trkpt lat="43.21569" lon="5.62334">
        <ele>102.5</ele>
        <time>2021-04-14T15:34:13Z</time>
      </trkpt>
      <trkpt lat="43.21566" lon="5.62339">
        <ele>102.7</ele>
        <time>2021-04-14T15:34:19Z</time>
      </trkpt>
      <trkpt lat="43.21562" lon="5.62344">
        <ele>102.9</ele>
        <time>2021-04-14T15:34:25Z</time>
      </trkpt>
      <trkpt lat="43.21558" lon="5.62349">
        <ele>103</ele>
        <time>2021-04-14T15:34:31Z</time>
      </trkpt>
      <trkpt lat="43.21554" lon="5.62352">
        <ele>103.1</ele>
        <time>2021-04-14T15:34:39Z</time>
      </trkpt>
      <trkpt lat="43.21549" lon="5.62355">
        <ele>103.2</ele>
        <time>2021-04-14T15:34:45Z</time>
      </trkpt>
      <trkpt lat="43.21546" lon="5.62361">
        <ele>103.3</ele>
        <time>2021-04-14T15:34:51Z</time>
      </trkpt>
      <trkpt lat="43.21549" lon="5.62368">
        <ele>103.2</ele>
        <time>2021-04-14T15:35:01Z</time>
      </trkpt>
      <trkpt lat="43.21553" lon="5.62371">
        <ele>103.2</ele>
        <time>2021-04-14T15:35:09Z</time>
      </trkpt>
    </trkseg>
  </trk>
</gpx>